     2              OBSERVATION DATA    GPS                 RINEX VERSION / TYPE
ASHTORIN 07 - MAY - 99 10:16                                PGM / RUN BY / DATE
                                                            COMMENT
Original Marker Name: SIO4                                  COMMENT
Campaign Name: rose canyon fault                            COMMENT
4-Character Station Name: SIO4                              COMMENT
6-Character Antenna Code: DMRCHT                            COMMENT
Vertical Measurement Point: BPA                             COMMENT
Vertical Offset to Rinex Ref. Point: 0.0000                 COMMENT
Radial Measurement Point: RRP                               COMMENT
Radial Offset to Rinex Ref. Point: 0.0000                   COMMENT
Antenna Height from Field Measurement: 0.0000 m             COMMENT
Original XYZ: 0.0000 0.0000 0.0000                          COMMENT
New XYZ position is based on association with SCEC monument COMMENT
E1C8P4W3+0501. Position of that monument is believed to be  COMMENT
valid to within 1 m horizontally; vertical accuracy         COMMENT
should be no worse than 3-times this value.                 COMMENT
                                                            COMMENT
Revised Rinex header created by UCSD GPS archive for        COMMENT
GSAC on 04-Sep-1999 (1999:247) 20:16:03 GMT                 COMMENT
For assistance contact dagnew@ucsd.edu or hjohnson@ucsd.edu COMMENT
                                                            COMMENT
SIO LIBRARY WALL - SOUTH                                    MARKER NAME
                                                            MARKER NUMBER
SJB SCRIPPS INSTITUTION OF OCEANOGRAPHY                     OBSERVER / AGENCY
386 ASHTECH Z12-XII3 1E951D0                                REC # / TYPE / VERS
409 DORNE-MARGOL. TYPE T                                    ANT # / TYPE
 -2455542.0000 -4767225.0000  3441626.0000                  APPROX POSITION XYZ
        0.0000        0.0000        0.0000                  ANTENNA: DELTA H/E/N
     1     1     0                                          WAVELENGTH FACT L1/2
     7    L1    L2    C1    P1    P2    D1    D2            # / TYPES OF OBSERV
    30                                                      INTERVAL
  1999     5     4     0     0   30.000000                  TIME OF FIRST OBS
  1999     5     4    23    59   30.000000                  TIME OF LAST OBS
                                                            END OF HEADER
 99  5  4  0  0 30.0000000  0  7 22  6 23 21 26 17 30                0.000000000
  -6455970.531 9  -4126767.97647  23608418.312    23608417.5334   23608427.6814
        -0.000          -0.000
 -18951602.330 9 -14310691.11348  21126042.324    21126042.0654   21126049.6494
        -0.000          -0.000
 -20164890.797 9 -15467526.31549  21084987.397    21084986.8184   21084994.5164
        -0.000          -0.000
  -8944172.261 9  -6537527.47346  23713459.282    23713458.7454   23713471.2364
        -0.000          -0.000
  -7804395.304 9  -5895915.50847  22042577.007    22042577.0114   22042584.2054
        -0.000          -0.000
 -21156618.497 9 -15439929.58048  21117961.464    21117960.7304   21117968.4694
        -0.000          -0.000
  10732605.136 9   9454140.80845  25491389.486    25491389.3874   25491408.3734
        -0.000          -0.000
 99  5  4  0  1  0.0000000  0  7 22  6 23 21 26 17 30                0.000782548
  -6426811.659 9  -4104046.78947  23613966.877    23613966.2714   23613976.5054
        -0.000          -0.000
 -18883554.224 9 -14257666.63648  21138991.546    21138991.2514   21138998.8114
        -0.000          -0.000
 -20180085.453 9 -15479366.25449  21082095.889    21082095.2594   21082103.0204
        -0.000          -0.000
  -9011296.317 9  -6589831.70046  23700686.057    23700685.3374   23700697.7194
        -0.000          -0.000
  -7778024.018 9  -5875366.38947  22047595.412    22047595.3974   22047602.6074
        -0.000          -0.000
 -21161893.572 9 -15444040.01748  21116957.619    21116956.8654   21116964.7084
        -0.000          -0.000
  10837912.916 8   9536198.46745  25511429.348    25511429.1754   25511448.3334
        -0.000          -0.000
 99  5  4  0  1 30.0000000  0  7 22  6 23 21 26 17 30                0.000788814
  -6397166.707 9  -4080946.84847  23619608.316    23619607.6454   23619617.7964
        -0.000          -0.000
 -18815032.312 9 -14204272.96248  21152030.905    21152030.5944   21152038.1414
        -0.000          -0.000
 -20194866.079 9 -15490883.57449  21079283.120    21079282.4974   21079290.2814
        -0.000          -0.000
  -9078193.623 9  -6641959.24046  23687955.885    23687954.9504   23687967.4954
        -0.000          -0.000
  -7751049.073 9  -5854346.92247  22052728.689    22052728.6344   22052735.8704
        -0.000          -0.000
 -21167003.942 9 -15448022.10249  21115985.165    21115984.4184   21115992.2304
        -0.000          -0.000
  10943029.215 9   9618106.91445  25531432.873    25531432.7564   25531451.9364
        -0.000          -0.000
 99  5  4  0  2  0.0000000  0  7 22  6 23 21 26 17 30                0.000795087
  -6367030.112 9  -4057463.81347  23625343.274    23625342.4764   23625352.5344
        -0.000          -0.000
 -18746047.186 9 -14150518.35248  21165158.341    21165158.0264   21165165.6444
        -0.000          -0.000
 -20209247.148 9 -15502089.54849  21076546.422    21076545.7714   21076553.5384
        -0.000          -0.000
  -9144880.650 9  -6693922.98346  23675265.531    23675264.6864   23675277.2714
        -0.000          -0.000
  -7723476.843 9  -5832862.05547  22057975.399    22057975.3824   22057982.6944
        -0.000          -0.000
 -21171973.434 9 -15451894.41349  21115039.520    21115038.7934   21115046.5644
        -0.000          -0.000
  11047954.544 8   9699866.56845  25551400.063    25551399.6344   25551419.0744
        -0.000          -0.000
 99  5  4  0  2 30.0000000  0  7 22  6 23 21 26 17 30                0.000801348
  -6336419.844 9  -4033611.66946  23631167.973    23631167.3434   23631177.6044
        -0.000          -0.000
 -18676604.001 9 -14096406.81648  21178372.835    21178372.5684   21178380.2584
        -0.000          -0.000
 -20223239.277 9 -15512992.44449  21073883.678    21073883.0254   21073890.8954
        -0.000          -0.000
  -9211377.201 9  -6745738.28146  23662611.185    23662610.6264   23662623.1784
        -0.000          -0.000
  -7695323.458 9  -5810924.32647  22063332.716    22063332.7034   22063340.1494
        -0.000          -0.000
 -21176797.619 9 -15455653.49849  21114121.615    21114120.8684   21114128.5274
        -0.000          -0.000
  11152688.742 8   9781477.27945  25571330.333    25571329.9474   25571349.9644
        -0.000          -0.000
 99  5  4  0  3  0.0000000  0  7 22  6 23 21 26 17 30                0.000807603
  -6305351.991 9  -4009402.98546  23637080.300    23637079.5604   23637089.7874
        -0.000          -0.000
 -18606692.164 9 -14041930.08448  21191676.585    21191676.2884   21191684.0574
        -0.000          -0.000
 -20236850.380 9 -15523598.44849  21071293.373    21071292.7284   21071300.8034
        -0.000          -0.000
  -9277680.854 9  -6797403.27546  23649993.956    23649993.2814   23650005.5854
        -0.000          -0.000
  -7666587.647 9  -5788532.76447  22068800.848    22068800.8474   22068808.3704
        -0.000          -0.000
 -21181482.085 9 -15459303.70549  21113230.283    21113229.4754   21113237.1314
        -0.000          -0.000
  11257233.755 8   9862940.53745  25591224.410    25591224.2744   25591244.5404
        -0.000          -0.000
 99  5  4  0  3 30.0000000  0  7 22  6 23 21 26 17 30                0.000813845
  -6273849.161 9  -3984855.35146  23643075.366    23643074.5304   23643084.5344
        -0.000          -0.000
 -18536337.948 9 -13987108.64148  21205064.475    21205064.2204   21205071.9384
        -0.000          -0.000
 -20250083.626 9 -15533910.01349  21068775.013    21068774.4314   21068782.6414
        -0.000          -0.000
  -9343788.196 9  -6848915.32246  23637413.632    23637413.2104   23637425.1774
        -0.000          -0.000
  -7637264.060 9  -5765683.18647  22074381.135    22074381.1044   22074388.5164
        -0.000          -0.000
 -21186022.126 9 -15462841.38249  21112366.374    21112365.5534   21112373.1884
        -0.000          -0.000
  11361594.489 8   9944260.21545  25611083.250    25611083.5954   25611103.9624
        -0.000          -0.000
 99  5  4  0  4  0.0000000  0  7 22  6 23 21 26 17 30                0.000820052
  -6241923.605 9  -3959978.32446  23649150.854    23649149.8254   23649159.7684
        -0.000          -0.000
 -18465543.707 9 -13931944.32748  21218536.203    21218535.9134   21218543.5984
        -0.000          -0.000
 -20262914.604 9 -15543908.12049  21066333.439    21066332.8414   21066341.0024
        -0.000          -0.000
  -9409707.283 9  -6900280.65446  23624869.455    23624869.0244   23624880.8264
        -0.000          -0.000
  -7607345.510 9  -5742370.02748  22080074.574    22080074.5124   22080081.8044
        -0.000          -0.000
 -21190390.927 9 -15466245.61749  21111534.963    21111534.1594   21111541.7894
        -0.000          -0.000
  11465789.842 8  10025451.06845  25630910.960    25630911.4294   25630931.9734
        -0.000          -0.000
 99  5  4  0  4 30.0000000  0  7 22  6 23 21 26 17 30                0.000826227
  -6209575.688 9  -3934772.18146  23655306.581    23655305.3834   23655315.4644
        -0.000          -0.000
 -18394300.545 9 -13876430.21448  21232093.391    21232093.0884   21232100.7814
        -0.000          -0.000
 -20275339.231 9 -15553589.58049  21063969.133    21063968.4584   21063976.6084
        -0.000          -0.000
  -9475415.217 9  -6951481.47246  23612365.571    23612365.1604   23612376.7894
        -0.000          -0.000
  -7576832.991 9  -5718593.98148  22085881.042    22085880.9534   22085888.1624
        -0.000          -0.000
 -21194575.788 9 -15469506.51248  21110738.596    21110737.7714   21110745.3534
        -0.000          -0.000
  11569810.078 8  10106505.42045  25650705.478    25650705.9454   25650726.7744
        -0.000          -0.000
 99  5  4  0  5  0.0000000  0  7 22  6 23 21 26 17 30                0.000832398
  -6176780.556 9  -3909217.55746  23661547.409    23661546.0934   23661556.2484
        -0.000          -0.000
 -18322604.218 9 -13820562.97548  21245736.832    21245736.5024   21245744.0814
        -0.000          -0.000
 -20287359.569 9 -15562956.03049  21061681.677    21061681.0224   21061689.1154
        -0.000          -0.000
  -9540882.553 9  -7002494.80246  23599907.560    23599907.1644   23599918.6704
        -0.000          -0.000
  -7545713.863 9  -5694345.28248  22091802.849    22091802.7634   22091809.8324
        -0.000          -0.000
 -21198561.379 9 -15472612.13648  21109980.024    21109979.2264   21109986.8514
        -0.000          -0.000
  11673653.476 8  10187421.99445  25670466.490    25670466.7954   25670487.8734
        -0.000          -0.000
 99  5  4  0  5 30.0000000  0  7 22  6 23 21 26 17 30                0.000838553
  -6143541.808 9  -3883317.24546  23667872.317    23667871.0254   23667881.2824
        -0.000          -0.000
 -18250467.586 9 -13764352.64048  21259463.990    21259463.6704   21259471.2844
        -0.000          -0.000
 -20298976.370 9 -15572008.03149  21059471.034    21059470.4124   21059478.4584
        -0.000          -0.000
  -9606106.418 9  -7053318.42246  23587496.027    23587495.4774   23587506.8764
        -0.000          -0.000
  -7514001.376 9  -5669634.23648  22097837.585    22097837.5064   22097844.5634
        -0.000          -0.000
 -21202341.549 9 -15475557.70849  21109260.638    21109259.8644   21109267.5704
        -0.000          -0.000
  11777297.389 8  10268183.09145  25690189.784    25690189.7914   25690211.3174
        -0.000          -0.000
 99  5  4  0  6  0.0000000  0  7 22  6 23 21 26 17 30                0.000844708
  -6109848.021 9  -3857062.35146  23674283.688    23674282.5554   23674293.0284
        -0.000          -0.000
 -18177883.207 9 -13707793.41048  21273276.318    21273276.0084   21273283.6334
        -0.000          -0.000
 -20310196.957 9 -15580751.30049  21057335.838    21057335.2004   21057343.2144
        -0.000          -0.000
  -9671079.057 9  -7103946.27646  23575132.251    23575131.5364   23575143.0074
        -0.000          -0.000
  -7481698.870 9  -5644463.45348  22103984.520    22103984.4804   22103991.6004
        -0.000          -0.000
 -21205936.427 9 -15478358.88949  21108576.545    21108575.7474   21108583.4264
        -0.000          -0.000
  11880726.646 9  10348776.96445  25709872.322    25709872.0454   25709893.4514
        -0.000          -0.000
 99  5  4  0  6 30.0000000  0  7 22  6 23 21 26 17 30                0.000850882
  -6075698.800 9  -3830452.60746  23680782.075    23680780.9464   23680791.5294
        -0.000          -0.000
 -18104869.760 9 -13650899.84048  21287170.269    21287169.9594   21287177.6114
        -0.000          -0.000
 -20321045.986 9 -15589205.03649  21055271.303    21055270.6794   21055278.5904
        -0.000          -0.000
  -9735796.712 9  -7154375.43046  23562816.790    23562816.0524   23562827.6644
        -0.000          -0.000
  -7448812.913 9  -5618838.02747  22110242.537    22110242.4484   22110249.5654
        -0.000          -0.000
 -21209373.481 9 -15481037.10449  21107922.479    21107921.6904   21107929.2474
        -0.000          -0.000
  11983919.391 9  10429186.50045  25729509.802    25729509.4804   25729530.4014
        -0.000          -0.000
 99  5  4  0  7  0.0000000  0  7 22  6 23 21 26 17 30                0.000857068
  -6041104.417 9  -3803495.96146  23687365.206    23687364.0494   23687374.7184
        -0.000          -0.000
 -18031441.973 9 -13593683.40948  21301143.140    21301142.8254   21301150.4464
        -0.000          -0.000
 -20331522.690 9 -15597368.64649  21053277.607    21053276.9604   21053284.9254
        -0.000          -0.000
  -9800280.025 9  -7204621.99746  23550546.044    23550545.2674   23550556.7914
        -0.000          -0.000
  -7415339.145 9  -5592754.56547  22116612.326    22116612.2384   22116619.3754
        -0.000          -0.000
 -21212660.510 9 -15483598.39749  21107296.936    21107296.1934   21107303.6844
        -0.000          -0.000
  12086872.385 8  10509409.24645  25749101.593    25749101.1964   25749121.9674
        -0.000          -0.000
 99  5  4  0  7 30.0000000  0  7 22  6 23 21 26 17 30                0.000863254
  -6006076.862 9  -3776201.74946  23694030.772    23694029.6154   23694040.4134
        -0.000          -0.000
 -17957600.331 9 -13536144.49348  21315194.797    21315194.4784   21315202.0314
        -0.000          -0.000
 -20341621.471 9 -15605237.78149  21051355.699    21051355.0904   21051363.1314
        -0.000          -0.000
  -9864540.803 9  -7254695.14546  23538317.612    23538316.7624   23538328.2064
        -0.000          -0.000
  -7381281.854 9  -5566216.39347  22123093.197    22123093.1014   22123100.1314
        -0.000          -0.000
 -21215813.056 9 -15486054.89049  21106697.104    21106696.3184   21106703.8224
        -0.000          -0.000
  12189582.920 7  10589443.04254  25768647.077    25768646.7074          0.0005
        -0.000          -0.000
 99  5  4  0  8  0.0000000  0  7 22  6 23 21 26 17 30                0.000869447
  -5970613.664 9  -3748568.07246  23700779.311    23700778.0424   23700788.7594
        -0.000          -0.000
 -17883341.144 9 -13478280.23848  21329325.906    21329325.5754   21329333.1364
        -0.000          -0.000
 -20351336.872 9 -15612808.17349  21049506.876    21049506.3004   21049514.2894
        -0.000          -0.000
  -9928577.374 9  -7304593.59646  23526131.625    23526130.7994   23526142.2074
        -0.000          -0.000
  -7346630.139 9  -5539215.03847  22129687.052    22129686.9574   22129693.9514
        -0.000          -0.000
 -21218842.140 9 -15488415.20349  21106120.699    21106119.9074   21106127.3924
        -0.000          -0.000
  12292059.71417  10669294.73954  25788148.338    25788148.1755          0.0005
        -0.000          -0.000
 99  5  4  0  8 30.0000000  0  7 22  6 23 21 26 17 30                0.000875636
  -5934723.026 9  -3720601.36546  23707609.080    23707607.9644   23707618.3304
        -0.000          -0.000
 -17808648.249 9 -13420078.01148  21343539.463    21343539.1754   21343546.8404
        -0.000          -0.000
 -20360660.315 9 -15620073.14349  21047732.845    21047732.1984   21047740.1094
        -0.000          -0.000
  -9992400.206 9  -7354325.47746  23513986.138    23513985.5374   23513996.7394
        -0.000          -0.000
  -7311380.238 9  -5511747.57547  22136394.825    22136394.7534   22136401.7024
        -0.000          -0.000
 -21221736.047 9 -15490670.18349  21105570.052    21105569.2684   21105576.6574
        -0.000          -0.000
  12394312.63216  10748971.93653         0.000           0.0005          0.0005
        -0.000          -0.000
 99  5  4  0  9  0.0000000  0  7 22  6 23 21 26 17 30                0.000881816
  -5898410.841 9  -3692306.16446  23714519.107    23714517.9414   23714528.1424
        -0.000          -0.000
 -17733498.089 9 -13361519.49848  21357840.090    21357839.7954   21357847.5504
        -0.000          -0.000
 -20369589.012 9 -15627030.53049  21046033.817    21046033.1644   21046040.9894
        -0.000          -0.000
 -10056001.769 9  -7403884.92246  23501883.436    23501882.5964   23501893.3404
        -0.000          -0.000
  -7275537.088 9  -5483817.85047  22143215.409    22143215.3214   22143222.4584
        -0.000          -0.000
 -21224482.396 9 -15492810.17849  21105047.487    21105046.6804   21105053.9814
        -0.000          -0.000
  12496342.06016      3399.16452         0.000           0.0005          0.0005
        -0.000          -0.000
 99  5  4  0  9 30.0000000  0  6 22  6 23 21 26 17                   0.000887981
  -5861681.251 9  -3663685.72846  23721508.171    23721507.2124   23721517.4644
        -0.000          -0.000
 -17657895.984 9 -13302608.81748  21372226.724    21372226.4554   21372234.1134
        -0.000          -0.000
 -20378126.354 9 -15633682.96149  21044409.260    21044408.5794   21044416.2134
        -0.000          -0.000
 -10119369.158 9  -7453261.90746  23489824.960    23489824.1144   23489834.6174
        -0.000          -0.000
  -7239112.781 9  -5455435.27647  22150146.410    22150146.3934   22150153.8134
        -0.000          -0.000
 -21227083.386 9 -15494836.89848  21104552.407    21104551.6034   21104558.9014
        -0.000          -0.000
 99  5  4  0 10  0.0000000  0  6 22  6 23 21 26 17                   0.000894135
  -5824535.122 9  -3634740.72946  23728576.944    23728576.0784   23728586.1624
        -0.000          -0.000
 -17581829.286 9 -13243336.11548  21386701.820    21386701.5254   21386709.1054
        -0.000          -0.000
 -20386263.096 9 -15640023.23649  21042860.915    21042860.2414   21042867.7144
        -0.000          -0.000
 -10182498.308 9  -7502453.26746  23477811.397    23477810.7404   23477821.2704
        -0.000          -0.000
  -7202097.982 9  -5426592.53547  22157189.974    22157189.9574   22157197.6014
        -0.000          -0.000
 -21229528.595 9 -15496742.24849  21104086.949    21104086.1954   21104093.5724
        -0.000          -0.000
 99  5  4  0 10 30.0000000  0  6 22  6 23 21 26 17                   0.000900278
  -5786980.531 9  -3605477.43246  23735723.452    23735722.4814   23735732.5084
        -0.000          -0.000
 -17505289.153 9 -13183694.49148  21401266.864    21401266.5824   21401274.2534
        -0.000          -0.000
 -20394000.427 9 -15646052.27549  21041388.488    21041387.8014   21041395.2684
        -0.000          -0.000
 -10245383.436 9  -7551454.45246  23465844.409    23465843.8444   23465854.4164
        -0.000          -0.000
  -7164484.332 9  -5397283.18347  22164347.598    22164347.5524   22164355.2524
        -0.000          -0.000
 -21231802.729 9 -15498514.28249  21103654.184    21103653.4054   21103660.8574
        -0.000          -0.000
 99  5  4  0 11  0.0000000  0  6 22  6 23 21 26 17                   0.000906422
  -5748999.030 9  -3575881.48446  23742950.910    23742950.1274   23742960.1664
        -0.000          -0.000
 -17428275.870 9 -13123684.17648  21415921.977    21415921.7464   21415929.3904
        -0.000          -0.000
 -20401326.927 9 -15651761.19849  21039994.115    21039993.4964   21040001.0774
        -0.000          -0.000
 -10308004.793 9  -7600250.11346  23453927.587    23453927.0954   23453937.7564
        -0.000          -0.000
  -7126258.789 9  -5367497.04347  22171621.758    22171621.6654   22171629.2304
        -0.000          -0.000
 -21233880.863 9 -15500133.60749  21103258.700    21103257.9394   21103265.3774
        -0.000          -0.000
 99  5  4  0 11 30.0000000  0  6 22  6 23 21 26 17                   0.000912554
  -5710603.470 9  -3545962.90046  23750257.824    23750256.8594   23750266.7774
        -0.000          -0.000
 -17350809.219 9 -13063320.58848  21430663.431    21430663.1504   21430670.7914
        -0.000          -0.000
 -20408251.970 9 -15657157.28449  21038676.275    21038675.6984   21038683.2504
        -0.000          -0.000
 -10370391.519 9  -7648862.93046  23442055.437    23442054.9444   23442065.7864
        -0.000          -0.000
  -7087427.998 9  -5337239.26847  22179011.128    22179010.9904   22179018.5134
        -0.000          -0.000
 -21235761.264 9 -15501598.83649  21102900.756    21102900.0074   21102907.4624
        -0.000          -0.000
 99  5  4  0 12  0.0000000  0  6 22  6 23 21 26 17                   0.000918676
  -5671797.900 9  -3515724.81546  23757642.227    23757641.3674   23757651.3424
        -0.000          -0.000
 -17272889.578 9 -13002604.02948  21445490.984    21445490.7264   21445498.4614
        -0.000          -0.000
 -20414789.649 9 -15662251.53249  21037432.278    21037431.6294   21037439.0914
        -0.000          -0.000
 -10432556.113 9  -7697302.62646  23430225.484    23430225.1134   23430236.1794
        -0.000          -0.000
  -7047988.849 9  -5306507.45347  22186516.197    22186516.0944   22186523.5514
        -0.000          -0.000
 -21237443.070 9 -15502909.31449  21102580.629    21102579.8984   21102587.4154
        -0.000          -0.000
 99  5  4  0 12 30.0000000  0  6 22  6 23 21 26 17                   0.000924799
  -5632579.616 9  -3485165.15546  23765105.259    23765104.3914   23765114.2814
        -0.000          -0.000
 -17194534.038 9 -12941547.81848  21460401.608    21460401.3334   21460409.1964
        -0.000          -0.000
 -20420959.345 9 -15667059.04049  21036258.229    21036257.5424   21036264.9634
        -0.000          -0.000
 -10494494.578 9  -7745566.15246  23418438.856    23418438.4134   23418449.5854
        -0.000          -0.000
  -7007950.866 9  -5275308.99947  22194135.197    22194135.0904   22194142.5794
        -0.000          -0.000
 -21238919.354 9 -15504059.65649  21102299.714    21102299.0124   21102306.5024
        -0.000          -0.000
 99  5  4  0 13  0.0000000  0  6 22  6 23 21 26 17                   0.000930909
  -5592960.050 9  -3454292.79646  23772644.558    23772643.7014   23772653.5334
        -0.000          -0.000
 -17115781.345 9 -12880182.13448  21475387.798    21475387.5384   21475395.4514
        -0.000          -0.000
 -20426787.778 9 -15671600.62549  21035149.055    21035148.3804   21035155.8324
        -0.000          -0.000
 -10556227.981 9  -7793669.88646  23406691.314    23406690.9554   23406701.8784
        -0.000          -0.000
  -6967347.528 9  -5243669.97847  22201861.701    22201861.6414   22201869.1784
        -0.000          -0.000
 -21240216.749 9 -15505070.59249  21102052.916    21102052.1734   21102059.6144
        -0.000          -0.000
 99  5  4  0 13 30.0000000  0  6 22  6 23 21 26 17                   0.000937022
  -5552927.282 9  -3423098.46846  23780262.445    23780261.6384   23780271.3694
        -0.000          -0.000
 -17036616.909 9 -12818495.59848  21490452.420    21490452.1394   21490460.0304
        -0.000          -0.000
 -20432262.516 9 -15675866.61549  21034107.162    21034106.4714   21034114.0194
        -0.000          -0.000
 -10617746.531 9  -7841606.19447  23394985.024    23394984.3904   23394995.0824
        -0.000          -0.000
  -6926164.047 9  -5211578.93647  22209698.658    22209698.5764   22209706.0104
        -0.000          -0.000
 -21241344.571 9 -15505949.40249  21101838.359    21101837.6024   21101845.0574
        -0.000          -0.000
 99  5  4  0 14  0.0000000  0  6 22  6 23 21 26 17                   0.000943156
  -5512474.060 9  -3391576.50446  23787960.211    23787959.4194   23787969.4104
        -0.000          -0.000
 -16957036.577 9 -12756484.98748  21505596.115    21505595.8064   21505603.6134
        -0.000          -0.000
 -20437369.749 9 -15679846.23349  21033135.204    21033134.5444   21033142.0954
        -0.000          -0.000
 -10679025.726 9  -7889356.01247  23383323.880    23383323.2834   23383333.9834
        -0.000          -0.000
  -6884380.284 9  -5179020.17547  22217649.769    22217649.7714   22217657.0704
        -0.000          -0.000
 -21242320.336 9 -15506709.72349  21101652.740    21101651.9404   21101659.4214
        -0.000          -0.000
 99  5  4  0 14 30.0000000  0  6 22  6 23 21 26 17                   0.000949310
  -5471606.417 9  -3359731.62946  23795737.089    23795736.2444   23795746.3874
        -0.000          -0.000
 -16877040.027 9 -12694150.04448  21520818.906    21520818.6074   21520826.4724
        -0.000          -0.000
 -20442106.749 9 -15683537.36249  21032233.736    21032233.0884   21032240.6144
        -0.000          -0.000
 -10740067.586 9  -7936920.89446  23371707.794    23371707.2144   23371717.9004
        -0.000          -0.000
  -6841997.163 9  -5145994.35347  22225715.063    22225715.0174   22225722.1744
        -0.000          -0.000
 -21243145.435 9 -15507352.64049  21101495.756    21101494.9594   21101502.3554
        -0.000          -0.000
 99  5  4  0 15  0.0000000  0  6 22  6 23 21 26 17                   0.000955479
  -5430326.873 9  -3327565.76846  23803592.524    23803591.5764   23803601.8304
        -0.000          -0.000
 -16796623.538 9 -12631487.87548  21536121.668    21536121.3934   21536129.2404
        -0.000          -0.000
 -20446463.100 9 -15686931.87949  21031404.734    21031404.1024   21031411.6424
        -0.000          -0.000
 -10800878.148 9  -7984305.52546  23360135.717    23360135.1954   23360145.8714
        -0.000          -0.000
  -6799008.751 9  -5112496.88547  22233895.346    22233895.2854   22233902.6374
        -0.000          -0.000
 -21243827.091 9 -15507883.79149  21101365.989    21101365.2394   21101372.6214
        -0.000          -0.000
 99  5  4  0 15 30.0000000  0  6 22  6 23 21 26 17                   0.000961655
  -5388643.430 9  -3295085.21246  23811524.734    23811523.7564   23811534.0184
        -0.000          -0.000
 -16715777.667 9 -12568491.13448  21551506.125    21551505.8434   21551513.7344
        -0.000          -0.000
 -20450431.822 9 -15690024.34949  21030649.493    21030648.8154   21030656.4074
        -0.000          -0.000
 -10861458.041 9  -8031510.43447  23348607.584    23348607.1364   23348617.7084
        -0.000          -0.000
  -6755416.894 9  -5078529.17947  22242190.607    22242190.5524   22242197.8604
        -0.000          -0.000
 -21244359.220 9 -15508298.42549  21101264.782    21101263.9894   21101271.4604
        -0.000          -0.000
 99  5  4  0 16  0.0000000  0  6 22  6 23 21 26 17                   0.000967828
  -5346567.327 9  -3262298.67346  23819531.348    23819530.5224   23819540.7134
        -0.000          -0.000
 -16634523.924 9 -12505176.56848  21566968.092    21566967.8394   21566975.8274
        -0.000          -0.000
 -20454030.916 9 -15692828.78949  21029964.483    21029963.8894   21029971.5154
        -0.000          -0.000
 -10921808.338 9  -8078536.43247  23337123.252    23337122.7064   23337133.2384
        -0.000          -0.000
  -6711240.981 9  -5044106.37947  22250597.075    22250596.9824   22250604.3674
        -0.000          -0.000
 -21244730.025 9 -15508587.36149  21101194.143    21101193.3284   21101200.8834
        -0.000          -0.000
 99  5  4  0 16 30.0000000  0  6 22  6 23 21 26 17                   0.000973979
  -5304098.994 9  -3229206.52146  23827612.986    23827611.9484   23827621.9234
        -0.000          -0.000
 -16552864.493 9 -12441545.88848  21582507.378    21582507.1314   21582515.2824
        -0.000          -0.000
 -20457266.367 9 -15695349.86649  21029348.753    21029348.1264   21029355.7914
        -0.000          -0.000
 -10981934.213 9  -8125387.54747  23325681.470    23325680.8774   23325691.6364
        -0.000          -0.000
  -6666509.488 9  -5009250.67847  22259109.408    22259109.2194   22259116.4464
        -0.000          -0.000
 -21244917.385 9 -15508733.33549  21101158.338    21101157.6334   21101165.1464
        -0.000          -0.000
 99  5  4  0 17  0.0000000  0  6 22  6 23 21 26 17                   0.000980121
  -5261201.148 9  -3195779.68946  23835776.082    23835775.1054   23835784.9144
        -0.000          -0.000
 -16470777.171 9 -12377581.77648  21598128.101    21598127.8674   21598136.0744
        -0.000          -0.000
 -20460107.433 9 -15697563.64749  21028807.898    21028807.3304   21028815.1294
        -0.000          -0.000
 -11041801.087 9  -8172036.87447  23314288.973    23314288.3854   23314299.2544
        -0.000          -0.000
  -6621208.589 9  -4973951.26447  22267729.690    22267729.5624   22267736.9994
        -0.000          -0.000
 -21244900.296 9 -15508720.00749  21101161.613    21101160.8404   21101168.3264
        -0.000          -0.000
 99  5  4  0 17 30.0000000  0  6 22  6 23 21 26 17                   0.000986232
  -5217906.770 9  -3162043.86346  23844014.871    23844013.8634   23844023.5984
        -0.000          -0.000
 -16388291.424 9 -12313307.20748  21613824.724    21613824.5014   21613832.7214
        -0.000          -0.000
 -20462578.319 9 -15699488.96749  21028337.594    21028337.0654   21028344.8404
        -0.000          -0.000
 -11101437.605 9  -8218506.70647  23302940.118    23302939.6214   23302950.5664
        -0.000          -0.000
  -6575373.253 9  -4938235.40547  22276451.668    22276451.5944   22276459.1344
        -0.000          -0.000
 -21244709.285 9 -15508571.15249  21101197.961    21101197.1754   21101204.6404
        -0.000          -0.000
 99  5  4  0 18  0.0000000  0  6 22  6 23 21 26 17                   0.000992314
  -5174210.374 9  -3127994.78646  23852329.964    23852329.0364   23852338.8704
        -0.000          -0.000
 -16305394.534 9 -12248712.26748  21629599.532    21629599.2804   21629607.4874
        -0.000          -0.000
 -20464663.754 9 -15701113.93949  21027940.715    21027940.1604   21027947.8204
        -0.000          -0.000
 -11160828.790 9  -8264785.38047  23291638.042    23291637.5564   23291648.5074
        -0.000          -0.000
  -6528996.236 9  -4902097.46747  22285276.872    22285276.7944   22285284.2584
        -0.000          -0.000
 -21244333.994 9 -15508278.70749  21101269.282    21101268.5364   21101276.0224
        -0.000          -0.000
 99  5  4  0 18 30.0000000  0  6 22  6 23 21 26 17                   0.000998365
  -5130113.061 9  -3093633.27146  23860721.687    23860720.5974   23860730.4134
        -0.000          -0.000
 -16222065.958 9 -12183780.95048  21645456.429    21645456.2334   21645464.4484
        -0.000          -0.000
 -20466339.613 9 -15702419.77149  21027621.810    21027621.2714   21027628.9084
        -0.000          -0.000
 -11219962.943 9  -8310863.77647  23280385.145    23280384.6264   23280395.2944
        -0.000          -0.000
  -6482064.908 9  -4865527.57947  22294207.677    22294207.5814   22294214.9684
        -0.000          -0.000
 -21243774.574 9 -15507842.78149  21101375.663    21101374.9524   21101382.4014
        -0.000          -0.000
 99  5  4  0 19  0.0000000  0  6 22  6 23 21 26 17                   0.001004399
  -5085619.781 9  -3058963.24046  23869188.496    23869187.2764   23869197.1944
        -0.000          -0.000
 -16138301.604 9 -12118510.07148  21661396.341    21661396.1184   21661404.3424
        -0.000          -0.000
 -20467601.632 9 -15703403.12749  21027381.727    21027381.1374   21027388.6824
        -0.000          -0.000
 -11278837.853 9  -8356740.18047  23269181.514    23269181.0224   23269191.3844
        -0.000          -0.000
  -6434555.491 9  -4828507.23647  22303248.420    22303248.3324   22303255.7014
        -0.000          -0.000
 -21243040.624 9 -15507270.85349  21101515.327    21101514.6154   21101522.0104
        -0.000          -0.000
 99  5  4  0 19 30.0010000  0  6 22  6 23 21 26 17                   0.001010410
  -5040746.769 9  -3023997.28946  23877727.119    23877726.1654   23877736.5074
        -0.000          -0.000
 -16054090.934 9 -12052891.43148  21677421.172    21677420.9344   21677429.1474
        -0.000          -0.000
 -20468449.740 9 -15704063.95449  21027220.226    21027219.6394   21027227.1884
        -0.000          -0.000
 -11337461.784 9  -8402420.98647  23258025.568    23258025.1254   23258035.3364
        -0.000          -0.000
  -6386456.299 9  -4791027.32447  22312401.463    22312401.3364   22312408.6574
        -0.000          -0.000
 -21242120.093 9 -15506553.54549  21101690.434    21101689.7444   21101697.1314
        -0.000          -0.000
 99  5  4  0 20  0.0010000  0  6 22  6 23 21 26 17                   0.001016412
  -4995502.338 9  -2988741.92046  23886336.387    23886335.8544   23886346.4194
        -0.000          -0.000
 -15969447.534 9 -11986935.58948  21693528.163    21693527.9734   21693536.2624
        -0.000          -0.000
 -20468910.064 9 -15704422.61449  21027132.539    21027131.9794   21027139.6314
        -0.000          -0.000
 -11395830.708 9  -8447903.13247  23246918.396    23246917.8144   23246927.9394
        -0.000          -0.000
  -6337769.118 9  -4753089.26447  22321666.271    22321666.2214   22321673.5074
        -0.000          -0.000
 -21241009.999 9 -15505688.52649  21101901.659    21101900.9884   21101908.3214
        -0.000          -0.000
 99  5  4  0 20 30.0010000  0  6 22  6 23 21 26 17                   0.001022432
  -4949878.095 9  -2953190.63946  23895018.545    23895017.9734   23895028.4094
        -0.000          -0.000
 -15884371.511 9 -11920642.62248  21709717.530    21709717.3254   21709725.7224
        -0.000          -0.000
 -20469003.911 9 -15704495.70849  21027114.728    21027114.1514   21027121.8024
        -0.000          -0.000
 -11453960.491 9  -8493198.90147  23235856.748    23235856.0714   23235866.1214
        -0.000          -0.000
  -6288477.286 9  -4714680.03047  22331046.166    22331046.1484   22331053.4584
        -0.000          -0.000
 -21239717.253 9 -15504681.18349  21102147.617    21102146.9184   21102154.3074
        -0.000          -0.000
 99  5  4  0 21  0.0010000  0  6 22  6 23 21 26 17                   0.001028480
  -4903865.873 9  -2917337.01446  23903774.353    23903773.8124   23903784.2514
        -0.000          -0.000
 -15798861.288 9 -11854011.32848  21725989.629    21725989.4404   21725997.8524
        -0.000          -0.000
 -20468750.898 9 -15704298.52149  21027162.939    21027162.2984   21027169.9194
        -0.000          -0.000
 -11511861.181 9  -8538316.17047  23224838.601    23224837.8694   23224847.8864
        -0.000          -0.000
  -6238585.126 9  -4675803.02247  22340540.270    22340540.2664   22340547.5694
        -0.000          -0.000
 -21238241.793 9 -15503531.47449  21102428.362    21102427.7134   21102435.0664
        -0.000          -0.000
 99  5  4  0 21 30.0010000  0  6 22  6 23 21 26 17                   0.001034551
  -4857474.548 9  -2881187.95746  23912602.330    23912601.8004   23912612.3624
        -0.000          -0.000
 -15712937.204 9 -11787057.53648  21742340.553    21742340.3214   21742348.7304
        -0.000          -0.000
 -20468177.424 9 -15703851.62749  21027272.067    21027271.4634   21027279.0234
        -0.000          -0.000
 -11569540.495 9  -8583260.96147  23213862.545    23213861.9284   23213871.9094
        -0.000          -0.000
  -6188121.654 9  -4636480.83047  22350143.180    22350143.1574   22350150.4824
        -0.000          -0.000
 -21236592.499 9 -15502246.29149  21102742.237    21102741.5264   21102748.9264
        -0.000          -0.000
 99  5  4  0 22  0.0010000  0  6 22  6 23 21 26 17                   0.001040642
  -4810701.328 9  -2844741.35646  23921503.046    23921502.3694   23921513.2164
        -0.000          -0.000
 -15626621.125 9 -11719798.28748  21758765.968    21758765.7704   21758774.0944
        -0.000          -0.000
 -20467303.497 9 -15703170.61449  21027438.453    21027437.8484   21027445.3334
        -0.000          -0.000
 -11627001.690 9  -8628035.77447  23202927.996    23202927.4774   23202937.4214
        -0.000          -0.000
  -6137113.946 9  -4596734.56047  22359849.533    22359849.4994   22359856.9134
        -0.000          -0.000
 -21234789.938 9 -15500841.68849  21103085.230    21103084.5494   21103091.9994
        -0.000          -0.000
 99  5  4  0 22 30.0010000  0  6 22  6 23 21 26 17                   0.001046744
  -4763541.105 9  -2807993.21846  23930477.396    23930476.7754   23930487.5284
        -0.000          -0.000
 -15539908.332 9 -11652229.91948  21775266.907    21775266.7064   21775274.9324
        -0.000          -0.000
 -20466098.940 9 -15702231.96549  21027667.709    21027667.0494   21027674.4584
        -0.000          -0.000
 -11684234.153 9  -8672632.35447  23192037.150    23192036.5274   23192046.3844
        -0.000          -0.000
  -6085563.661 9  -4556565.49547  22369659.160    22369659.1674   22369666.5854
        -0.000          -0.000
 -21232833.558 9 -15499317.22649  21103457.516    21103456.8414   21103464.2974
        -0.000          -0.000
 99  5  4  0 23  0.0010000  0  6 22  6 23 21 26 17                   0.001052838
  -4715998.326 9  -2770946.96746  23939524.940    23939524.2114   23939534.5614
        -0.000          -0.000
 -15452813.178 9 -11584363.60948  21791840.745    21791840.5124   21791848.6054
        -0.000          -0.000
 -20464539.986 9 -15701017.16749  21027964.315    21027963.6844   21027971.0734
        -0.000          -0.000
 -11741217.708 9  -8717034.98747  23181193.523    23181192.8054   23181202.4894
        -0.000          -0.000
  -6033479.399 9  -4515980.34947  22379570.500    22379570.4564   22379578.0364
        -0.000          -0.000
 -21230715.523 9 -15497666.79749  21103860.668    21103859.9324   21103867.3234
        -0.000          -0.000
 99  5  4  0 23 30.0010000  0  6 22  6 23 21 26 17                   0.001058923
  -4668076.226 9  -2733605.13246  23948644.583    23948643.7884   23948653.9634
        -0.000          -0.000
 -15365352.386 9 -11516212.37248  21808484.046    21808483.8314   21808491.8194
        -0.000          -0.000
 -20462620.560 9 -15699521.48749  21028329.529    21028328.9314   21028336.2694
        -0.000          -0.000
 -11797945.433 9  -8761238.26947  23170398.236    23170397.5984   23170407.3214
        -0.000          -0.000
  -5980852.020 9  -4474971.99147  22389585.131    22389585.0734   22389592.8084
        -0.000          -0.000
 -21228432.211 9 -15495887.58649  21104295.182    21104294.4114   21104301.7984
        -0.000          -0.000
 99  5  4  0 24  0.0010000  0  6 22  6 23 21 26 17                   0.001065003
  -4619770.580 9  -2695964.41146  23957837.293    23957836.4944   23957846.3704
        -0.000          -0.000
 -15277516.049 9 -11447768.50848  21825198.840    21825198.6004   21825206.5884
        -0.000          -0.000
 -20460316.188 9 -15697725.84049  21028767.997    21028767.3874   21028774.6704
        -0.000          -0.000
 -11854412.351 9  -8805238.32947  23159652.593    23159652.0474   23159661.8904
        -0.000          -0.000
  -5927660.027 9  -4433523.68647  22399707.180    22399707.1854   22399715.0064
        -0.000          -0.000
 -21225968.599 9 -15493967.87449  21104763.976    21104763.2364   21104770.6314
        -0.000          -0.000
 99  5  4  0 24 30.0010000  0  6 22  6 23 21 26 17                   0.001071067
  -4571107.446 9  -2658045.12646  23967097.820    23967096.9034   23967106.6684
        -0.000          -0.000
 -15189318.762 9 -11379043.37848  21841982.207    21841982.0004   21841990.1664
        -0.000          -0.000
 -20457626.591 9 -15695630.01649  21029279.819    21029279.2134   21029286.4024
        -0.000          -0.000
 -11910637.630 9  -8849050.09947  23148952.965    23148952.3944   23148962.4894
        -0.000          -0.000
  -5873888.354 9  -4391623.69147  22409939.561    22409939.6224   22409947.3934
        -0.000          -0.000
 -21223323.700 9 -15491906.89849  21105267.304    21105266.5284   21105273.9824
        -0.000          -0.000
 99  5  4  0 25  0.0010000  0  6 22  6 23 21 26 17                   0.001077109
  -4522106.704 9  -2619862.78846  23976422.978    23976421.7684   23976431.3264
        -0.000          -0.000
 -15100765.833 9 -11310041.14848  21858833.304    21858833.0754   21858841.4074
        -0.000          -0.000
 -20454574.403 9 -15693251.65749  21029860.710    21029860.0914   21029867.1944
        -0.000          -0.000
 -11966643.300 9  -8892690.75147  23138295.064    23138294.6234   23138304.7324
        -0.000          -0.000
  -5819553.107 9  -4349284.53847  22420279.372    22420279.3734   22420286.9314
        -0.000          -0.000
 -21220500.078 9 -15489706.66749  21105804.484    21105803.7674   21105811.2674
        -0.000          -0.000
 99  5  4  0 25 30.0010000  0  6 22  6 23 21 26 17                   0.001083131
  -4472767.718 9  -2581416.85946  23985811.940    23985810.6194   23985820.2774
        -0.000          -0.000
 -15011835.200 9 -11240744.60848  21875756.272    21875756.0204   21875764.3434
        -0.000          -0.000
 -20451165.513 9 -15690595.34649  21030509.438    21030508.8124   21030515.8894
        -0.000          -0.000
 -12022433.597 9  -8936163.59847  23127678.279    23127677.8634   23127687.9844
        -0.000          -0.000
  -5764651.227 9  -4306503.83847  22430726.990    22430726.9714   22430734.3324
        -0.000          -0.000
 -21217477.269 9 -15487351.22049  21106379.563    21106378.8884   21106386.3994
        -0.000          -0.000
 99  5  4  0 26  0.0010000  0  6 22  6 23 21 26 17                   0.001089122
  -4423093.013 9  -2542709.34246  23995264.399    23995263.2454   23995273.0904
        -0.000          -0.000
 -14922513.628 9 -11171143.44348  21892753.602    21892753.3824   21892761.6614
        -0.000          -0.000
 -20447380.437 9 -15687645.90949  21031229.725    21031229.1134   21031236.2544
        -0.000          -0.000
 -12077999.262 9  -8979461.39247  23117104.325    23117103.9024   23117114.0274
        -0.000          -0.000
  -5709184.968 9  -4263283.38447  22441281.861    22441281.8344   22441289.1834
        -0.000          -0.000
 -21214236.252 9 -15484825.74649  21106996.380    21106995.7214   21107003.1384
        -0.000          -0.000
 99  5  4  0 26 30.0010000  0  6 22  6 23 21 26 17                   0.001095077
  -4373088.545 9  -2503744.87446  24004779.853    24004778.7374   24004788.5564
        -0.000          -0.000
 -14832798.633 9 -11101235.69348  21909825.795    21909825.5544   21909833.8534
        -0.000          -0.000
 -20443227.970 9 -15684410.17549  21032019.900    21032019.2864   21032026.3444
        -0.000          -0.000
 -12133332.434 9  -9022578.02547  23106574.860    23106574.2714   23106584.3064
        -0.000          -0.000
  -5653175.355 9  -4219639.52547  22451940.073    22451940.0464   22451947.4634
        -0.000          -0.000
 -21210786.683 9 -15482137.75749  21107652.930    21107652.1674   21107659.5804
        -0.000          -0.000
 99  5  4  0 27  0.0010000  0  6 22  6 23 21 26 17                   0.001101016
  -4322718.997 9  -2464495.93346  24014364.934    24014363.8124   24014373.3894
        -0.000          -0.000
 -14742652.981 9 -11030992.36548  21926979.939    21926979.6784   21926987.9484
        -0.000          -0.000
 -20438699.880 9 -15680881.75549  21032881.474    21032880.8604   21032887.9654
        -0.000          -0.000
 -12188395.122 9  -9065483.91147  23096096.658    23096096.0564   23096106.0744
        -0.000          -0.000
  -5596626.112 9  -4175575.18547  22462700.886    22462700.9264   22462708.5294
        -0.000          -0.000
 -21207109.374 9 -15479272.32149  21108352.610    21108351.9124   21108359.3524
        -0.000          -0.000
 99  5  4  0 27 30.0010000  0  6 22  6 23 21 26 17                   0.001106939
  -4271992.314 9  -2424968.69846  24024017.817    24024016.6904   24024026.3144
        -0.000          -0.000
 -14652113.993 9 -10960442.55948  21944208.923    21944208.6214   21944216.9764
        -0.000          -0.000
 -20433826.396 9 -15677084.20449  21033808.753    21033808.1784   21033815.3274
        -0.000          -0.000
 -12243191.064 9  -9108181.92247  23085669.239    23085668.6544   23085678.6854
        -0.000          -0.000
  -5539562.590 9  -4131110.10647  22473559.826    22473559.8484   22473567.4684
        -0.000          -0.000
 -21203238.532 9 -15476256.05949  21109089.350    21109088.5924   21109095.8744
        -0.000          -0.000
 99  5  4  0 28  0.0010000  0  6 22  6 23 21 26 17                   0.001112865
  -4220891.155 9  -2385149.66046  24033741.841    24033740.6984   24033750.5894
        -0.000          -0.000
 -14561170.873 9 -10889577.83348  21961514.770    21961514.5104   21961522.7784
        -0.000          -0.000
 -20428595.808 9 -15673008.38449  21034804.090    21034803.4894   21034810.6214
        -0.000          -0.000
 -12297692.851 9  -9150650.74247  23075297.799    23075297.1744   23075307.0864
        -0.000          -0.000
  -5481969.356 9  -4086232.26147  22484519.535    22484519.5514   22484527.0654
        -0.000          -0.000
 -21199182.641 9 -15473095.61449  21109861.238    21109860.4574   21109867.6684
        -0.000          -0.000
 99  5  4  0 28 30.0010000  0  6 22  6 23 21 26 17                   0.001118795
  -4169440.538 9  -2345058.34546  24043532.284    24043531.2804   24043541.1544
        -0.000          -0.000
 -14469845.673 9 -10818415.38448  21978893.504    21978893.1994   21978901.2964
        -0.000          -0.000
 -20423054.555 9 -15668690.48749  21035858.469    21035857.8794   21035865.1134
        -0.000          -0.000
 -12351941.525 9  -9192922.32847  23064974.416    23064973.8714   23064983.5724
        -0.000          -0.000
  -5423869.096 9  -4040959.33147  22495575.806    22495575.7674   22495583.0774
        -0.000          -0.000
 -21194986.303 9 -15469825.72649  21110659.801    21110659.0254   21110666.2674
        -0.000          -0.000
 99  5  4  0 29  0.0010000  0  6 22  6 23 21 26 17                   0.001124753
  -4117615.550 9  -2304675.25446  24053394.194    24053393.2024   24053403.1674
        -0.000          -0.000
 -14378133.634 9 -10746951.50448  21996345.775    21996345.4574   21996353.5414
        -0.000          -0.000
 -20417182.853 9 -15664115.10149  21036975.763    21036975.1454   21036982.4444
        -0.000          -0.000
 -12405938.917 9  -9234998.11747  23054698.959    23054698.4354   23054708.0624
        -0.000          -0.000
  -5365220.585 9  -3995259.19747  22506736.214    22506736.2014   22506743.2754
        -0.000          -0.000
 -21190627.234 9 -15466429.03749  21111489.280    21111488.4914   21111495.8304
        -0.000          -0.000
 99  5  4  0 29 30.0010000  0  6 22  6 23 21 26 17                   0.001130750
  -4065411.572 9  -2263996.88646  24063328.354    24063327.2854   24063337.4884
        -0.000          -0.000
 -14286030.407 9 -10675182.81148  22013872.563    22013872.2334   22013880.2124
        -0.000          -0.000
 -20410948.748 9 -15659257.32049  21038162.069    21038161.4344   21038168.6944
        -0.000          -0.000
 -12459687.274 9  -9276879.84647  23044470.788    23044470.3854   23044479.9634
        -0.000          -0.000
  -5305980.442 9  -3949098.06447  22518009.265    22518009.2464   22518015.9904
        -0.000          -0.000
 -21186082.945 9 -15462888.02649  21112354.032    21112353.2624   21112360.5794
        -0.000          -0.000
 99  5  4  0 30  0.0010000  0  6 22  6 23 21 26 17                   0.001136772
  -4012847.018 9  -2223037.52746  24073330.911    24073329.9814   24073340.4514
        -0.000          -0.000
 -14193531.366 9 -10603105.67848  22031474.646    22031474.3374   22031482.2284
        -0.000          -0.000
 -20404345.159 9 -15654111.63249  21039418.672    21039417.9944   21039425.2714
        -0.000          -0.000
 -12513214.377 9  -9318589.16747  23034285.101    23034284.5874   23034294.1014
        -0.000          -0.000
  -5246143.498 9  -3902471.88547  22529395.831    22529395.8244   22529402.5254
        -0.000          -0.000
 -21181342.530 9 -15459194.18149  21113256.017    21113255.2184   21113262.5734
        -0.000          -0.000
 99  5  4  0 30 30.0010000  0  6 22  6 23 21 26 17                   0.001142814
  -3959921.754 9  -2181797.10146  24083401.946    24083401.2584   24083411.9984
        -0.000          -0.000
 -14100642.761 9 -10530725.00448  22049150.832    22049150.5514   22049158.3874
        -0.000          -0.000
 -20397362.299 9 -15648670.41849  21040747.355    21040746.7544   21040754.0364
        -0.000          -0.000
 -12566527.506 9  -9360131.76847  23024140.058    23024139.4904   23024148.9864
        -0.000          -0.000
  -5185708.294 9  -3855379.51647  22540896.170    22540896.1924   22540902.9764
        -0.000          -0.000
 -21176386.106 9 -15455332.02149  21114199.075    21114198.3354   21114205.6854
        -0.000          -0.000
 99  5  4  0 31  0.0010000  0  6 22  6 23 21 26 17                   0.001148856
  -3906660.506 9  -2140294.85846  24093537.335    24093536.6714   24093547.4224
        -0.000          -0.000
 -14007405.932 9 -10458072.97848  22066893.332    22066893.0684   22066900.9334
        -0.000          -0.000
 -20390022.615 9 -15642951.14549  21042144.125    21042143.4774   21042150.7294
        -0.000          -0.000
 -12619619.662 9  -9401502.19047  23014037.095    23014036.4344   23014045.7744
        -0.000          -0.000
  -5124707.764 9  -3807846.63247  22552504.157    22552504.1964   22552511.1654
        -0.000          -0.000
 -21171225.001 9 -15451310.37349  21115181.098    21115180.3454   21115187.8234
        -0.000          -0.000
 99  5  4  0 31 30.0010000  0  6 22  6 23 21 26 17                   0.001154879
  -3853079.483 9  -2098543.45746  24103733.475    24103732.8034   24103743.7344
        -0.000          -0.000
 -13913816.900 9 -10385146.50448  22084702.756    22084702.4694   22084710.4504
        -0.000          -0.000
 -20382334.321 9 -15636960.24749  21043607.114    21043606.4444   21043613.7694
        -0.000          -0.000
 -12672467.753 9  -9442682.41947  23003980.530    23003979.7174   23003988.8934
        -0.000          -0.000
  -5063171.658 9  -3759896.40747  22564214.000    22564214.0704   22564221.0804
        -0.000          -0.000
 -21165855.455 9 -15447126.30649  21116202.780    21116202.1174   21116209.6904
        -0.000          -0.000
 99  5  4  0 32  0.0010000  0  6 22  6 23 21 26 17                   0.001160873
  -3799189.475 9  -2056551.26946  24113988.688    24113988.0034   24113998.7184
        -0.000          -0.000
 -13819874.435 9 -10311944.64448  22102579.351    22102579.1034   22102587.1694
        -0.000          -0.000
 -20374307.066 9 -15630705.21649  21045134.634    21045133.9674   21045141.2504
        -0.000          -0.000
 -12725057.231 9  -9483661.11547  22993972.939    22993972.1354   22993981.2884
        -0.000          -0.000
  -5001123.474 9  -3711547.16347  22576021.326    22576021.3864   22576028.5374
        -0.000          -0.000
 -21160284.120 9 -15442784.99549  21117263.070    21117262.2844   21117269.9334
        -0.000          -0.000
 99  5  4  0 32 30.0010000  0  6 22  6 23 21 26 17                   0.001166848
  -3744980.189 9  -2014310.29346  24124304.551    24124303.8424   24124314.3484
        -0.000          -0.000
 -13725575.375 9 -10238464.91748  22120523.964    22120523.6604   22120531.7604
        -0.000          -0.000
 -20365943.049 9 -15624187.77549  21046726.274    21046725.6354   21046732.7944
        -0.000          -0.000
 -12777357.910 9  -9524414.78747  22984020.257    22984019.4454   22984028.6934
        -0.000          -0.000
  -4938561.851 9  -3662797.83147  22587926.469    22587926.5134   22587933.7744
        -0.000          -0.000
 -21154508.128 9 -15438284.21949  21118362.168    21118361.4034   21118369.1104
        -0.000          -0.000
 99  5  4  0 33  0.0010000  0  6 22  6 23 21 26 17                   0.001172806
  -3690458.917 9  -1971826.20446  24134679.766    24134678.9794   24134689.4804
        -0.000          -0.000
 -13630918.045 9 -10164706.01648  22138536.733    22138536.4104   22138544.5604
        -0.000          -0.000
 -20357245.745 9 -15617410.64249  21048381.337    21048380.6794   21048387.7964
        -0.000          -0.000
 -12829378.947 9  -9564950.55447  22974120.648    22974120.0584   22974129.4694
        -0.000          -0.000
  -4875486.582 9  -3613648.28347  22599929.374    22599929.3954   22599936.6154
        -0.000          -0.000
 -21148535.906 9 -15433630.55049  21119498.698    21119497.9164   21119505.6104
        -0.000          -0.000
 99  5  4  0 33 30.0010000  0  6 22  6 23 21 26 17                   0.001178744
  -3635624.647 9  -1929098.23746  24145114.758    24145113.6164   24145124.2074
        -0.000          -0.000
 -13535883.057 9 -10090652.83148  22156621.354    22156621.0504   22156629.2124
        -0.000          -0.000
 -20348205.051 9 -15610365.92349  21050101.644    21050101.0084   21050108.0574
        -0.000          -0.000
 -12881148.894 9  -9605290.66347  22964269.143    22964268.5574   22964277.9974
        -0.000          -0.000
  -4811899.629 9  -3564100.01347  22612029.543    22612029.5584   22612036.6994
        -0.000          -0.000
 -21142369.198 9 -15428825.31749  21120672.258    21120671.4634   21120679.0454
        -0.000          -0.000
 99  5  4  0 34  0.0010000  0  7 22  6 23 21 26 17 29                0.001184669
  -3580481.607 9  -1886129.68446  24155608.289    24155606.9514   24155617.4344
        -0.000          -0.000
 -13440483.267 9 -10016315.38648  22174775.317    22174775.0534   22174783.3634
        -0.000          -0.000
 -20338833.061 9 -15603063.04649  21051885.061    21051884.4044   21051891.3604
        -0.000          -0.000
 -12932694.188 9  -9645455.70147  22954460.470    22954459.8484   22954469.1324
        -0.000          -0.000
  -4747797.058 9  -3514149.97347  22624227.780    22624227.7834   22624234.8614
        -0.000          -0.000
 -21136027.683 9 -15423883.86149  21121879.123    21121878.2884   21121885.8114
        -0.000          -0.000
   -272340.88118   -189827.49752         0.000           0.0005          0.0005
        -0.000          -0.000
 99  5  4  0 34 30.0010000  0  7 22  6 23 21 26 17 29                0.001190600
  -3525013.559 9  -1842907.86846  24166163.574    24166162.2944   24166172.6514
        -0.000          -0.000
 -13344715.832 9  -9941691.46648  22192999.392    22192999.1064   22193007.3984
        -0.000          -0.000
 -20329126.056 9 -15595499.12749  21053732.216    21053731.5354   21053738.5034
        -0.000          -0.000
 -12984017.618 9  -9685447.87447  22944693.745    22944693.2104   22944702.5174
        -0.000          -0.000
  -4683161.219 9  -3463784.37547  22636527.442    22636527.4084   22636534.6564
        -0.000          -0.000
 -21129505.954 9 -15418801.98549  21123120.076    21123119.2494   21123126.8204
        -0.000          -0.000
   -370855.36118   -266591.34355  25347353.549    25347353.0635   25347372.5515
        -0.000          -0.000
 99  5  4  0 35  0.0010000  0  7 22  6 23 21 26 17 29                0.001196535
  -3469216.607 9  -1799429.75646  24176781.485    24176780.1044   24176790.2054
        -0.000          -0.000
 -13248573.427 9  -9866775.37048  22211294.702    22211294.4314   22211302.6064
        -0.000          -0.000
 -20319076.908 9 -15587668.61349  21055644.435    21055643.7814   21055650.7124
        -0.000          -0.000
 -13035116.685 9  -9725265.21847  22934969.753    22934969.2514   22934978.6244
        -0.000          -0.000
  -4617998.090 9  -3413007.89746  22648927.444    22648927.4444   22648934.6734
        -0.000          -0.000
 -21122796.052 9 -15413573.49649  21124396.804    21124396.0254   21124403.6364
        -0.000          -0.000
   -469433.488 8   -343404.76345  25328594.581    25328593.9994   25328611.7174
        -0.000          -0.000
 99  5  4  0 35 30.0010000  0  7 22  6 23 21 26 17 29                0.001202479
  -3413090.680 9  -1755695.29646  24187461.796    24187460.4704   24187470.6174
        -0.000          -0.000
 -13152057.386 9  -9791568.11147  22229661.064    22229660.8164   22229668.8284
        -0.000          -0.000
 -20308698.817 9 -15579581.77249  21057619.273    21057618.6244   21057625.5544
        -0.000          -0.000
 -13085977.836 9  -9764897.15947  22925290.930    22925290.4924   22925299.9784
        -0.000          -0.000
  -4552314.914 9  -3361826.20646  22661426.473    22661426.4614   22661433.7164
        -0.000          -0.000
 -21115897.813 9 -15408198.23949  21125709.495    21125708.7164   21125716.3284
        -0.000          -0.000
   -568076.917 8   -420269.02545  25309823.099    25309821.5954   25309840.4954
        -0.000          -0.000
 99  5  4  0 36  0.0010000  0  8  3 22  6 23 21 26 17 29             0.001208448
   -285691.86819   -210226.82118  24151585.263    24151583.7261   24151593.4451
        -0.000          -0.000
  -3356630.086 9  -1711700.10046  24198205.683    24198204.5624   24198214.8184
        -0.000          -0.000
 -13055162.126 9  -9716065.37347  22248099.602    22248099.3614   22248107.4164
        -0.000          -0.000
 -20297983.363 9 -15571232.05449  21059658.305    21059657.6624   21059664.6584
        -0.000          -0.000
 -13136571.337 9  -9804320.54447  22915662.966    22915662.6274   22915672.2174
        -0.000          -0.000
  -4486081.333 9  -3310215.60646  22674030.058    22674030.1454   22674037.4734
        -0.000          -0.000
 -21108795.628 9 -15402664.06849  21127060.923    21127060.1614   21127067.7314
        -0.000          -0.000
   -666770.048 8   -497172.00145  25291041.620    25291041.0874   25291059.7664
        -0.000          -0.000
 99  5  4  0 36 30.0010000  0  8  3 22  6 23 21 26 17 29             0.001214402
   -372996.182 9   -278256.094 8  24134971.017    24134970.198    24134980.016
        -0.000          -0.000
  -3299894.462 9  -1667490.57946  24209002.115    24209001.0674   24209011.3044
        -0.000          -0.000
 -12957943.899 9  -9640310.95547  22266599.565    22266599.3344   22266607.5934
        -0.000          -0.000
 -20286983.834 9 -15562660.98049  21061751.369    21061750.7434   21061757.8424
        -0.000          -0.000
 -13186944.880 9  -9843572.52247  22906077.011    22906076.6434   22906086.3534
        -0.000          -0.000
  -4419362.362 9  -3258226.80046  22686726.270    22686726.3374   22686733.6624
        -0.000          -0.000
 -21101533.020 9 -15397004.88149  21128442.842    21128442.1144   21128449.8114
        -0.000          -0.000
   -765561.934 8   -574151.86945  25272241.543    25272241.1234   25272260.1224
        -0.000          -0.000
 99  5  4  0 37  0.0010000  0  8  3 22  6 23 21 26 17 29             0.001220336
   -460108.144 9   -346135.20017  24118394.070    24118398.934           0.0001
        -0.000          -0.000
  -3242875.973 9  -1623060.65446  24219852.356    24219851.2664   24219861.6294
        -0.000          -0.000
 -12860396.188 9  -9564299.80347  22285162.345    22285162.0934   22285170.4234
        -0.000          -0.000
 -20275684.839 9 -15553856.54849  21063901.574    21063900.9154   21063907.9714
        -0.000          -0.000
 -13237084.826 9  -9882642.48247  22896535.744    22896535.3784   22896544.9444
        -0.000          -0.000
  -4352158.256 9  -3205859.97147  22699514.768    22699514.8134   22699522.2784
        -0.000          -0.000
 -21094087.856 9 -15391203.46249  21129859.526    21129858.8034   21129866.6384
        -0.000          -0.000
   -864428.681 8   -651190.08645  25253427.100    25253426.9384   25253446.3134
        -0.000          -0.000
 99  5  4  0 37 30.0010000  0  8  3 22  6 23 21 26 17 29             0.001226257
   -547012.439 9   -413852.40016  24102485.544    24102437.959           0.0001
        -0.000          -0.000
  -3185570.666 9  -1578407.22546  24230757.065    24230756.0274   24230766.7234
        -0.000          -0.000
 -12762509.643 9  -9488024.64947  22303789.575    22303789.3484   22303797.7104
        -0.000          -0.000
 -20264060.155 9 -15544798.34249  21066113.603    21066112.9744   21066120.0404
        -0.000          -0.000
 -13286984.979 9  -9921525.60547  22887040.106    22887039.7124   22887049.1874
        -0.000          -0.000
  -4284440.761 9  -3153093.09447  22712401.101    22712401.0824   22712408.5084
        -0.000          -0.000
 -21086447.315 9 -15385249.79449  21131313.480    21131312.7674   21131320.5984
        -0.000          -0.000
   -963351.223 8   -728271.79245  25234602.415    25234602.0314   25234621.6524
        -0.000          -0.000
 99  5  4  0 38  0.0010000  0  8  3 22  6 23 21 26 17 29             0.001232171
   -633703.69019   -481404.74655  24086617.601    24086838.2295          0.0005
        -0.000          -0.000
  -3127958.431 9  -1533514.62146  24241719.872    24241719.1084   24241730.0314
        -0.000          -0.000
 -12664266.015 9  -9411471.25047  22322484.851    22322484.6254   22322492.9934
        -0.000          -0.000
 -20252075.764 9 -15535459.83949  21068394.105    21068393.5054   21068400.6484
        -0.000          -0.000
 -13336629.798 9  -9960209.76447  22877592.986    22877592.5724   22877601.9354
        -0.000          -0.000
  -4216191.741 9  -3099912.05047  22725388.470    22725388.5014   22725396.0734
        -0.000          -0.000
 -21078588.181 9 -15379125.77949  21132808.987    21132808.2514   21132816.1564
        -0.000          -0.000
  -1062300.630 8   -805374.44145  25215772.731    25215772.0754   25215791.8894
        -0.000          -0.000
 99  5  4  0 38 30.0010000  0  8  3 22  6 23 21 26 17 29             0.001238056
   -720214.20519    -18603.87552         0.000           0.0005          0.0005
        -0.000          -0.000
  -3070063.448 9  -1488401.74646  24252736.782    24252736.1804   24252747.1674
        -0.000          -0.000
 -12565698.654 9  -9334665.57647  22341241.760    22341241.4904   22341249.8324
        -0.000          -0.000
 -20239756.396 9 -15525860.31449  21070738.412    21070737.7624   21070745.0004
        -0.000          -0.000
 -13386050.344 9  -9998719.15947  22868188.564    22868188.1134   22868197.3274
        -0.000          -0.000
  -4147456.307 9  -3046351.97747  22738468.526    22738468.5064   22738476.0574
        -0.000          -0.000
 -21070537.483 9 -15372852.50449  21134341.002    21134340.2914   21134348.3004
        -0.000          -0.000
  -1161313.431 8   -882526.46545  25196930.922    25196930.2294   25196949.9304
        -0.000          -0.000
 99  5  4  0 39  0.0010000  0  8  3 22  6 23 21 26 17 29             0.001243928
   -806526.716 9    -85879.99652         0.000           0.0004          0.0005
        -0.000          -0.000
  -3011871.618 9  -1443057.54546  24263810.623    24263809.8344   24263820.8974
        -0.000          -0.000
 -12466794.024 9  -9257597.08347  22360062.648    22360062.3914   22360070.7574
        -0.000          -0.000
 -20227082.440 9 -15515984.48549  21073150.171    21073149.5424   21073156.7314
        -0.000          -0.000
 -13435224.624 9 -10037036.65847  22858830.904    22858830.4014   22858839.6384
        -0.000          -0.000
  -4078207.081 9  -2992391.55347  22751646.361    22751646.2734   22751653.8134
        -0.000          -0.000
 -21062284.815 9 -15366421.84049  21135911.467    21135910.7734   21135918.7934
        -0.000          -0.000
  -1260385.356 8   -959724.59345  25178077.806    25178077.0504   25178096.6244
        -0.000          -0.000
 99  5  4  0 39 30.0010000  0  8  3 22  6 23 21 26 17 29             0.001249795
   -892627.618 9   -152990.76752         0.000           0.0004          0.0005
        -0.000          -0.000
  -2953380.581 9  -1397480.18146  24274940.771    24274940.1394   24274951.4844
        -0.000          -0.000
 -12367551.168 9  -9180265.04347  22378947.805    22378947.6374   22378956.1424
        -0.000          -0.000
 -20214056.126 9 -15505834.09149  21075629.061    21075628.4064   21075635.4614
        -0.000          -0.000
 -13484137.752 9 -10075150.68047  22849522.936    22849522.3554   22849531.7714
        -0.000          -0.000
  -4008430.549 9  -2938020.23547  22764924.553    22764924.4314   22764931.8834
        -0.000          -0.000
 -21053821.646 9 -15359827.15249  21137521.961    21137521.3084   21137529.2644
        -0.000          -0.000
  -1359517.211 8  -1036969.40845  25159213.320    25159212.4414   25159231.5564
        -0.000          -0.000
 99  5  4  0 40  0.0010000  0  8  3 22  6 23 21 26 17 29             0.001255663
   -978522.08019    -12893.08352         0.000           0.0005          0.0005
        -0.000          -0.000
  -2894595.162 9  -1351673.41446  24286127.238    24286126.6944   24286137.8124
        -0.000          -0.000
 -12267990.266 9  -9102685.17847  22397893.691    22397893.4914   22397902.0404
        -0.000          -0.000
 -20200715.066 9 -15495438.44249  21078167.825    21078167.1584   21078174.2404
        -0.000          -0.000
 -13532789.799 9 -10113061.24347  22840264.664    22840264.0354   22840273.6514
        -0.000          -0.000
  -3938144.485 9  -2883251.85247  22778299.596    22778299.4524   22778306.8654
        -0.000          -0.000
 -21045144.087 9 -15353065.40049  21139173.433    21139172.7654   21139180.5394
        -0.000          -0.000
  -1458712.377 8  -1114263.61545  25140336.275    25140335.7594   25140354.7724
        -0.000          -0.000
 99  5  4  0 40 30.0010000  0  8  3 22  6 23 21 26 17 29             0.001261547
  -1064186.637 9    -79644.65555         0.000           0.0004   24003449.6115
        -0.000          -0.000
  -2835508.394 9  -1305631.88446  24297371.404    24297370.7504   24297381.6384
        -0.000          -0.000
 -12168098.294 9  -9024847.34547  22416902.628    22416902.4214   22416911.0164
        -0.000          -0.000
 -20187057.690 9 -15484796.31449  21080766.639    21080766.0594   21080773.1204
        -0.000          -0.000
 -13581163.692 9 -10150755.06047  22831059.181    22831058.6274   22831068.3364
        -0.000          -0.000
  -3867332.400 9  -2828073.60947  22791774.612    22791774.5934   22791781.9424
        -0.000          -0.000
 -21036230.069 9 -15346119.39849  21140869.868    21140869.1114   21140876.7664
        -0.000          -0.000
  -1557946.653 8  -1191588.30545  25121451.949    25121451.4724   25121470.3684
        -0.000          -0.000
 99  5  4  0 41  0.0010000  0  8  3 22  6 23 21 26 17 29             0.001267435
  -1149624.17019   -146219.30546  23987184.195    23987125.8485   23987191.1324
        -0.000          -0.000
  -2776146.588 9  -1259376.00646  24308667.921    24308667.0704   24308678.0284
        -0.000          -0.000
 -12067891.049 9  -8946763.82147  22435971.429    22435971.1504   22435979.8004
        -0.000          -0.000
 -20173101.206 9 -15473921.10549  21083422.568    21083421.9614   21083428.9404
        -0.000          -0.000
 -13629274.056 9 -10188243.55647  22821903.924    22821903.3754   22821913.1654
        -0.000          -0.000
  -3796003.837 9  -2772492.90847  22805348.111    22805348.0764   22805355.3694
        -0.000          -0.000
 -21027087.852 9 -15338995.57949  21142609.530    21142608.7974   21142616.4784
        -0.000          -0.000
  -1657215.505 8  -1268939.96245  25102561.186    25102560.7204   25102579.2294
        -0.000          -0.000
 99  5  4  0 41 30.0010000  0  8  3 22  6 23 21 26 17 29             0.001273320
  -1234826.312 9   -212610.52846  23970970.904    23970969.9134   23970977.0944
        -0.000          -0.000
  -2716514.612 9  -1212909.61646  24320015.412    24320014.7344   24320025.8804
        -0.000          -0.000
 -11967362.774 9  -8868430.17047  22455101.296    22455101.0174   22455109.6134
        -0.000          -0.000
 -20158854.832 9 -15462820.00649  21086133.560    21086132.9144   21086139.9384
        -0.000          -0.000
 -13677138.372 9 -10225540.32347  22812795.547    22812795.0114   22812804.8794
        -0.000          -0.000
  -3724175.123 9  -2716522.53047  22819016.645    22819016.6534   22819023.7464
        -0.000          -0.000
 -21017724.083 9 -15331699.12549  21144391.380    21144390.6134   21144398.4164
        -0.000          -0.000
  -1756494.808 7  -1346299.76945  25083668.682    25083668.1884   25083686.3464
        -0.000          -0.000
 99  5  4  0 42  0.0010000  0  8  3 22  6 23 21 26 17 29             0.001279206
  -1319789.178 9   -278815.31746  23954802.780    23954801.3864   23954809.6354
        -0.000          -0.000
  -2656615.396 9  -1166234.97546  24331414.179    24331413.3234   24331424.3074
        -0.000          -0.000
 -11866491.868 9  -8789829.54847  22474296.416    22474296.0694   22474304.6634
        -0.000          -0.000
 -20144312.641 9 -15451488.40949  21088900.704    21088900.1084   21088907.2634
        -0.000          -0.000
 -13724761.453 9 -10262649.13047  22803733.209    22803732.7044   22803742.5714
        -0.000          -0.000
  -3651854.376 9  -2660168.70946  22832778.857    22832778.8564   22832785.9974
        -0.000          -0.000
 -21008156.104 9 -15324243.55049  21146212.080    21146211.3034   21146219.1384
        -0.000          -0.000
  -1855767.174 8  -1423654.22945  25064777.072    25064776.5874   25064794.5134
        -0.000          -0.000
 99  5  4  0 42 30.0010000  0  8  3 22  6 23 21 26 17 29             0.001285079
  -1404521.336 9   -344840.29846  23938678.593    23938677.4394   23938685.8394
        -0.000          -0.000
  -2596452.268 9  -1119354.71146  24342862.975    24342862.0674   24342873.0114
        -0.000          -0.000
 -11765278.067 9  -8710961.69547  22493556.670    22493556.4554   22493565.0734
        -0.000          -0.000
 -20129456.312 9 -15439912.02749  21091727.859    21091727.2714   21091734.3684
        -0.000          -0.000
 -13772154.214 9 -10299578.46047  22794714.675    22794714.1784   22794723.8944
        -0.000          -0.000
  -3579049.583 9  -2603437.71746  22846633.198    22846633.1854   22846640.3214
        -0.000          -0.000
 -20998412.289 9 -15316650.97249  21148066.223    21148065.4394   21148073.3344
        -0.000          -0.000
  -1955045.175 8  -1501013.09545  25045884.411    25045883.6064   25045901.9604
        -0.000          -0.000
 99  5  4  0 43  0.0010000  0  8  3 22  6 23 21 26 17 29             0.001290935
  -1489032.077 9   -410692.78446  23922596.247    23922595.2824   23922604.0464
        -0.000          -0.000
  -2536023.433 9  -1072267.40746  24354362.525    24354361.3664   24354372.1904
        -0.000          -0.000
 -11663743.516 9  -8631843.92047  22512878.149    22512877.9684   22512886.6614
        -0.000          -0.000
 -20114283.096 9 -15428088.72049  21094615.257    21094614.5924   21094621.7484
        -0.000          -0.000
 -13819325.953 9 -10336335.57647  22785738.277    22785737.7224   22785747.0234
        -0.000          -0.000
  -3505781.519 9  -2546345.76246  22860575.806    22860575.7434   22860582.7434
        -0.000          -0.000
 -20988509.319 9 -15308934.37549  21149950.661    21149949.9344   21149957.8074
        -0.000          -0.000
  -2054345.709 8  -1578389.50345  25026987.928    25026987.2284   25027004.8994
        -0.000          -0.000
 99  5  4  0 43 30.0010000  0  8  3 22  6 23 21 26 17 29             0.001296779
  -1573313.681 9   -476366.68446  23906557.534    23906556.9264   23906565.8654
        -0.000          -0.000
  -2475304.896 9  -1024954.35246  24365917.117    24365915.8574   24365926.5544
        -0.000          -0.000
 -11561882.958 9  -8552472.13547  22532261.793    22532261.5804   22532270.1634
        -0.000          -0.000
 -20098786.089 9 -15416013.11249  21097564.230    21097563.5714   21097570.7544
        -0.000          -0.000
 -13866260.239 9 -10372907.63447  22776806.929    22776806.3354   22776815.4654
        -0.000          -0.000
  -3432051.536 9  -2488893.83746  22874606.038    22874605.9714   22874613.1664
        -0.000          -0.000
 -20978436.427 9 -15301085.35249  21151867.533    21151866.7774   21151874.4794
        -0.000          -0.000
  -2153654.467 8  -1655772.36545  25008089.698    25008089.0314   25008105.8604
        -0.000          -0.000
 99  5  4  0 44  0.0010000  0  8  3 22  6 23 21 26 17 29             0.001302613
  -1657360.634 9   -541857.77446  23890563.514    23890563.2284   23890572.2984
        -0.000          -0.000
  -2414293.237 9   -977412.88046  24377527.284    24377526.0304   24377536.5564
        -0.000          -0.000
 -11459705.073 9  -8472853.06647  22551705.626    22551705.4394   22551714.0744
        -0.000          -0.000
 -20082948.112 9 -15403671.80849  21100578.067    21100577.4244   21100584.5594
        -0.000          -0.000
 -13912936.684 9 -10409278.80047  22767924.669    22767924.0744   22767933.1564
        -0.000          -0.000
  -3357847.717 9  -2431072.68946  22888726.452    22888726.4944   22888733.7184
        -0.000          -0.000
 -20968164.832 9 -15293081.51249  21153822.144    21153821.3844   21153829.0984
        -0.000          -0.000
  -2252978.576 8  -1733167.17745  24989188.634    24989187.9764   24989204.4004
        -0.000          -0.000
 99  5  4  0 44 30.0010000  0  8  3 22  6 23 21 26 17 29             0.001308429
  -1741186.181 9   -607176.33346  23874611.843    23874611.7004   23874620.6684
        -0.000          -0.000
  -2352993.476 9   -929646.90446  24389192.164    24389191.1544   24389201.5634
        -0.000          -0.000
 -11357243.375 9  -8393012.84047  22571203.442    22571203.2514   22571211.9794
        -0.000          -0.000
 -20066770.368 9 -15391065.75449  21103656.664    21103655.9934   21103663.0754
        -0.000          -0.000
 -13959369.612 9 -10445460.21747  22759088.750    22759088.1014   22759097.2354
        -0.000          -0.000
  -3283173.017 9  -2372884.62446  22902936.607    22902936.6164   22902943.7914
        -0.000          -0.000
 -20957672.004 9 -15284905.28949  21155818.867    21155818.1424   21155825.7704
        -0.000          -0.000
  -2352333.927 8  -1810586.30845  24970281.405    24970281.0854   24970296.9364
        -0.000          -0.000
 99  5  4  0 45  0.0010000  0  8  3 22  6 23 21 26 17 29             0.001314238
  -1824776.209 9   -672311.35646  23858705.365    23858705.1124   23858713.7754
        -0.000          -0.000
  -2291403.508 9   -881654.80446  24400912.422    24400911.5204   24400921.6964
        -0.000          -0.000
 -11254489.781 9  -8312945.15747  22590756.809    22590756.6444   22590765.4764
        -0.000          -0.000
 -20050263.477 9 -15378203.21749  21106797.798    21106797.0994   21106804.2314
        -0.000          -0.000
 -14005556.543 9 -10481449.95147  22750299.565    22750298.9064   22750308.0064
        -0.000          -0.000
  -3208020.746 9  -2314324.40547  22917237.862    22917237.8664   22917244.8794
        -0.000          -0.000
 -20946929.627 9 -15276534.60449  21157863.142    21157862.3774   21157869.8254
        -0.000          -0.000
  -2451703.726 8  -1888016.67545  24951371.503    24951370.9174   24951386.7314
        -0.000          -0.000
 99  5  4  0 45 30.0010000  0  8  3 22  6 23 21 26 17 29             0.001320059
  -1908108.978 9   -737245.92246  23842847.991    23842847.5694   23842855.8934
        -0.000          -0.000
  -2229517.096 9   -833431.69146  24412689.124    24412688.2974   24412698.4054
        -0.000          -0.000
 -11151418.802 9  -8232630.19047  22610370.759    22610370.5364   22610379.3514
        -0.000          -0.000
 -20033420.954 9 -15365079.14949  21110002.678    21110002.0404   21110009.2334
        -0.000          -0.000
 -14051476.565 9 -10517231.71747  22741561.038    22741560.5054   22741569.6424
        -0.000          -0.000
  -3132360.108 9  -2255368.08047  22931635.777    22931635.7394   22931642.6024
        -0.000          -0.000
 -20935916.076 9 -15267952.62049  21159958.938    21159958.1864   21159965.6224
        -0.000          -0.000
  -2551075.677 8  -1965448.75845  24932461.012    24932460.4984   24932476.5434
        -0.000          -0.000
 99  5  4  0 46  0.0010000  0  8  3 22  6 23 21 26 17 29             0.001325894
  -1991185.782 9   -801981.03946  23827038.895    23827038.5944   23827046.7224
        -0.000          -0.000
  -2167339.993 9   -784982.05146  24424520.925    24424520.2674   24424530.6214
        -0.000          -0.000
 -11048023.427 9  -8152062.44147  22630046.249    22630046.0354   22630054.7954
        -0.000          -0.000
 -20016234.729 9 -15351687.26449  21113273.094    21113272.4164   21113279.6194
        -0.000          -0.000
 -14097126.408 9 -10552802.94447  22732873.906    22732873.5304   22732882.6584
        -0.000          -0.000
  -3056179.034 9  -2196006.23247  22946132.554    22946132.4634   22946139.4684
        -0.000          -0.000
 -20924632.882 9 -15259160.51749  21162106.042    21162105.2794   21162112.6654
        -0.000          -0.000
  -2650464.222 8  -2042893.77945  24913547.275    24913546.7834   24913562.7814
        -0.000          -0.000
 99  5  4  0 46 30.0010000  0  8  3 22  6 23 21 26 17 29             0.001331836
  -2074017.141 9   -866524.89246  23811276.485    23811276.3074   23811284.4714
        -0.000          -0.000
  -2104880.365 9   -736312.32846  24436406.682    24436405.8984   24436416.5964
        -0.000          -0.000
 -10944309.157 9  -8071246.20747  22649782.230    22649782.0834   22649790.9154
        -0.000          -0.000
 -19998738.376 9 -15338053.71449  21116602.518    21116601.8214   21116609.0454
        -0.000          -0.000
 -14142515.354 9 -10588170.87947  22724236.720    22724236.3584   22724245.2964
        -0.000          -0.000
  -2979495.287 9  -2136252.64947  22960724.691    22960724.6624   22960731.9994
        -0.000          -0.000
 -20913114.049 9 -15250184.79749  21164298.050    21164297.2724   21164304.6494
        -0.000          -0.000
  -2749879.694 8  -2120359.83345  24894628.203    24894628.1084   24894643.9704
        -0.000          -0.000
 99  5  4  0 47  0.0010000  0  8  3 22  6 23 21 26 17 29             0.001337687
  -2156615.627 9   -930887.27546  23795558.368    23795558.2384   23795566.3524
        -0.000          -0.000
  -2042177.617 9   -687453.12746  24448338.803    24448337.9274   24448348.8964
        -0.000          -0.000
 -10840301.760 9  -7990201.56347  22669574.098    22669573.9614   22669582.9204
        -0.000          -0.000
 -19980971.030 9 -15324209.00849  21119983.485    21119982.7804   21119990.0444
        -0.000          -0.000
 -14187647.918 9 -10623339.04747  22715648.358    22715647.9644   22715656.6964
        -0.000          -0.000
  -2902332.842 9  -2076126.08646  22975407.838    22975407.9074   22975415.5114
        -0.000          -0.000
 -20901400.907 9 -15241057.67649  21166527.042    21166526.2194   21166533.6774
        -0.000          -0.000
  -2849347.138 8  -2197866.37445  24875699.766    24875699.8224   24875715.6944
        -0.000          -0.000
 99  5  4  0 47 30.0010000  0  8  3 22  6 23 21 26 17 29             0.001343542
  -2238949.620 9   -995043.57646  23779890.540    23779890.5144   23779898.6704
        -0.000          -0.000
  -1979223.548 9   -638398.10546  24460318.467    24460317.6254   24460328.7274
        -0.000          -0.000
 -10735975.443 9  -7908908.40447  22689426.814    22689426.6174   22689435.6524
        -0.000          -0.000
 -19962894.509 9 -15310123.38249  21123423.316    21123422.5894   21123429.8654
        -0.000          -0.000
 -14232492.251 9 -10658282.59647  22707114.708    22707114.3324   22707122.9994
        -0.000          -0.000
  -2824664.254 9  -2015605.09646  22990187.629    22990187.6844   22990195.4184
        -0.000          -0.000
 -20889478.209 9 -15231767.26549  21168795.807    21168795.0084   21168802.4644
        -0.000          -0.000
  -2948829.126 8  -2275384.24645  24856768.863    24856768.6984   24856784.2174
        -0.000          -0.000
 99  5  4  0 48  0.0010000  0  8  3 22  6 23 21 26 17 29             0.001349408
  -2321008.565 9  -1058985.53846  23764275.169    23764275.2054   23764283.2984
        -0.000          -0.000
  -1916022.221 9   -589150.41246  24472345.146    24472344.3884   24472355.4494
        -0.000          -0.000
 -10631314.208 9  -7827354.26147  22709343.032    22709342.8594   22709352.1244
        -0.000          -0.000
 -19944504.657 9 -15295793.60949  21126922.773    21126922.0564   21126929.3874
        -0.000          -0.000
 -14277059.801 9 -10693010.46747  22698633.756    22698633.2944   22698642.1114
        -0.000          -0.000
  -2746490.718 9  -1954690.66446  23005063.706    23005063.7264   23005071.3364
        -0.000          -0.000
 -20877329.737 9 -15222300.92149  21171107.642    21171106.8584   21171114.2884
        -0.000          -0.000
  -3048286.611 8  -2352883.00745  24837842.356    24837842.2214   24837857.1394
        -0.000          -0.000
 99  5  4  0 48 30.0010000  0  8  3 22  6 23 21 26 17 29             0.001355283
  -2402783.316 9  -1122706.06246  23748713.695    23748713.8284   23748722.0384
        -0.000          -0.000
  -1852589.192 9   -539722.16646  24484415.941    24484415.0624   24484426.3924
        -0.000          -0.000
 -10526331.536 9  -7745549.63247  22729320.587    22729320.4494   22729329.8074
        -0.000          -0.000
 -19925819.758 9 -15281233.93149  21130478.335    21130477.6454   21130485.0034
        -0.000          -0.000
 -14321373.726 9 -10727540.71447  22690201.080    22690200.5614   22690209.4784
        -0.000          -0.000
  -2667825.678 9  -1893393.24246  23020033.473    23020033.4624   23020040.8124
        -0.000          -0.000
 -20864950.823 9 -15212655.01049  21173463.311    21173462.5074   21173469.9894
        -0.000          -0.000
  -3147711.083 8  -2430356.07045  24818921.988    24818921.9594   24818936.8794
        -0.000          -0.000
 99  5  4  0 49  0.0010000  0  8  3 22  6 23 21 26 17 29             0.001361137
  -2484301.435 9  -1186226.59746  23733201.385    23733201.3974   23733209.4434
        -0.000          -0.000
  -1788967.633 9   -490147.03146  24496522.785    24496521.9304   24496533.2024
        -0.000          -0.000
 -10421060.890 9  -7663520.61647  22749353.283    22749353.0404   22749362.2114
        -0.000          -0.000
 -19906859.891 9 -15266459.98749  21134086.196    21134085.5674   21134092.8874
        -0.000          -0.000
 -14365484.259 9 -10761912.46647  22681807.221    22681806.5524   22681815.4774
        -0.000          -0.000
  -2588715.976 9  -1831749.33946  23035087.798    23035087.7704   23035094.8044
        -0.000          -0.000
 -20852369.993 9 -15202851.76149  21175857.362    21175856.5994   21175864.0274
        -0.000          -0.000
  -3247124.981 9  -2507820.88845  24800003.921    24800003.7264   24800018.6084
        -0.000          -0.000
 99  5  4  0 49 30.0010000  0  8  3 22  6 23 21 26 17 29             0.001366976
  -2565539.304 9  -1249528.74846  23717742.202    23717742.1994   23717750.2464
        -0.000          -0.000
  -1725131.315 9   -440404.54446  24508670.520    24508669.7514   24508680.9694
        -0.000          -0.000
 -10315464.736 9  -7581237.96447  22769447.819    22769447.5594   22769456.5094
        -0.000          -0.000
 -19887604.077 9 -15251455.44349  21137750.416    21137749.8304   21137757.1274
        -0.000          -0.000
 -14409390.658 9 -10796125.17347  22673452.064    22673451.3474   22673460.3124
        -0.000          -0.000
  -2509163.260 9  -1769760.21546  23050226.477    23050226.3904   23050233.2104
        -0.000          -0.000
 -20839563.383 9 -15192872.57149  21178294.463    21178293.6624   21178301.0004
        -0.000          -0.000
  -3346501.328 9  -2585256.50145  24781093.241    24781092.7484   24781107.5964
        -0.000          -0.000
 99  5  4  0 50  0.0010000  0  8  3 22  6 23 21 26 17 29             0.001372820
  -2646467.068 9  -1312589.25846  23702342.166    23702342.0804   23702350.1264
        -0.000          -0.000
  -1661031.594 9   -390456.74446  24520868.273    24520867.5774   24520878.7904
        -0.000          -0.000
 -10209526.872 9  -7498689.05947  22789607.157    22789606.9834   22789615.7064
        -0.000          -0.000
 -19868036.086 9 -15236207.63849  21141474.172    21141473.5424   21141480.7244
        -0.000          -0.000
 -14453050.377 9 -10830145.65047  22665143.895    22665143.1494   22665151.9104
        -0.000          -0.000
  -2429148.331 9  -1707410.91246  23065452.950    23065452.8304   23065459.7014
        -0.000          -0.000
 -20826495.776 9 -15182690.01449  21180781.113    21180780.3514   21180787.6224
        -0.000          -0.000
  -3445824.715 9  -2662650.86145  24762192.145    24762191.6924   24762206.5204
        -0.000          -0.000
 99  5  4  0 50 30.0010000  0  8  3 22  6 23 21 26 17 29             0.001378669
  -2727077.635 9  -1375402.61346  23687002.486    23687002.4494   23687010.3094
        -0.000          -0.000
  -1596657.746 9   -340295.43246  24533118.483    24533117.7254   24533128.8544
        -0.000          -0.000
 -10103274.939 9  -7415895.41447  22809826.267    22809826.1154   22809834.7204
        -0.000          -0.000
 -19848152.440 9 -15220713.87149  21145257.964    21145257.2834   21145264.4264
        -0.000          -0.000
 -14496435.352 9 -10863952.03047  22656887.846    22656887.1244   22656895.7964
        -0.000          -0.000
  -2348673.109 9  -1644702.93446  23080766.603    23080766.4994   23080773.6514
        -0.000          -0.000
 -20813180.707 9 -15172314.61549  21183314.962    21183314.1674   21183321.3954
        -0.000          -0.000
  -3545114.200 8  -2740018.80345  24743297.268    24743297.0534   24743311.2984
        -0.000          -0.000
 99  5  4  0 51  0.0010000  0  8  3 22  6 23 21 26 17 29             0.001384519
  -2807384.641 9  -1437979.40746  23671720.772    23671720.6194   23671728.3274
        -0.000          -0.000
  -1532018.635 9   -289927.37546  24545419.211    24545418.3704   24545429.5844
        -0.000          -0.000
  -9996717.371 9  -7332863.61247  22830103.512    22830103.3584   22830112.0104
        -0.000          -0.000
 -19827954.671 9 -15204975.33449  21149101.426    21149100.7624   21149107.9064
        -0.000          -0.000
 -14539536.298 9 -10897537.09947  22648685.843    22648685.1824   22648693.7094
        -0.000          -0.000
  -2267742.067 9  -1581639.79646  23096166.968    23096166.9674   23096174.1754
        -0.000          -0.000
 -20799633.920 9 -15161758.67249  21185892.854    21185892.0124   21185899.2824
        -0.000          -0.000
  -3644370.277 8  -2817360.67745  24724409.009    24724408.7394   24724422.5644
        -0.000          -0.000
 99  5  4  0 51 30.0010000  0  8  3 22  6 23 21 26 17 29             0.001390389
  -2887379.179 9  -1500312.73146  23656498.481    23656498.2074   23656505.8374
        -0.000          -0.000
  -1467105.804 9   -239346.03946  24557771.609    24557770.8704   24557782.4084
        -0.000          -0.000
  -9889859.988 9  -7249598.21347  22850437.775    22850437.6714   22850446.4454
        -0.000          -0.000
 -19807442.582 9 -15188991.86749  21153004.786    21153004.1304   21153011.1644
        -0.000          -0.000
 -14582330.884 9 -10930883.44347  22640542.246    22640541.5994   22640549.9784
        -0.000          -0.000
  -2186332.061 9  -1518203.47846  23111658.863    23111658.8024   23111665.9134
        -0.000          -0.000
 -20785830.389 9 -15151002.66749  21188519.486    21188518.6744   21188526.0354
        -0.000          -0.000
  -3743580.030 9  -2894666.51045  24705529.423    24705529.3494   24705542.9984
        -0.000          -0.000
 99  5  4  0 52  0.0010000  0  8  3 22  6 23 21 26 17 29             0.001396240
  -2967130.010 9  -1562456.16746  23641322.356    23641322.0934   23641329.6004
        -0.000          -0.000
  -1401991.186 9   -188607.46746  24570162.493    24570161.8614   24570173.3534
        -0.000          -0.000
  -9782785.591 9  -7166163.67347  22870813.372    22870813.2954   22870822.2454
        -0.000          -0.000
 -19786678.386 9 -15172811.96649  21156955.940    21156955.2954   21156962.3894
        -0.000          -0.000
 -14624878.086 9 -10964037.01847  22632445.793    22632445.0554   22632453.3864
        -0.000          -0.000
  -2104496.373 9  -1454435.41546  23127231.758    23127231.6914   23127238.6734
        -0.000          -0.000
 -20771832.529 9 -15140095.22949  21191183.055    21191182.2804   21191189.6904
        -0.000          -0.000
  -3842808.580 9  -2971987.01945  24686646.526    24686646.4714   24686659.6394
        -0.000          -0.000
 99  5  4  0 52 30.0010000  0  8  3 22  6 23 21 26 17 29             0.001402079
  -3046624.141 9  -1624399.56746  23626195.128    23626194.7864   23626202.3824
        -0.000          -0.000
  -1336665.527 9   -137704.45146  24582593.827    24582593.0454   24582604.4034
        -0.000          -0.000
  -9675462.700 9  -7082535.50447  22891236.472    22891236.3074   22891245.3144
        -0.000          -0.000
 -19765630.383 9 -15156410.90949  21160961.205    21160960.6124   21160967.6514
        -0.000          -0.000
 -14667185.770 9 -10997003.94647  22624394.711    22624394.0184   22624402.4844
        -0.000          -0.000
  -2022222.250 9  -1390325.72646  23142887.974    23142887.9624   23142895.0884
        -0.000          -0.000
 -20757623.898 9 -15129023.55848  21193886.774    21193886.0084   21193893.4574
        -0.000          -0.000
  -3942031.663 8  -3049303.27345  24667764.666    24667764.5134   24667777.2964
        -0.000          -0.000
 99  5  4  0 53  0.0010000  0  8  3 22  6 23 21 26 17 29             0.001407900
  -3125862.087 9  -1686143.35246  23611116.522    23611116.3154   23611123.9544
        -0.000          -0.000
  -1271122.893 9    -86632.35846  24595066.129    24595065.3014   24595076.7224
        -0.000          -0.000
  -9567875.043 9  -6998701.05547  22911710.094    22911709.8234   22911718.6334
        -0.000          -0.000
 -19744287.648 9 -15139780.20049  21165022.697    21165022.0404   21165028.9644
        -0.000          -0.000
 -14709266.874 9 -11029794.32947  22616386.719    22616386.1324   22616394.7854
        -0.000          -0.000
  -1939520.670 9  -1325882.94946  23158625.569    23158625.4884   23158632.7214
        -0.000          -0.000
 -20743191.112 9 -15117777.22049  21196633.249    21196632.4974   21196639.8414
        -0.000          -0.000
  -4041240.238 9  -3126608.24145  24648885.412    24648885.2334   24648898.1954
        -0.000          -0.000
 99  5  4  0 53 30.0010000  0  8  3 22  6 23 21 26 17 29             0.001413704
  -3204837.916 9  -1747682.88946  23596087.810    23596087.6394   23596095.3794
        -0.000          -0.000
  -1205350.146 9    -35380.96146  24607581.985    24607581.3364   24607592.8704
        -0.000          -0.000
  -9460016.134 9  -6914655.23947  22932235.097    22932234.8234   22932243.4604
        -0.000          -0.000
 -19722644.053 9 -15122915.05449  21169141.356    21169140.6994   21169147.5414
        -0.000          -0.000
 -14751123.783 9 -11062410.01547  22608421.588    22608421.0264   22608429.7424
        -0.000          -0.000
  -1856395.789 9  -1261110.36246  23174443.530    23174443.4974   23174450.6864
        -0.000          -0.000
 -20728526.785 9 -15106350.46949  21199423.799    21199422.9754   21199430.3354
        -0.000          -0.000
  -4140436.379 9  -3203903.48545  24630008.699    24630008.5714   24630021.3514
        -0.000          -0.000
 99  5  4  0 54  0.0010000  0  8  3 22  6 23 21 26 17 29             0.001419498
  -3283544.539 9  -1809012.67146  23581110.558    23581110.2174   23581117.9954
        -0.000          -0.000
  -1139345.317 9     16051.29946  24620142.537    24620141.8394   24620153.1684
        -0.000          -0.000
  -9351886.341 9  -6830398.36147  22952811.603    22952811.2994   22952819.8274
        -0.000          -0.000
 -19700697.990 9 -15105814.21449  21173317.681    21173316.9684   21173323.6934
        -0.000          -0.000
 -14792771.055 9 -11094862.34647  22600496.324    22600495.8124   22600504.4494
        -0.000          -0.000
  -1772846.724 9  -1196007.17846  23190342.237    23190342.3104   23190349.4154
        -0.000          -0.000
 -20713649.562 9 -15094757.82649  21202254.764    21202254.0154   21202261.3534
        -0.000          -0.000
  -4239624.236 8  -3281192.29945  24611133.648    24611133.5584   24611146.2604
        -0.000          -0.000
 99  5  4  0 54 30.0010000  0  8  3 22  6 23 21 26 17 29             0.001425286
  -3361965.632 9  -1870119.96146  23566187.559    23566187.3384   23566195.0254
        -0.000          -0.000
  -1073109.067 9     67663.86746  24632747.183    24632746.3154   24632757.4484
        -0.000          -0.000
  -9243494.887 9  -6745937.58147  22973437.815    22973437.5004   22973446.1524
        -0.000          -0.000
 -19678454.703 9 -15088481.77649  21177550.408    21177549.7174   21177556.4094
        -0.000          -0.000
 -14834204.542 9 -11127148.09347  22592611.792    22592611.2314   22592619.8104
        -0.000          -0.000
  -1688875.147 9  -1130574.79646  23206321.463    23206321.4384   23206328.8114
        -0.000          -0.000
 -20698563.085 9 -15083002.13648  21205125.576    21205124.8284   21205132.1314
        -0.000          -0.000
  -4338792.972 8  -3358466.22945  24592262.063    24592262.0224   24592274.8184
        -0.000          -0.000
 99  5  4  0 55  0.0010000  0  8  3 22  6 23 21 26 17 29             0.001431081
  -3440073.711 9  -1930983.33546  23551324.235    23551323.9984   23551331.6874
        -0.000          -0.000
  -1006644.495 9    119454.34846  24645395.030    24645394.0494   24645405.1404
        -0.000          -0.000
  -9134839.459 9  -6661271.10547  22994114.225    22994113.8964   22994122.7304
        -0.000          -0.000
 -19655921.985 9 -15070923.80749  21181838.143    21181837.4994   21181844.1764
        -0.000          -0.000
 -14875396.491 9 -11159245.63247  22584773.138    22584772.5684   22584781.1434
        -0.000          -0.000
  -1604456.887 9  -1064794.33846  23222385.762    23222385.7264   23222393.2184
        -0.000          -0.000
 -20683252.604 9 -15071071.88648  21208039.088    21208038.3214   21208045.5074
        -0.000          -0.000
  -4437922.265 8  -3435709.43145  24573398.033    24573398.0324   24573411.0034
        -0.000          -0.000
 99  5  4  0 55 30.0010000  0  8  3 22  6 23 21 26 17 29             0.001436895
  -3517860.802 9  -1991596.59947  23536521.932    23536521.5854   23536529.5664
        -0.000          -0.000
   -939969.320 9    171408.93845  24658082.823    24658081.7864   24658092.9854
        -0.000          -0.000
  -9025920.817 9  -6576399.50247  23014840.508    23014840.2684   23014849.3074
        -0.000          -0.000
 -19633116.898 9 -15053153.58949  21186177.825    21186177.2054   21186183.8824
        -0.000          -0.000
 -14916343.398 9 -11191152.22747  22576980.999    22576980.4324   22576989.1344
        -0.000          -0.000
  -1519570.639 9   -998649.22546  23238539.304    23238539.2734   23238546.7334
        -0.000          -0.000
 -20667722.323 9 -15058970.36748  21210994.362    21210993.5754   21211000.8294
        -0.000          -0.000
  -4537015.946 8  -3512924.90545  24554540.622    24554540.6074   24554553.9754
        -0.000          -0.000
 99  5  4  0 56  0.0010000  0  8  3 22  6 23 21 26 17 29             0.001442709
  -3595341.438 9  -2051971.04947  23521777.845    23521777.4524   23521785.6774
        -0.000          -0.000
   -873116.191 9    223502.19145  24670804.600    24670803.5284   24670814.7804
        -0.000          -0.000
  -8916775.627 9  -6491351.39047  23035610.155    23035609.9194   23035619.0854
        -0.000          -0.000
 -19610067.495 9 -15035193.00749  21190563.896    21190563.2494   21190570.0514
        -0.000          -0.000
 -14957051.467 9 -11222872.71547  22569234.392    22569233.9044   22569242.6854
        -0.000          -0.000
  -1434243.954 9   -932160.89746  23254776.525    23254776.4734   23254783.8104
        -0.000          -0.000
 -20651994.462 9 -15046714.91049  21213987.136    21213986.4134   21213993.8084
        -0.000          -0.000
  -4636089.482 8  -3590124.65845  24535687.060    24535687.0194   24535700.6024
        -0.000          -0.000
 99  5  4  0 56 30.0010000  0  8  3 22  6 23 21 26 17 29             0.001448512
  -3672510.662 9  -2112102.86347  23507092.871    23507092.5794   23507101.0324
        -0.000          -0.000
   -806086.726 9    275732.84146  24683560.146    24683558.9174   24683570.1784
        -0.000          -0.000
  -8807379.113 9  -6406107.44247  23056427.693    23056427.4574   23056436.7294
        -0.000          -0.000
 -19586760.218 9 -15017031.48149  21194999.152    21194998.5084   21195005.2654
        -0.000          -0.000
 -14997489.496 9 -11254382.77348  22561539.365    22561538.8024   22561547.5444
        -0.000          -0.000
  -1348484.698 9   -865335.53346  23271096.022    23271096.0254   23271103.2564
        -0.000          -0.000
 -20636039.385 9 -15034282.38948  21217023.370    21217022.6214   21217029.8964
        -0.000          -0.000
  -4735133.697 8  -3667301.58845  24516839.392    24516838.9774   24516853.0594
        -0.000          -0.000
 99  5  4  0 57  0.0010000  0  8  3 22  6 23 21 26 17 29             0.001454305
  -3749377.624 9  -2171999.14147  23492465.508    23492465.2854   23492473.8374
        -0.000          -0.000
   -738874.861 9    328105.63846  24696350.352    24696348.9934   24696360.3474
        -0.000          -0.000
  -8697707.773 9  -6320649.34047  23077297.563    23077297.2894   23077306.5114
        -0.000          -0.000
 -19563182.983 9 -14998659.59049  21199485.854    21199485.1724   21199491.8634
        -0.000          -0.000
 -15037652.756 9 -11285678.74948  22553896.480    22553895.9334   22553904.6924
        -0.000          -0.000
  -1262289.380 9   -798170.34546  23287498.446    23287498.4304   23287505.6174
        -0.000          -0.000
 -20619834.742 9 -15021655.39748  21220107.083    21220106.3364   21220113.5064
        -0.000          -0.000
  -4834143.909 8  -3744452.01445  24497998.263    24497997.7704   24498011.9804
        -0.000          -0.000
 99  5  4  0 57 30.0010000  0  8  3 22  6 23 21 26 17 29             0.001460077
  -3825944.420 9  -2231661.53947  23477895.283    23477895.1014   23477903.5424
        -0.000          -0.000
   -671480.921 8    380620.29146  24709174.802    24709173.6354   24709185.0174
        -0.000          -0.000
  -8587769.728 9  -6234983.41547  23098218.218    23098217.9164   23098227.1254
        -0.000          -0.000
 -19539317.744 9 -14980063.28749  21204027.248    21204026.5784   21204033.2544
        -0.000          -0.000
 -15077551.001 9 -11316768.20948  22546304.100    22546303.5494   22546312.1584
        -0.000          -0.000
  -1175670.269 9   -730674.95946  23303981.395    23303981.3404   23303988.7854
        -0.000          -0.000
 -20603370.282 9 -15008825.95649  21223240.370    21223239.5674   21223246.7144
        -0.000          -0.000
  -4933114.145 8  -3821571.32045  24479164.542    24479164.1284   24479178.5114
        -0.000          -0.000
 99  5  4  0 58  0.0010000  0  8  3 22  6 23 21 26 17 29             0.001465829
  -3902209.852 9  -2291089.10247  23463382.542    23463382.2794   23463390.6324
        -0.000          -0.000
   -603895.994 9    433283.80146  24722035.537    24722034.5724   24722045.9874
        -0.000          -0.000
  -8477560.264 9  -6149106.00447  23119190.354    23119190.0484   23119199.3354
        -0.000          -0.000
 -19515152.003 9 -14961232.82849  21208625.838    21208625.2044   21208631.8264
        -0.000          -0.000
 -15117190.747 9 -11347656.25148  22538760.935    22538760.2714   22538768.7064
        -0.000          -0.000
  -1088644.295 9   -662862.49846  23320541.686    23320541.6654   23320549.2714
        -0.000          -0.000
 -20586633.761 9 -14995784.51649  21226425.293    21226424.4924   21226431.6274
        -0.000          -0.000
  -5032015.794 9  -3898637.14045  24460343.998    24460343.4574   24460357.8544
        -0.000          -0.000
 99  5  4  0 58 30.0010000  0  8  3 22  6 23 21 26 17 29             0.001471566
  -3978179.422 9  -2350286.14347  23448925.936    23448925.7364   23448934.0054
        -0.000          -0.000
   -536120.059 9    486096.10146  24734932.863    24734931.9824   24734943.5824
        -0.000          -0.000
  -8367063.258 9  -6063004.52947  23140216.960    23140216.7824   23140226.2904
        -0.000          -0.000
 -19490682.944 9 -14942166.01849  21213282.159    21213281.4714   21213288.0774
        -0.000          -0.000
 -15156604.035 9 -11378367.84848  22531260.651    22531260.1234   22531268.5134
        -0.000          -0.000
  -1001207.811 8   -594730.17445  23337179.924    23337179.9474   23337187.8274
        -0.000          -0.000
 -20569619.565 9 -14982526.70449  21229663.143    21229662.2804   21229669.4124
        -0.000          -0.000
  -5130843.383 8  -3975645.26045  24441537.721    24441537.0664   24441551.4894
        -0.000          -0.000
 99  5  4  0 59  0.0010000  0  8  3 22  6 23 21 26 17 29             0.001477308
  -4053836.513 9  -2409239.66947  23434528.984    23434528.6834   23434536.8414
        -0.000          -0.000
   -468138.418 9    539068.69946  24747869.976    24747868.9164   24747880.2384
        -0.000          -0.000
  -8256288.524 9  -5976686.64746  23161296.635    23161296.4784   23161306.0634
        -0.000          -0.000
 -19465906.303 9 -14922859.53749  21217996.892    21217996.2174   21218002.8814
        -0.000          -0.000
 -15195799.666 9 -11408909.82848  22523802.108    22523801.4474   22523809.7594
        -0.000          -0.000
   -913349.159 8   -526268.93245  23353898.712    23353898.7324   23353906.8794
        -0.000          -0.000
 -20552335.876 9 -14969058.90349  21232952.129    21232951.2244   21232958.3664
        -0.000          -0.000
  -5229581.565 9  -4052583.71246  24422748.019    24422747.5744   24422761.8774
        -0.000          -0.000
 99  5  4  0 59 30.0010000  0  8  3 22  6 23 21 26 17 29             0.001483045
  -4129180.276 9  -2467949.06047  23420191.583    23420191.2994   23420199.3134
        -0.000          -0.000
   -399966.748 9    592189.36246  24760843.150    24760841.9454   24760853.1014
        -0.000          -0.000
  -8145259.475 9  -5890170.62346  23182425.013    23182424.6614   23182434.2354
        -0.000          -0.000
 -19440854.698 9 -14903338.78849  21222763.990    21222763.3374   21222770.0344
        -0.000          -0.000
 -15234797.025 9 -11439297.32648  22516380.957    22516380.4344   22516388.6404
        -0.000          -0.000
   -825090.723 9   -457496.15246  23370693.812    23370693.8054   23370701.9754
        -0.000          -0.000
 -20534819.560 9 -14955409.83149  21236285.330    21236284.5064   21236291.5754
        -0.000          -0.000
  -5328254.981 8  -4129471.72046  24403970.737    24403970.4634   24403984.6514
        -0.000          -0.000
 99  5  4  1  0  0.0010000  0  8  3 22  6 23 21 26 17 29             0.001488775
  -4204220.194 9  -2526421.69447  23405912.123    23405911.7454   23405919.6824
        -0.000          -0.000
   -331611.617 9    645453.01046  24773850.722    24773849.6414   24773860.7874
        -0.000          -0.000
  -8033976.335 9  -5803456.56546  23203601.402    23203601.1414   23203610.9274
        -0.000          -0.000
 -19415560.848 9 -14883629.27149  21227577.176    21227576.5154   21227583.3084
        -0.000          -0.000
 -15273595.272 9 -11469529.66348  22508997.903    22508997.4054   22509005.5134
        -0.000          -0.000
   -736445.739 9   -388422.17046  23387562.707    23387562.7774   23387570.6364
        -0.000          -0.000
 -20517101.855 9 -14941603.82548  21239656.857    21239656.0124   21239663.1274
        -0.000          -0.000
  -5426884.929 9  -4206325.84546  24385201.806    24385201.5774   24385215.7814
        -0.000          -0.000
 99  5  4  1  0 30.0010000  0  8  3 22  6 23 21 26 17 29             0.001494522
  -4278915.421 9  -2584625.71347  23391698.059    23391697.6854   23391705.5074
        -0.000          -0.000
   -263054.926 9    698873.74546  24786896.553    24786895.3994   24786906.6174
        -0.000          -0.000
  -7922426.806 9  -5716534.94846  23224828.670    23224828.4754   23224838.2564
        -0.000          -0.000
 -19390004.500 9 -14863715.21649  21232440.301    21232439.6584   21232446.5604
        -0.000          -0.000
 -15312145.830 9 -11499569.00348  22501662.141    22501661.5244   22501669.5894
        -0.000          -0.000
   -647369.699 9   -319012.29446  23404513.656    23404513.6034   23404521.2444
        -0.000          -0.000
 -20499163.527 9 -14927625.91348  21243070.212    21243069.4494   21243076.6284
        -0.000          -0.000
  -5525457.443 9  -4283135.22546  24366443.958    24366443.6134   24366457.6864
        -0.000          -0.000
 99  5  4  1  1  0.0010000  0  8  3 22  6 23 21 26 17 29             0.001500284
  -4353254.873 9  -2642552.53247  23377551.605    23377551.2894   23377559.1054
        -0.000          -0.000
   -194310.718 9    752440.57146  24799978.000    24799976.9644   24799988.1814
        -0.000          -0.000
  -7810639.389 9  -5629427.95946  23246101.518    23246101.2184   23246110.7494
        -0.000          -0.000
 -19364199.729 9 -14843607.59449  21237350.723    21237350.0984   21237357.0184
        -0.000          -0.000
 -15350424.851 9 -11529396.74848  22494377.849    22494377.1874   22494385.2434
        -0.000          -0.000
   -557865.605 9   -249268.88346  23421545.859    23421545.7714   23421553.1564
        -0.000          -0.000
 -20481019.249 9 -14913487.51848  21246522.870    21246522.0994   21246529.3784
        -0.000          -0.000
  -5623968.217 9  -4359896.52046  24347697.517    24347697.4304   24347711.1564
        -0.000          -0.000
 99  5  4  1  1 30.0010000  0  8  3 22  6 23 21 26 17 29             0.001506047
  -4427266.890 9  -2700224.21247  23363467.587    23363467.1784   23363474.8484
        -0.000          -0.000
   -125416.902 9    806123.92746  24813088.111    24813087.0774   24813098.2654
        -0.000          -0.000
  -7698647.768 9  -5542161.84846  23267413.274    23267412.9244   23267421.9284
        -0.000          -0.000
 -19338189.606 9 -14823339.94649  21242300.272    21242299.6024   21242306.5934
        -0.000          -0.000
 -15388453.724 9 -11559029.57648  22487141.191    22487140.4974   22487148.5004
        -0.000          -0.000
   -467957.265 8   -179210.44646  23438654.745    23438654.6184   23438662.0774
        -0.000          -0.000
 -20462688.288 9 -14899203.66248  21250011.174    21250010.4244   21250017.7154
        -0.000          -0.000
  -5722441.084 9  -4436628.30046  24328958.228    24328958.2744   24328971.8464
        -0.000          -0.000
 99  5  4  1  2  0.0010000  0  8  3 22  6 23 21 26 17 29             0.001511821
  -4500935.808 9  -2757628.53347  23349448.800    23349448.3434   23349455.9834
        -0.000          -0.000
    -56359.466 9    859934.80546  24826229.359    24826228.3794   24826239.6724
        -0.000          -0.000
  -7586450.080 9  -5454735.16046  23288764.030    23288763.6544   23288772.2894
        -0.000          -0.000
 -19311939.097 9 -14802884.99949  21247295.448    21247294.8644   21247302.0364
        -0.000          -0.000
 -15426208.541 9 -11588448.86548  22479956.765    22479955.9514   22479963.9104
        -0.000          -0.000
   -377620.644 8   -108818.26946  23455844.895    23455844.9774   23455852.5314
        -0.000          -0.000
 -20444126.328 9 -14884739.80348  21253543.411    21253542.6294   21253549.9344
        -0.000          -0.000
  -5820830.016 9  -4513294.68345  24310235.000    24310235.0254   24310248.5714
        -0.000          -0.000
 99  5  4  1  2 30.0010000  0  8  3 22  6 23 21 26 17 29             0.001517603
  -4574258.157 9  -2814762.80047  23335495.893    23335495.5024   23335503.0774
        -0.000          -0.000
     12860.743 9    913872.51246  24839401.656    24839400.5914   24839412.0024
        -0.000          -0.000
  -7474057.673 9  -5367156.72846  23310151.701    23310151.1984   23310159.8704
        -0.000          -0.000
 -19285434.999 9 -14782232.44449  21252339.096    21252338.5024   21252345.6584
        -0.000          -0.000
 -15463692.457 9 -11617657.05748  22472823.628    22472822.9494   22472830.9894
        -0.000          -0.000
   -286867.552 9    -38101.59045  23473114.571    23473114.5714   23473122.2714
        -0.000          -0.000
 -20425307.795 9 -14870076.01149  21257124.423    21257123.6794   21257131.0304
        -0.000          -0.000
  -5919112.472 9  -4589878.08445  24291532.297    24291532.1534   24291545.6314
        -0.000          -0.000
 99  5  4  1  3  0.0010000  0  8  3 22  6 23 21 26 17 29             0.001523374
  -4647248.558 9  -2871638.40747  23321606.375    23321605.8784   23321613.4184
        -0.000          -0.000
     82238.316 9    967932.82146  24852603.711    24852602.7904   24852614.4104
        -0.000          -0.000
  -7361458.797 9  -5279417.44146  23331578.515    23331578.0554   23331586.9014
        -0.000          -0.000
 -19258679.523 9 -14761384.00249  21257430.579    21257429.9284   21257437.0464
        -0.000          -0.000
 -15500921.787 9 -11646666.86748  22465738.978    22465738.3934   22465746.4994
        -0.000          -0.000
   -195732.117 9     32913.01645  23490456.993    23490457.1154   23490464.3414
        -0.000          -0.000
 -20406225.538 9 -14855206.71749  21260755.738    21260754.9464   21260762.3664
        -0.000          -0.000
  -6017290.759 8  -4666380.36645  24272849.309    24272849.1674   24272862.5194
        -0.000          -0.000
 99  5  4  1  3 30.0010000  0  8  3 22  6 23 21 26 17 29             0.001529122
  -4719930.777 9  -2928273.87747  23307775.535    23307774.9334   23307782.3494
        -0.000          -0.000
    151770.122 9   1022113.34346  24865835.706    24865834.5204   24865846.2774
        -0.000          -0.000
  -7248647.691 9  -5191512.79446  23353045.807    23353045.4124   23353054.3064
        -0.000          -0.000
 -19231683.111 9 -14740347.83049  21262567.897    21262567.2314   21262574.3784
        -0.000          -0.000
 -15537921.385 9 -11675497.67348  22458697.940    22458697.4684   22458705.6704
        -0.000          -0.000
   -104240.212 8    104205.34945  23507867.383    23507867.6014   23507874.3234
        -0.000          -0.000
 -20386876.959 9 -14840129.91849  21264437.644    21264436.8664   21264444.3014
        -0.000          -0.000
  -6115385.217 8  -4742817.30345  24254182.168    24254182.0504   24254195.4564
        -0.000          -0.000
 99  5  4  1  4  0.0010000  0  8  3 22  6 23 21 26 17 29             0.001534848
  -4792287.861 9  -2984656.00547  23294006.390    23294005.9054   23294013.2384
        -0.000          -0.000
    221469.753 9   1076424.65446  24879098.966    24879098.0794   24879110.0054
        -0.000          -0.000
  -7135606.995 9  -5103429.24246  23374556.931    23374556.4814   23374565.3054
        -0.000          -0.000
 -19204423.865 9 -14719106.86549  21267755.145    21267754.4904   21267761.7394
        -0.000          -0.000
 -15574685.320 9 -11704144.85248  22451701.915    22451701.4214   22451709.6344
        -0.000          -0.000
    -12394.391 8    175773.50545  23525345.169    23525345.2924   23525351.8594
        -0.000          -0.000
 -20367253.091 9 -14824838.59248  21268171.980    21268171.1724   21268178.4944
        -0.000          -0.000
  -6213383.190 9  -4819179.06345  24235533.434    24235533.4094   24235546.5394
        -0.000          -0.000
 99  5  4  1  4 30.0010000  0  8  3 22  6 23 21 26 17 29             0.001540553
  -4864314.872 9  -3040780.92347  23280300.167    23280299.6444   23280306.8254
        -0.000          -0.000
    291334.519 9   1130864.60646  24892393.659    24892392.7754   24892404.8414
        -0.000          -0.000
  -7022330.405 9  -5015161.85446  23396112.806    23396112.3304   23396121.1634
        -0.000          -0.000
 -19176914.478 9 -14697670.96649  21272989.974    21272989.3264   21272996.5344
        -0.000          -0.000
 -15611228.803 9 -11732620.23948  22444747.954    22444747.4344   22444755.5384
        -0.000          -0.000
     79801.401 8    247614.36545  23542889.541    23542889.6674   23542896.2374
        -0.000          -0.000
 -20347376.152 9 -14809350.06348  21271954.336    21271953.5534   21271960.8924
        -0.000          -0.000
  -6311304.228 9  -4895480.87745  24216899.629    24216899.5604   24216912.4914
        -0.000          -0.000
 99  5  4  1  5  0.0010000  0  8  3 22  6 23 21 26 17 29             0.001546263
  -4935976.571 9  -3096621.18947  23266663.232    23266662.8544   23266670.0004
        -0.000          -0.000
    361386.182 9   1185450.20445  24905723.711    24905722.9764   24905735.0724
        -0.000          -0.000
  -6908799.270 9  -4926696.14446  23417716.836    23417716.3734   23417725.5864
        -0.000          -0.000
 -19149131.617 9 -14676021.97949  21278276.871    21278276.2164   21278283.3934
        -0.000          -0.000
 -15647542.163 9 -11760916.31948  22437837.813    22437837.1994   22437845.3264
        -0.000          -0.000
    172387.133 8    319759.05745  23560508.166    23560508.3094   23560515.0524
        -0.000          -0.000
 -20327231.630 9 -14793653.03948  21275787.761    21275786.9794   21275794.3034
        -0.000          -0.000
  -6409146.156 9  -4971721.03145  24198280.673    24198280.6694   24198293.3724
        -0.000          -0.000
 99  5  4  1  5 30.0010000  0  8  3 22  6 23 21 26 17 29             0.001551977
  -5007279.414 9  -3152181.80547  23253094.752    23253094.3584   23253101.4694
        -0.000          -0.000
    431607.496 9   1240167.97845  24919086.259    24919085.5364   24919097.6854
        -0.000          -0.000
  -6795048.600 9  -4838059.36346  23439362.960    23439362.4674   23439371.8324
        -0.000          -0.000
 -19121089.500 9 -14654170.97749  21283613.147    21283612.4924   21283619.6484
        -0.000          -0.000
 -15683653.493 9 -11789054.96948  22430965.951    22430965.3754   22430973.4604
        -0.000          -0.000
    265361.743 8    392206.78945  23578200.881    23578201.0304   23578207.5984
        -0.000          -0.000
 -20306838.427 9 -14777762.23548  21279668.484    21279667.6934   21279675.0244
        -0.000          -0.000
  -6506927.004 9  -5047913.59646  24179673.541    24179673.4914   24179686.1904
        -0.000          -0.000
 99  5  4  1  6  0.0010000  0  8  3 22  6 23 21 26 17 29             0.001557695
  -5078213.441 9  -3207455.04247  23239596.520    23239596.0534   23239603.0564
        -0.000          -0.000
    501990.208 9   1295011.54945  24932479.485    24932478.7654   24932491.0014
        -0.000          -0.000
  -6681095.365 9  -4749264.73846  23461047.567    23461047.1454   23461056.5994
        -0.000          -0.000
 -19092780.159 9 -14632111.74549  21289000.285    21288999.6024   21289006.7634
        -0.000          -0.000
 -15719557.613 9 -11817032.14548  22424133.677    22424133.0764   22424141.0604
        -0.000          -0.000
    358728.747 8    464960.25345  23595968.304    23595968.4814   23595975.0614
        -0.000          -0.000
 -20286191.545 9 -14761673.75348  21283597.405    21283596.6034   21283603.9094
        -0.000          -0.000
  -6604644.309 9  -5124056.64546  24161078.354    24161078.3244   24161090.8164
        -0.000          -0.000
 99  5  4  1  6 30.0010000  0  8  3 22  6 23 21 26 17 29             0.001563403
  -5148795.143 9  -3262453.74247  23226165.235    23226164.7614   23226171.7654
        -0.000          -0.000
    572516.583 9   1349967.06245  24945900.522    24945899.6034   24945911.6674
        -0.000          -0.000
  -6566948.018 9  -4660318.84346  23482769.120    23482768.7874   23482778.2044
        -0.000          -0.000
 -19064206.786 9 -14609846.78049  21294437.578    21294436.8684   21294444.0454
        -0.000          -0.000
 -15755248.036 9 -11844842.81748  22417341.952    22417341.3684   22417349.3744
        -0.000          -0.000
    452473.486 8    538008.14245  23613807.333    23613807.5134   23613814.2924
        -0.000          -0.000
 -20265294.786 9 -14745390.56048  21287573.785    21287573.0304   21287580.3494
        -0.000          -0.000
  -6702300.477 9  -5200152.03346  24142494.841    24142494.7304   24142507.1054
        -0.000          -0.000
 99  5  4  1  7  0.0010000  0  8  3 22  6 23 21 26 17 29             0.001569099
  -5219020.354 9  -3317174.65847  23212801.842    23212801.3824   23212808.2974
        -0.000          -0.000
    643188.889 8   1405036.27845  24959349.032    24959348.2834   24959360.3674
        -0.000          -0.000
  -6452595.671 9  -4571213.21846  23504529.802    23504529.4034   23504538.8644
        -0.000          -0.000
 -19035356.017 9 -14587365.65949  21299927.672    21299926.9974   21299934.1014
        -0.000          -0.000
 -15790686.446 9 -11872457.10848  22410598.218    22410597.6164   22410605.7414
        -0.000          -0.000
    546599.206 8    611352.86245  23631718.722    23631718.7524   23631726.1854
        -0.000          -0.000
 -20244128.245 9 -14728897.16248  21291601.617    21291600.8814   21291608.2694
        -0.000          -0.000
  -6799879.764 9  -5276187.52446  24123925.702    24123925.3554   24123938.1114
        -0.000          -0.000
 99  5  4  1  7 30.0010000  0  8  3 22  6 23 21 26 17 29             0.001574779
  -5288907.343 9  -3371632.00747  23199502.972    23199502.4094   23199509.1144
        -0.000          -0.000
    713998.703 8   1460212.63045  24972823.404    24972822.8454   24972835.2584
        -0.000          -0.000
  -6338035.833 9  -4481945.88346  23526329.753    23526329.3514   23526338.9974
        -0.000          -0.000
 -19006245.069 9 -14564681.79649  21305467.370    21305466.6724   21305473.6534
        -0.000          -0.000
 -15825842.811 9 -11899851.62548  22403908.051    22403907.5084   22403915.6994
        -0.000          -0.000
    641094.839 8    684985.78545  23649700.495    23649700.7444   23649708.9214
        -0.000          -0.000
 -20222695.981 9 -14712196.70248  21295680.018    21295679.2784   21295686.7474
        -0.000          -0.000
  -6897365.038 9  -5352149.74246  24105374.581    24105374.3774   24105387.0264
        -0.000          -0.000
 99  5  4  1  8  0.0010000  0  8  3 22  6 23 21 26 17 29             0.001580451
  -5358444.677 9  -3425816.90547  23186270.391    23186269.8604   23186276.4804
        -0.000          -0.000
    784953.551 9   1515501.94446  24986325.492    24986325.0974   24986337.6884
        -0.000          -0.000
  -6223246.115 9  -4392499.42346  23548173.461    23548173.1494   23548182.7194
        -0.000          -0.000
 -18976874.630 9 -14541795.72849  21311056.438    21311055.7034   21311062.5844
        -0.000          -0.000
 -15860691.943 9 -11927006.74048  22397276.350    22397275.7994   22397284.0404
        -0.000          -0.000
    735959.464 8    758906.33545  23667752.465    23667752.4064   23667761.0914
        -0.000          -0.000
 -20200996.159 9 -14695287.75749  21299809.354    21299808.6294   21299816.1544
        -0.000          -0.000
  -6994730.824 9  -5428018.84446  24086846.300    24086845.9344   24086858.5974
        -0.000          -0.000
 99  5  4  1  8 30.0010000  0  8  3 22  6 23 21 26 17 29             0.001586118
  -5427635.592 9  -3479731.87147  23173103.801    23173103.2054   23173109.7334
        -0.000          -0.000
    856041.495 9   1570895.02546  24999853.303    24999852.9514   24999865.3424
        -0.000          -0.000
  -6108225.032 9  -4302872.71846  23570061.281    23570060.9664   23570070.3834
        -0.000          -0.000
 -18947260.353 9 -14518719.66949  21316691.686    21316691.0124   21316698.0264
        -0.000          -0.000
 -15895257.401 9 -11953940.81048  22390698.589    22390698.1034   22390706.3184
        -0.000          -0.000
    831190.632 8    833112.38045  23685874.118    23685874.2414   23685882.8054
        -0.000          -0.000
 -20179057.600 9 -14678192.77149  21303984.250    21303983.4894   21303991.0034
        -0.000          -0.000
  -7091979.775 9  -5503796.91446  24068340.191    24068339.6864   24068352.4424
        -0.000          -0.000
 99  5  4  1  9  0.0010000  0  8  3 22  6 23 21 26 17 29             0.001591781
  -5496483.986 9  -3533379.91747  23160002.328    23160001.6754   23160008.1374
        -0.000          -0.000
    927247.665 9   1626380.22946  25013403.713    25013403.3414   25013415.5004
        -0.000          -0.000
  -5992999.389 9  -4213086.58346  23591988.013    23591987.6274   23591997.0534
        -0.000          -0.000
 -18917434.780 9 -14495478.95949  21322367.295    21322366.6434   21322373.6574
        -0.000          -0.000
 -15929580.432 9 -11980685.97148  22384167.191    22384166.6744   22384174.7384
        -0.000          -0.000
    926780.625 8    907598.01745  23704064.361    23704064.4394   23704072.7224
        -0.000          -0.000
 -20156891.753 9 -14660920.68949  21308202.399    21308201.6194   21308209.0794
        -0.000          -0.000
  -7189133.890 9  -5579501.06446  24049852.152    24049851.5854   24049864.3784
        -0.000          -0.000
 99  5  4  1  9 30.0010000  0  8  3 22  6 23 21 26 17 29             0.001597451
  -5564968.552 9  -3586744.48747  23146970.028    23146969.3974   23146975.7374
        -0.000          -0.000
    998580.292 9   1681963.96046  25026978.127    25026977.7434   25026989.8064
        -0.000          -0.000
  -5877568.579 9  -4123140.59646  23613953.515    23613953.2614   23613963.0204
        -0.000          -0.000
 -18887397.648 9 -14472073.39349  21328083.289    21328082.5664   21328089.4664
        -0.000          -0.000
 -15963686.137 9 -12007261.80448  22377677.201    22377676.6574   22377684.6184
        -0.000          -0.000
   1022733.767 8    982366.63144  23722323.651    23722323.8674   23722331.3704
        -0.000          -0.000
 -20134491.837 9 -14643466.20549  21312465.196    21312464.3584   21312471.6364
        -0.000          -0.000
  -7286174.918 9  -5655117.11646  24031385.723    24031385.1484   24031397.9074
        -0.000          -0.000
 99  5  4  1 10  0.0010000  0  8  3 22  6 23 21 26 17 29             0.001603132
  -5633055.044 9  -3639798.86247  23134013.540    23134012.9264   23134019.2624
        -0.000          -0.000
   1070042.626 9   1737648.79245  25040577.340    25040576.6104   25040588.6134
        -0.000          -0.000
  -5761937.674 9  -4033038.69446  23635957.163    23635956.9874   23635967.1214
        -0.000          -0.000
 -18857120.890 9 -14448481.10849  21333844.840    21333844.1174   21333850.8804
        -0.000          -0.000
 -15997593.759 9 -12033683.27448  22371224.798    22371224.2244   22371232.2084
        -0.000          -0.000
   1119058.505 8   1057424.82144  23740653.898    23740653.8874   23740661.4294
        -0.000          -0.000
 -20111845.396 9 -14625819.62749  21316774.682    21316773.8454   21316781.0654
        -0.000          -0.000
  -7383088.872 9  -5730634.14446  24012943.665    24012942.9064   24012955.5164
        -0.000          -0.000
 99  5  4  1 10 30.0010000  0  8  3 22  6 23 21 26 17 29             0.001608819
  -5700739.263 9  -3692539.76247  23121133.556    23121132.8834   23121139.4944
        -0.000          -0.000
   1141625.248 8   1793427.32745  25054198.762    25054198.2604   25054210.1634
        -0.000          -0.000
  -5646128.518 9  -3942797.88346  23657995.238    23657994.9514   23658005.2364
        -0.000          -0.000
 -18826601.096 9 -14424699.45249  21339652.608    21339651.8564   21339658.6274
        -0.000          -0.000
 -16031305.660 9 -12059952.24348  22364809.614    22364809.0154   22364817.0574
        -0.000          -0.000
   1215759.050 8   1132775.79844  23759055.951    23759055.8164   23759062.9284
        -0.000          -0.000
 -20088942.495 9 -14607973.21249  21321132.916    21321132.0874   21321139.3244
        -0.000          -0.000
  -7479885.231 9  -5806059.52646  23994523.699    23994522.9684   23994535.4664
        -0.000          -0.000
 99  5  4  1 11  0.0010000  0  8  3 22  6 23 21 26 17 29             0.001614515
  -5768005.700 9  -3744955.12747  23108332.955    23108332.4344   23108339.0314
        -0.000          -0.000
   1213337.947 9   1849307.20145  25067845.366    25067844.9014   25067856.8084
        -0.000          -0.000
  -5530133.150 9  -3852411.99946  23680068.840    23680068.5204   23680078.8434
        -0.000          -0.000
 -18795829.593 9 -14400721.65149  21345508.301    21345507.5824   21345514.3134
        -0.000          -0.000
 -16064789.355 9 -12086043.37148  22358437.826    22358437.2164   22358445.2484
        -0.000          -0.000
   1312834.485 8   1208418.92144  23777529.103    23777529.0394   23777536.1124
        -0.000          -0.000
 -20065760.563 9 -14589909.37349  21325544.239    21325543.4544   21325550.6964
        -0.000          -0.000
  -7576552.096 9  -5881384.00846  23976128.256    23976127.6734   23976139.8054
        -0.000          -0.000
 99  5  4  1 11 30.0010000  0  8  3 22  6 23 21 26 17 29             0.001620210
  -5834864.527 9  -3797052.88247  23095610.065    23095609.5724   23095616.0994
        -0.000          -0.000
   1285171.032 9   1905280.91345  25081515.315    25081514.5974   25081526.1604
        -0.000          -0.000
  -5413948.740 9  -3761878.79246  23702178.078    23702177.7434   23702188.1094
        -0.000          -0.000
 -18764803.269 9 -14376545.28549  21351412.460    21351411.7054   21351418.4964
        -0.000          -0.000
 -16098042.247 9 -12111954.65648  22352109.870    22352109.3074   22352117.4114
        -0.000          -0.000
   1410273.154 8   1284345.18744  23796071.105    23796071.0934   23796077.7724
        -0.000          -0.000
 -20042314.937 9 -14571640.05748  21330005.767    21330004.9754   21330012.1874
        -0.000          -0.000
  -7673096.628 9  -5956613.16446  23957755.911    23957755.5724   23957767.7034
        -0.000          -0.000
 99  5  4  1 12  0.0010000  0  8  3 22  6 23 21 26 17 29             0.001625899
  -5901329.139 9  -3848843.43947  23082962.299    23082961.7384   23082968.1744
        -0.000          -0.000
   1357122.168 9   1961346.60745  25095207.494    25095206.6494   25095218.2224
        -0.000          -0.000
  -5297579.698 9  -3671201.71546  23724322.318    23724322.0244   23724332.5354
        -0.000          -0.000
 -18733521.685 9 -14352170.02249  21357365.053    21357364.3444   21357371.2334
        -0.000          -0.000
 -16131058.185 9 -12137681.30448  22345827.153    22345826.5964   22345834.6744
        -0.000          -0.000
   1508063.617 8   1360545.52244  23814680.035    23814679.7694   23814687.1174
        -0.000          -0.000
 -20018612.156 9 -14553170.35748  21334516.106    21334515.3824   21334522.5424
        -0.000          -0.000
  -7769532.829 9  -6031757.94246  23939404.312    23939404.0364   23939416.1904
        -0.000          -0.000
 99  5  4  1 12 30.0010000  0  8  3 22  6 23 21 26 17 29             0.001631595
  -5967396.809 9  -3900324.68947  23070389.862    23070389.3924   23070395.7954
        -0.000          -0.000
   1429214.957 9   2017522.68445  25108926.625    25108925.7224   25108937.4624
        -0.000          -0.000
  -5180997.820 9  -3580358.78646  23746507.046    23746506.8054   23746517.4444
        -0.000          -0.000
 -18701986.122 9 -14327596.84349  21363366.034    21363365.3004   21363372.2954
        -0.000          -0.000
 -16163817.938 9 -12163208.32448  22339593.325    22339592.7024   22339600.6494
        -0.000          -0.000
   1606208.780 8   1437022.25845  23833356.163    23833356.2494   23833364.1884
        -0.000          -0.000
 -19994641.820 9 -14534492.17548  21339077.525    21339076.7854   21339083.8804
        -0.000          -0.000
  -7865850.173 9  -6106810.11346  23921075.362    23921075.1454   23921087.3644
        -0.000          -0.000
 99  5  4  1 13  0.0010000  0  8  3 22  6 23 21 26 17 29             0.001637282
  -6033094.338 9  -3951517.52247  23057888.055    23057887.5574   23057893.8754
        -0.000          -0.000
   1501436.549 9   2073799.09746  25122669.819    25122669.0584   25122681.2764
        -0.000          -0.000
  -5064217.785 9  -3489361.46246  23768729.857    23768729.5404   23768740.0714
        -0.000          -0.000
 -18670212.429 9 -14302838.11549  21369412.248    21369411.5254   21369418.5804
        -0.000          -0.000
 -16196344.169 9 -12188553.38248  22333403.714    22333403.0874   22333411.0324
        -0.000          -0.000
   1704673.582 8   1513748.07545  23852093.497    23852093.6494   23852101.0404
        -0.000          -0.000
 -19970426.349 9 -14515622.97348  21343685.585    21343684.7954   21343691.8724
        -0.000          -0.000
  -7962063.924 9  -6181781.55546  23902766.116    23902766.0404   23902778.1754
        -0.000          -0.000
 99  5  4  1 13 30.0010000  0  8  3 22  6 23 21 26 17 29             0.001642957
  -6098439.717 9  -4002435.95147  23045453.284    23045452.6364   23045459.0084
        -0.000          -0.000
   1573770.528 9   2130163.11046  25136434.780    25136434.0094   25136446.4394
        -0.000          -0.000
  -4947264.092 9  -3398228.83846  23790985.704    23790985.3344   23790995.6604
        -0.000          -0.000
 -18638206.663 9 -14277898.54349  21375502.619    21375501.9484   21375508.9444
        -0.000          -0.000
 -16228658.037 9 -12213732.97848  22327254.522    22327253.9144   22327261.7704
        -0.000          -0.000
   1803447.296 8   1590714.59145  23870889.782    23870889.6184   23870897.0274
        -0.000          -0.000
 -19945965.611 9 -14496562.66548  21348340.232    21348339.4824   21348346.5964
        -0.000          -0.000
  -8058170.420 9  -6256669.44046  23884477.266    23884477.3714   23884489.4144
        -0.000          -0.000
 99  5  4  1 14  0.0010000  0  8  3 22  6 23 21 26 17 29             0.001648609
  -6163422.189 9  -4053071.60647  23033087.287    23033086.7274   23033093.2884
        -0.000          -0.000
   1646213.901 9   2186612.36546  25150220.486    25150219.5764   25150232.0844
        -0.000          -0.000
  -4830158.014 9  -3306977.45846  23813270.235    23813269.9654   23813280.1514
        -0.000          -0.000
 -18605979.499 9 -14252786.45749  21381635.187    21381634.5524   21381641.5074
        -0.000          -0.000
 -16260757.956 9 -12238745.84248  22321146.212    22321145.5724   22321153.2244
        -0.000          -0.000
   1902512.517 8   1667908.27245  23889740.814    23889740.8264   23889748.2484
        -0.000          -0.000
 -19921264.185 9 -14477314.81148  21353040.659    21353039.8884   21353047.0854
        -0.000          -0.000
  -8154151.184 9  -6331459.34946  23866212.794    23866212.7154   23866224.4904
        -0.000          -0.000
 99  5  4  1 14 30.0010000  0  8  3 22  6 23 21 26 17 29             0.001654243
  -6228029.910 9  -4103415.24547  23020792.776    23020792.2074   23020798.8774
        -0.000          -0.000
   1718760.039 8   2243141.65045  25164025.426    25164024.3304   25164037.3554
        -0.000          -0.000
  -4712897.020 9  -3215605.35746  23835584.419    23835584.1484   23835594.3234
        -0.000          -0.000
 -18573538.354 9 -14227507.63849  21387808.484    21387807.8494   21387814.7774
        -0.000          -0.000
 -16292628.285 9 -12263579.80848  22315081.444    22315080.7914   22315088.2824
        -0.000          -0.000
   2001872.396 8   1745331.58345  23908648.364    23908648.1964   23908655.4874
        -0.000          -0.000
 -19896307.681 9 -14457868.18648  21357789.722    21357789.0104   21357796.1834
        -0.000          -0.000
  -8249988.298 9  -6406137.31946  23847975.410    23847975.2314   23847986.8714
        -0.000          -0.000
 99  5  4  1 15  0.0010000  0  8  3 22  6 23 21 26 17 29             0.001659855
  -6292249.786 9  -4153456.67247  23008572.057    23008571.5284   23008578.2564
        -0.000          -0.000
   1791395.698 9   2299740.66445  25177847.855    25177846.7284   25177859.5954
        -0.000          -0.000
  -4595491.434 9  -3124120.57946  23857926.268    23857925.7914   23857935.9294
        -0.000          -0.000
 -18540882.763 9 -14202061.71149  21394022.684    21394022.0374   21394028.9554
        -0.000          -0.000
 -16324261.448 9 -12288228.97248  22309061.684    22309061.1094   22309068.5754
        -0.000          -0.000
   2101529.566 8   1822986.48645  23927612.754    23927612.9084   23927619.1084
        -0.000          -0.000
 -19871077.631 9 -14438208.40948  21362590.889    21362590.1574   21362597.3434
        -0.000          -0.000
  -8345675.185 8  -6480698.26446  23829766.178    23829766.1574   23829777.8534
        -0.000          -0.000
 99  5  4  1 15 30.0010000  0  8  3 22  6 23 21 26 17 29             0.001665441
  -6356068.141 9  -4203185.22847  22996427.651    22996427.1654   22996433.9784
        -0.000          -0.000
   1864097.769 8   2356391.46545  25191682.832    25191681.7714   25191694.0754
        -0.000          -0.000
  -4477948.947 9  -3032529.16046  23880294.122    23880293.6374   23880303.6594
        -0.000          -0.000
 -18508033.453 9 -14176464.83949  21400273.681    21400272.9904   21400279.9594
        -0.000          -0.000
 -16355677.178 9 -12312708.71248  22303083.494    22303082.8674   22303090.3254
        -0.000          -0.000
   2201483.944 8   1900873.00144  23946632.990    23946633.0644   23946639.1394
        -0.000          -0.000
 -19845582.613 9 -14418342.15748  21367442.483    21367441.7784   21367448.8764
        -0.000          -0.000
  -8441210.417 9  -6555141.04146  23811585.928    23811586.2024   23811597.8074
        -0.000          -0.000
 99  5  4  1 16  0.0010000  0  8  3 22  6 23 21 26 17 29             0.001671036
  -6419419.792 9  -4252550.13547  22984372.127    22984371.6814   22984378.6034
        -0.000          -0.000
   1936912.414 9   2413129.99245  25205538.992    25205538.1894   25205549.9114
        -0.000          -0.000
  -4360214.482 9  -2940788.12146  23902698.185    23902697.9064   23902707.7874
        -0.000          -0.000
 -18474952.558 9 -14150687.52249  21406568.597    21406567.9614   21406575.0064
        -0.000          -0.000
 -16386832.026 9 -12336985.16848  22297154.971    22297154.3114   22297161.6624
        -0.000          -0.000
   2301787.127 8   1979031.33744  23965719.363    23965719.8374   23965726.3814
        -0.000          -0.000
 -19819773.742 9 -14398231.35648  21372353.898    21372353.1384   21372360.1004
        -0.000          -0.000
  -8536551.426 9  -6629432.46346  23793443.037    23793443.1734   23793454.6674
        -0.000          -0.000
 99  5  4  1 16 30.0010000  0  8  3 22  6 23 21 26 17 29             0.001676644
  -6482323.696 9  -4301566.15647  22972401.846    22972401.4974   22972408.4174
        -0.000          -0.000
   2009816.384 9   2469938.16345  25219412.751    25219411.6344   25219423.2294
        -0.000          -0.000
  -4242289.321 9  -2848898.49346  23925138.505    23925138.3224   23925148.1624
        -0.000          -0.000
 -18441647.400 9 -14124735.43949  21412906.336    21412905.7244   21412912.7474
        -0.000          -0.000
 -16417732.814 9 -12361063.65648  22291274.849    22291274.1424   22291281.2624
        -0.000          -0.000
   2402452.59217   2057471.90754  23984874.641    23984875.4295          0.0005
        -0.000          -0.000
 -19793641.960 9 -14377868.91848  21377326.690    21377325.9154   21377332.7754
        -0.000          -0.000
  -8631722.932 9  -6703591.82546  23775332.476    23775332.4204   23775343.8134
        -0.000          -0.000
 99  5  4  1 17  0.0010000  0  8  3 22  6 23 21 26 17 29             0.001682273
  -6544772.394 9  -4350227.45847  22960518.379    22960517.9644   22960524.9624
        -0.000          -0.000
   2082815.650 8   2526820.56445  25233304.438    25233303.0674   25233314.9614
        -0.000          -0.000
  -4124176.607 9  -2756862.72746  23947614.465    23947614.3334   23947624.2974
        -0.000          -0.000
 -18408103.736 9 -14098597.50449  21419289.503    21419288.8654   21419295.8824
        -0.000          -0.000
 -16448387.713 9 -12384950.53748  22285441.460    22285440.7114   22285447.7264
        -0.000          -0.000
   2503498.71818   2136209.09454         0.000           0.0005          0.0005
        -0.000          -0.000
 -19767184.639 9 -14357252.82348  21382361.390    21382360.6004   21382367.4494
        -0.000          -0.000
  -8726725.365 9  -6777619.45046  23757253.916    23757254.0354   23757265.2644
        -0.000          -0.000
 99  5  4  1 17 30.0010000  0  8  3 22  6 23 21 26 17 29             0.001687917
  -6606804.635 9  -4398564.25847  22948714.013    22948713.6164   22948720.8274
        -0.000          -0.000
   2155893.273 9   2583763.97145  25247210.701    25247209.3804   25247221.4844
        -0.000          -0.000
  -4005899.588 9  -2664698.91346  23970121.521    23970121.4214   23970131.7264
        -0.000          -0.000
 -18374338.587 9 -14072287.00949  21425714.726    21425714.1074   21425721.2454
        -0.000          -0.000
 -16478819.442 9 -12408663.53248  22279650.281    22279649.6504   22279656.7714
        -0.000          -0.000
   2604906.19118   2215227.86554  24023400.307    24023400.6555   24023408.9695
        -0.000          -0.000
 -19740434.385 9 -14336408.47448  21387451.777    21387450.9664   21387457.8284
        -0.000          -0.000
  -8821576.021 9  -6851528.79346  23739204.349    23739204.5314   23739215.6324
        -0.000          -0.000
 99  5  4  1 18  0.0010000  0  8  3 22  6 23 21 26 17 29             0.001693561
  -6668455.009 9  -4446603.49147  22936982.237    22936981.9184   22936989.3214
        -0.000          -0.000
   2229039.145 8   2640760.57045  25261129.677    25261128.4854   25261140.9864
        -0.000          -0.000
  -3887484.113 9  -2572427.21846  23992655.013    23992654.9504   23992665.5274
        -0.000          -0.000
 -18340372.071 9 -14045819.58949  21432178.280    21432177.6824   21432184.8514
        -0.000          -0.000
 -16509019.458 9 -12432195.97248  22273903.177    22273902.6194   22273909.7974
        -0.000          -0.000
   2706647.746 7   2294507.02144  24042761.777    24042761.1934   24042770.1944
        -0.000          -0.000
 -19713407.245 9 -14315348.38248  21392594.625    21392593.8364   21392600.9034
        -0.000          -0.000
  -8916300.036 9  -6925339.47046  23721179.041    23721179.1404   23721190.1514
        -0.000          -0.000
 99  5  4  1 18 30.0010000  0  8  3 22  6 23 21 26 17 29             0.001699206
  -6729730.293 9  -4494350.45347  22925321.842    22925321.5214   22925329.0904
        -0.000          -0.000
   2302267.099 9   2697821.12145  25275064.319    25275063.2384   25275076.2474
        -0.000          -0.000
  -3768932.775 9  -2480049.63946  24015214.659    24015214.5034   24015225.2844
        -0.000          -0.000
 -18306195.250 9 -14019188.28248  21438681.830    21438681.2204   21438688.4474
        -0.000          -0.000
 -16538978.899 9 -12455540.94448  22268201.987    22268201.4054   22268208.7164
        -0.000          -0.000
   2808716.14117   2374040.81044  24062184.932    24062184.2655   24062193.1694
        -0.000          -0.000
 -19686113.722 9 -14294080.70048  21397788.467    21397787.6894   21397794.8154
        -0.000          -0.000
  -9010897.802 9  -6999051.78146  23703177.615    23703177.6124   23703188.6704
        -0.000          -0.000
 99  5  4  1 19  0.0010000  0  8  3 22  6 23 21 26 17 29             0.001704844
  -6790631.344 9  -4541805.79847  22913732.717    22913732.4344   22913740.0464
        -0.000          -0.000
   2375591.018 9   2754956.47645  25289017.182    25289016.1984   25289029.5714
        -0.000          -0.000
  -3650256.422 9  -2387574.66746  24037797.893    24037797.8494   24037808.8644
        -0.000          -0.000
 -18271813.599 9 -13992397.38349  21445224.444    21445223.8604   21445231.1084
        -0.000          -0.000
 -16568717.618 9 -12478713.94048  22262542.790    22262542.2334   22262549.6334
        -0.000          -0.000
   2911076.94817   2453802.41744  24081662.541    24081662.2225   24081671.3394
        -0.000          -0.000
 -19658571.668 9 -14272619.35448  21403029.634    21403028.8114   21403035.9954
        -0.000          -0.000
  -9105360.576 9  -7072658.94846  23685201.289    23685201.5364   23685212.7064
        -0.000          -0.000
 99  5  4  1 19 30.0010000  0  8  3 22  6 23 21 26 17 29             0.001710472
  -6851158.062 9  -4588969.46947  22902214.944    22902214.6374   22902222.2264
        -0.000          -0.000
   2449002.945 9   2812160.37545  25302987.348    25302986.2474   25302999.3864
        -0.000          -0.000
  -3531455.139 9  -2295002.34546  24060405.336    24060405.2974   24060416.1744
        -0.000          -0.000
 -18237223.495 9 -13965444.05049  21451806.822    21451806.1644   21451813.4254
        -0.000          -0.000
 -16598237.385 9 -12501716.31548  22256925.218    22256924.7124   22256932.1844
        -0.000          -0.000
   3013706.32017   2533773.34644  24101192.176    24101191.8045   24101201.8964
        -0.000          -0.000
 -19630794.600 9 -14250974.88548  21408315.466    21408314.6624   21408321.8954
        -0.000          -0.000
  -9199682.238 9  -7146156.15146  23667252.380    23667252.6924   23667263.6784
        -0.000          -0.000
 99  5  4  1 20  0.0010000  0  8  3 22  6 23 21 26 17 29             0.001716108
  -6911266.428 9  -4635807.13547  22890776.712    22890776.4254   22890783.9754
        -0.000          -0.000
   2522526.870 9   2869451.56945  25316979.031    25316977.8014   25316990.6484
        -0.000          -0.000
  -3412490.824 9  -2202302.98246  24083044.014    24083043.7554   24083054.3584
        -0.000          -0.000
 -18202403.355 9 -13938311.46849  21458432.877    21458432.2074   21458439.3834
        -0.000          -0.000
 -16627517.321 9 -12524531.81148  22251353.294    22251352.7894   22251360.3934
        -0.000          -0.000
   3116628.64317   2613972.54144  24120778.410    24120777.6025   24120786.9704
        -0.000          -0.000
 -19602756.870 9 -14229127.29149  21413650.859    21413650.0884   21413657.3474
        -0.000          -0.000
  -9293838.146 9  -7219524.19946  23649335.185    23649335.3464   23649346.0494
        -0.000          -0.000
 99  5  4  1 20 30.0010000  0  8  3 22  6 23 21 26 17 29             0.001721745
  -6970950.010 9  -4682313.81147  22879419.332    22879419.0284   22879426.5904
        -0.000          -0.000
   2596154.781 8   2926823.83645  25330989.923    25330988.8514   25331001.7024
        -0.000          -0.000
  -3293357.711 9  -2109472.06646  24105714.418    24105714.1914   24105724.7784
        -0.000          -0.000
 -18167350.630 9 -13910997.64049  21465103.277    21465102.5494   21465109.6134
        -0.000          -0.000
 -16656581.073 9 -12547178.86148  22245822.561    22245822.0984   22245829.8384
        -0.000          -0.000
   3219837.609 7   2694395.00044  24140418.442    24140418.1764   24140427.6044
        -0.000          -0.000
 -19574456.716 9 -14207075.22749  21419036.300    21419035.5104   21419042.8224
        -0.000          -0.000
  -9387818.952 9  -7292755.80446  23631451.269    23631451.3174   23631461.5434
        -0.000          -0.000
 99  5  4  1 21  0.0010000  0  8  3 22  6 23 21 26 17 29             0.001727372
  -7030201.377 9  -4728483.68547  22868144.271    22868143.9334   22868151.4884
        -0.000          -0.000
   2669851.547 8   2984249.70345  25345013.699    25345012.8434   25345025.6864
        -0.000          -0.000
  -3174065.749 9  -2016517.38346  24128415.017    24128414.7054   24128425.4104
        -0.000          -0.000
 -18132082.805 9 -13883516.21348  21471814.484    21471813.7734   21471820.8434
        -0.000          -0.000
 -16685438.887 9 -12569665.43448  22240331.063    22240330.5604   22240338.4224
        -0.000          -0.000
   3323319.43017   2775030.12444  24160110.376    24160110.1255   24160118.8954
        -0.000          -0.000
 -19545894.718 9 -14184819.13848  21424471.362    21424470.5884   21424478.0884
        -0.000          -0.000
  -9481620.951 9  -7365848.07846  23613601.453    23613601.4144   23613611.0834
        -0.000          -0.000
 99  5  4  1 21 30.0010000  0  8  3 22  6 23 21 26 17 29             0.001733014
  -7088967.242 9  -4774275.26247  22856961.506    22856961.1554   22856968.7184
        -0.000          -0.000
   2743634.816 8   3041742.98845  25359054.025    25359053.3434   25359066.0454
        -0.000          -0.000
  -3054581.153 9  -1923412.60446  24151152.075    24151151.9154   24151162.8514
        -0.000          -0.000
 -18096572.444 9 -13855845.79349  21478571.937    21478571.2444   21478578.2244
        -0.000          -0.000
 -16714038.625 9 -12591950.90748  22234888.669    22234888.1874   22234896.1264
        -0.000          -0.000
   3427129.68317   2855921.16954  24179864.582    24179864.0585          0.0005
        -0.000          -0.000
 -19517017.294 9 -14162317.26048  21429966.444    21429965.6844   21429973.2414
        -0.000          -0.000
  -9575208.614 9  -7438773.33946  23595792.307    23595792.1444   23595801.4384
        -0.000          -0.000
 99  5  4  1 22  0.0010000  0  8  3 22  6 23 21 26 17 29             0.001738662
  -7147269.145 9  -4819705.30647  22845867.053    22845866.6864   22845874.2414
        -0.000          -0.000
   2817478.450 8   3099283.33445  25373105.954    25373105.4844   25373118.2974
        -0.000          -0.000
  -2934942.245 8  -1830187.55646  24173918.526    24173918.5144   24173929.6504
        -0.000          -0.000
 -18060869.878 9 -13828025.60549  21485365.974    21485365.2814   21485372.1504
        -0.000          -0.000
 -16742398.718 9 -12614049.64448  22229491.946    22229491.3934   22229499.3624
        -0.000          -0.000
   3531247.60617   2937051.95854         0.000           0.0005          0.0005
        -0.000          -0.000
 -19487835.293 9 -14139578.02848  21435519.555    21435518.8194   21435526.2714
        -0.000          -0.000
  -9668616.079 9  -7511558.19546  23578017.254    23578017.1394   23578026.1594
        -0.000          -0.000
 99  5  4  1 22 30.0010000  0  8  3 22  6 23 21 26 17 29             0.001744284
  -7205136.838 9  -4864797.00247  22834855.128    22834854.7294   22834862.3664
        -0.000          -0.000
   2891340.314 8   3156837.82045  25387161.704    25387161.0734   25387174.1094
        -0.000          -0.000
  -2815205.390 9  -1736886.24446  24196703.828    24196703.7204   24196714.8994
        -0.000          -0.000
 -18025002.234 9 -13800076.78949  21492191.345    21492190.6764   21492197.5534
        -0.000          -0.000
 -16770549.975 9 -12635985.65448  22224134.774    22224134.2724   22224142.3384
        -0.000          -0.000
   3635630.25517   3018389.05454  24219541.508    24219540.8735          0.0005
        -0.000          -0.000
 -19458377.955 9 -14116624.25548  21441125.223    21441124.3994   21441131.7384
        -0.000          -0.000
  -9761876.607 9  -7584228.56546  23560270.193    23560270.0254   23560278.9204
        -0.000          -0.000
 99  5  4  1 23  0.0010000  0  8  3 22  6 23 21 26 17 29             0.001749900
  -7262545.140 9  -4909530.71947  22823930.557    22823930.1524   22823937.8434
        -0.000          -0.000
   2965240.444 9   3214422.14045  25401225.118    25401223.9584   25401236.8464
        -0.000          -0.000
  -2695366.817 9  -1643505.65846  24219508.698    24219508.4334   24219519.3894
        -0.000          -0.000
 -17988944.936 9 -13771980.19349  21499052.849    21499052.1564   21499059.0764
        -0.000          -0.000
 -16798471.732 9 -12657742.84248  22218821.319    22218820.8504   22218829.0014
        -0.000          -0.000
   3740312.01617   3099959.28954  24239462.333    24239461.8575          0.0005
        -0.000          -0.000
 -19428619.867 9 -14093436.14848  21446787.947    21446787.1484   21446794.4564
        -0.000          -0.000
  -9854979.186 9  -7656775.86646  23542553.083    23542552.9204   23542561.8574
        -0.000          -0.000
 99  5  4  1 23 30.0010000  0  8  3 22  6 23 21 26 17 29             0.001755515
  -7319512.376 9  -4953920.74947  22813089.850    22813089.5674   22813097.3244
        -0.000          -0.000
   3039181.853 8   3272038.63545  25415295.888    25415294.6674   25415307.7524
        -0.000          -0.000
  -2575425.190 9  -1550044.79646  24242333.078    24242332.7824   24242343.5264
        -0.000          -0.000
 -17952691.812 9 -13743730.99449  21505951.625    21505950.9004   21505957.7814
        -0.000          -0.000
 -16826173.093 9 -12679328.27448  22213549.952    22213549.4604   22213557.5804
        -0.000          -0.000
   3845296.63017   3181765.42554         0.000           0.0005          0.0005
        -0.000          -0.000
 -19398565.537 9 -14070017.19448  21452507.091    21452506.3094   21452513.5724
        -0.000          -0.000
  -9947931.197 9  -7729205.81646  23524864.819    23524864.6464   23524873.4894
        -0.000          -0.000
 99  5  4  1 24  0.0010000  0  8  3 22  6 23 21 26 17 29             0.001761074
  -7376051.052 9  -4997976.84047  22802330.824    22802330.5654   22802338.3694
        -0.000          -0.000
   3113171.478 8   3329692.68845  25429375.696    25429374.6404   25429387.6084
        -0.000          -0.000
  -2455367.294 9  -1456493.28846  24265179.603    24265179.2664   24265189.8544
        -0.000          -0.000
 -17916225.622 9 -13715315.76649  21512890.923    21512890.1464   21512896.9864
        -0.000          -0.000
 -16853657.970 9 -12700745.03148  22208319.869    22208319.3014   22208327.2844
        -0.000          -0.000
   3950570.63717     21291.17452         0.000           0.0005          0.0005
        -0.000          -0.000
 -19368225.848 9 -14046375.87848  21458280.493    21458279.7324   21458286.9074
        -0.000          -0.000
 -10040717.330 9  -7801506.51246  23507208.009    23507207.7194   23507216.6814
        -0.000          -0.000
 99  5  4  1 24 30.0010000  0  8  3 22  6 23 21 26 17 29             0.001766661
  -7432184.604 9  -5041717.23647  22791648.813    22791648.6704   22791656.4704
        -0.000          -0.000
   3187179.626 9   3387361.19445  25443459.596    25443458.5584   25443471.0654
        -0.000          -0.000
  -2335209.885 9  -1362864.26546  24288044.877    24288044.5374   24288054.9104
        -0.000          -0.000
 -17879556.596 9 -13686742.49249  21519868.783    21519868.0164   21519874.9254
        -0.000          -0.000
 -16880967.149 9 -12722024.88048  22203123.110    22203122.5184   22203130.4224
        -0.000          -0.000
   4056100.04717    103570.71552         0.000           0.0005          0.0005
        -0.000          -0.000
 -19337630.736 9 -14022535.53848  21464102.568    21464101.8114   21464108.8884
        -0.000          -0.000
 -10133339.152 9  -7873679.20446  23489582.470    23489582.2814   23489591.3004
        -0.000          -0.000
 99  5  4  1 25  0.0010000  0  8  3 22  6 23 21 26 17 29             0.001772251
  -7487889.531 9  -5085123.64547  22781048.592    22781048.4084   22781056.2374
        -0.000          -0.000
   3261238.587 8   3445069.25445  25457552.966    25457551.8044   25457564.2314
        -0.000          -0.000
  -2214916.052 9  -1269128.94146  24310936.029    24310935.5694   24310945.9964
        -0.000          -0.000
 -17842668.601 9 -13657998.59849  21526888.278    21526887.5864   21526894.5044
        -0.000          -0.000
 -16908074.744 9 -12743147.64048  22197964.638    22197964.0794   22197971.8594
        -0.000          -0.000
   4161918.394 7    186143.78652         0.000           0.0004          0.0005
        -0.000          -0.000
 -19306752.615 9 -13998474.67648  21469978.432    21469977.7144   21469984.8454
        -0.000          -0.000
 -10225755.152 9  -7945691.49746  23471996.317    23471996.0654   23472005.1174
        -0.000          -0.000
 99  5  4  1 25 30.0010000  0  8  3 22  6 23 21 26 17 29             0.001777831
  -7543173.170 9  -5128201.77247  22770528.617    22770528.4614   22770536.3094
        -0.000          -0.000
   3335325.547 8   3502799.20745  25471651.335    25471650.1824   25471662.9054
        -0.000          -0.000
  -2094490.984 9  -1175291.36246  24333852.198    24333851.6354   24333862.1534
        -0.000          -0.000
 -17805583.776 9 -13629101.31649  21533945.351    21533944.7004   21533951.4874
        -0.000          -0.000
 -16934974.298 9 -12764108.29248  22192845.883    22192845.3234   22192852.9694
        -0.000          -0.000
   4267987.46817     14559.59452         0.000           0.0005          0.0005
        -0.000          -0.000
 -19275611.209 9 -13974208.66148  21475904.472    21475903.7414   21475910.8964
        -0.000          -0.000
 -10317963.803 9  -8017542.22446  23454449.406    23454449.2734   23454458.3444
        -0.000          -0.000
 99  5  4  1 26  0.0010000  0  8  3 22  6 23 21 26 17 29             0.001783405
  -7598002.484 9  -5170925.88747  22760095.151    22760094.8944   22760102.6144
        -0.000          -0.000
   3409447.499 8   3560556.39745  25485755.580    25485754.6804   25485767.8364
        -0.000          -0.000
  -1973944.201 9  -1081358.93046  24356791.707    24356791.2244   24356801.5504
        -0.000          -0.000
 -17768308.038 9 -13600055.28549  21541038.706    21541038.0604   21541044.8274
        -0.000          -0.000
 -16961644.700 9 -12784890.38548  22187770.715    22187770.0774   22187777.8134
        -0.000          -0.000
   4374302.43517     97403.35252         0.000           0.0005          0.0005
        -0.000          -0.000
 -19244188.494 9 -13949723.43648  21481883.906    21481883.1824   21481890.3274
        -0.000          -0.000
 -10409955.682 9  -8089224.04746  23436943.910    23436943.7724   23436952.7184
        -0.000          -0.000
 99  5  4  1 26 30.0010000  0  8  3 22  6 23 21 26 17 29             0.001788989
  -7652344.520 9  -5213270.28947  22749754.151    22749753.8744   22749761.6584
        -0.000          -0.000
   3483618.750 8   3618351.95945  25499869.718    25499869.1284   25499882.7044
        -0.000          -0.000
  -1853275.901 9   -987331.81445  24379754.330    24379753.9174   24379764.0804
        -0.000          -0.000
 -17730836.205 9 -13570856.45649  21548169.325    21548168.6834   21548175.5584
        -0.000          -0.000
 -16988070.973 9 -12805482.24748  22182741.870    22182741.3084   22182749.0174
        -0.000          -0.000
   4480885.67118    180458.12252         0.000           0.0005          0.0005
        -0.000          -0.000
 -19212461.910 9 -13925001.42248  21487921.344    21487920.6524   21487927.7184
        -0.000          -0.000
 -10501734.010 9  -8160739.45447  23419479.027    23419478.9624   23419487.7414
        -0.000          -0.000
 99  5  4  1 27  0.0010000  0  8  3 22  6 23 21 26 17 29             0.001794581
  -7706195.930 9  -5255232.39247  22739506.362    22739506.0594   22739513.9714
        -0.000          -0.000
   3557838.274 8   3676185.15845  25513993.228    25513992.6704   25514006.2504
        -0.000          -0.000
  -1732497.985 9   -893219.29246  24402738.092    24402737.6454   24402747.7154
        -0.000          -0.000
 -17693174.465 9 -13541509.64149  21555336.121    21555335.4524   21555342.3334
        -0.000          -0.000
 -17014232.321 9 -12825867.66748  22177763.501    22177762.9244   22177770.6284
        -0.000          -0.000
   4587738.73018      7722.98052         0.000           0.0005          0.0005
        -0.000          -0.000
 -19180427.944 9 -13900039.88748  21494017.351    21494016.6624   21494023.6764
        -0.000          -0.000
 -10593315.962 9  -8232101.85547  23402051.824    23402051.6074   23402060.1724
        -0.000          -0.000
 99  5  4  1 27 30.0010000  0  8  3 22  6 23 21 26 17 29             0.001800157
  -7759571.294 9  -5296823.56247  22729349.110    22729348.9394   22729356.9184
        -0.000          -0.000
   3632082.971 9   3734037.94845  25528121.734    25528120.8904   25528134.4324
        -0.000          -0.000
  -1611638.491 9   -799043.19946  24425736.948    24425736.5554   24425746.8064
        -0.000          -0.000
 -17655336.489 9 -13512025.49648  21562536.398    21562535.7274   21562542.6074
        -0.000          -0.000
 -17040141.630 9 -12846056.69448  22172833.031    22172832.5274   22172840.1994
        -0.000          -0.000
   4694828.179 8     91153.61242         0.000           0.0004          0.0004
        -0.000          -0.000
 -19148107.808 9 -13874855.37048  21500167.730    21500166.9744   21500174.0574
        -0.000          -0.000
 -10684727.399 9  -8303331.40447  23384656.980    23384656.5894   23384665.2104
        -0.000          -0.000
 99  5  4  1 28  0.0010000  0  8  3 22  6 23 21 26 17 29             0.001805732
  -7812469.346 9  -5338042.79547  22719283.048    22719282.7974   22719290.7394
        -0.000          -0.000
   3706380.478 9   3791931.89645  25542260.543    25542259.4604   25542273.1104
        -0.000          -0.000
  -1490680.072 9   -704790.02546  24448754.539    24448754.2704   24448764.6104
        -0.000          -0.000
 -17617298.717 9 -13482385.67248  21569774.588    21569773.9964   21569780.9874
        -0.000          -0.000
 -17065804.062 9 -12866053.35648  22167949.768    22167949.1884   22167956.7464
        -0.000          -0.000
   4802190.492 8    174749.42152         0.000           0.0004          0.0005
        -0.000          -0.000
 -19115479.329 9 -13849430.58748  21506376.627    21506375.9164   21506383.0734
        -0.000          -0.000
 -10775949.539 9  -8374413.46047  23367297.803    23367297.4474   23367306.1014
        -0.000          -0.000
 99  5  4  1 28 30.0010000  0  8  3 22  6 23 21 26 17 29             0.001811290
  -7864935.134 9  -5378925.20947  22709299.314    22709298.9794   22709306.8384
        -0.000          -0.000
   3780705.459 8   3849847.27545  25556404.251    25556403.4794   25556416.8024
        -0.000          -0.000
  -1369646.615 9   -610478.40146  24471786.602    24471786.2054   24471796.5884
        -0.000          -0.000
 -17579077.476 9 -13452602.88348  21577047.813    21577047.2314   21577054.2964
        -0.000          -0.000
 -17091262.916 9 -12885891.39448  22163105.069    22163104.5124   22163112.0194
        -0.000          -0.000
   4909805.11017       783.41752         0.000           0.0005          0.0005
        -0.000          -0.000
 -19082575.832 9 -13823791.50748  21512637.965    21512637.2114   21512644.3334
        -0.000          -0.000
 -10866995.054 9  -8445357.87346  23349972.065    23349971.8714   23349980.5644
        -0.000          -0.000
 99  5  4  1 29  0.0010000  0  8  3 22  6 23 21 26 17 29             0.001816832
  -7916977.092 9  -5419477.35247  22699396.121    22699395.7954   22699403.4764
        -0.000          -0.000
   3855048.904 8   3907777.03345  25570551.931    25570550.8454   25570564.3994
        -0.000          -0.000
  -1248530.480 9   -516102.31546  24494834.220    24494833.9194   24494844.3004
        -0.000          -0.000
 -17540679.294 9 -13422682.21548  21584354.757    21584354.1824   21584361.2364
        -0.000          -0.000
 -17116518.853 9 -12905571.30848  22158299.003    22158298.4694   22158305.9564
        -0.000          -0.000
   5017662.566 7     84821.96242         0.000           0.0004          0.0004
        -0.000          -0.000
 -19049395.501 9 -13797936.70648  21518951.906    21518951.1704   21518958.3814
        -0.000          -0.000
 -10957838.034 9  -8516144.44446  23332685.009    23332684.7494   23332693.4754
        -0.000          -0.000
 99  5  4  1 29 30.0010000  0  8  3 22  6 23 21 26 17 29             0.001822379
  -7968573.632 9  -5459682.41147  22689577.758    22689577.4524   22689584.8864
        -0.000          -0.000
   3929438.007 8   3965742.34245  25584707.781    25584706.8064   25584720.6324
        -0.000          -0.000
  -1127290.549 9   -421629.78746  24517905.525    24517905.2374   24517915.6384
        -0.000          -0.000
 -17502083.481 9 -13392607.55248  21591699.298    21591698.6984   21591705.7934
        -0.000          -0.000
 -17141563.504 9 -12925086.60248  22153533.209    22153532.6484   22153540.1284
        -0.000          -0.000
   5125792.00317    169041.26752         0.000           0.0005          0.0005
        -0.000          -0.000
 -19015904.061 9 -13771839.49248  21525325.139    21525324.3484   21525331.6274
        -0.000          -0.000
 -11048438.818 9  -8586742.33146  23315443.963    23315443.6954   23315452.5904
        -0.000          -0.000
 99  5  4  1 30  0.0010000  0  8  3 22  6 23 21 26 17 29             0.001827926
  -8019735.441 9  -5499548.74847  22679842.183    22679841.7824   22679849.0644
        -0.000          -0.000
   4003855.112 8   4023729.44245  25598868.772    25598867.9224   25598882.0804
        -0.000          -0.000
  -1005946.608 9   -327076.19846  24540996.610    24540996.1924   24541006.9704
        -0.000          -0.000
 -17463317.529 9 -13362400.32448  21599076.155    21599075.5814   21599082.7564
        -0.000          -0.000
 -17166425.788 9 -12944459.78048  22148802.040    22148801.4444   22148808.9944
        -0.000          -0.000
   5234177.468 7    253460.03752         0.000           0.0004          0.0005
        -0.000          -0.000
 -18982114.649 9 -13745510.09448  21531754.958    21531754.2074   21531761.5924
        -0.000          -0.000
 -11138805.569 9  -8657157.84946  23298247.377    23298247.1794   23298256.1664
        -0.000          -0.000
 99  5  4  1 30 30.0010000  0  8  3 22  6 23 21 26 17 29             0.001833476
  -8070433.666 9  -5539053.83347  22670194.697    22670194.2714   22670201.4994
        -0.000          -0.000
   4078302.613 9   4081740.27245  25613035.901    25613035.0344   25613048.9654
        -0.000          -0.000
   -884485.125 8   -232430.99546  24564109.833    24564109.4614   24564120.6294
        -0.000          -0.000
 -17424379.806 9 -13332059.23948  21606485.813    21606485.2214   21606492.3164
        -0.000          -0.000
 -17191082.790 9 -12963672.99348  22144109.954    22144109.3424   22144116.8964
        -0.000          -0.000
   5342806.62117     78357.72952         0.000           0.0005          0.0005
        -0.000          -0.000
 -18948019.645 9 -13718942.56648  21538243.040    21538242.2854   21538249.7224
        -0.000          -0.000
 -11228931.773 9  -8727385.92746  23281096.615    23281096.5134   23281105.5184
        -0.000          -0.000
 99  5  4  1 31  0.0010000  0  8  3 22  6 23 21 26 17 29             0.001839035
  -8120655.485 9  -5578187.70747  22660637.937    22660637.4974   22660644.5444
        -0.000          -0.000
   4152786.291 9   4139779.28745  25627210.087    25627209.0214   25627222.9104
        -0.000          -0.000
   -762888.445 8   -137680.44445  24587248.635    24587248.4524   24587259.9364
        -0.000          -0.000
 -17385260.179 9 -13301576.40148  21613930.176    21613929.5284   21613936.4984
        -0.000          -0.000
 -17215511.896 9 -12982708.62848  22139461.131    22139460.5314   22139468.1984
        -0.000          -0.000
   5451675.83017    163159.58752         0.000           0.0005          0.0005
        -0.000          -0.000
 -18913610.620 9 -13692130.34548  21544790.920    21544790.1924   21544797.5944
        -0.000          -0.000
 -11318825.334 9  -8797432.72846  23263990.474    23263990.2354   23263999.1144
        -0.000          -0.000
 99  5  4  1 31 30.0010000  0  8  3 22  6 23 21 26 17 29             0.001844585
  -8170409.465 9  -5616957.03147  22651170.009    22651169.5224   22651176.7604
        -0.000          -0.000
   4227290.611 8   4197834.37045  25641387.975    25641387.0274   25641400.8714
        -0.000          -0.000
   -641189.490 8    -42850.20945  24610406.713    24610406.6314   24610418.6564
        -0.000          -0.000
 -17345957.608 9 -13270951.01948  21621409.201    21621408.5504   21621415.5144
        -0.000          -0.000
 -17239729.746 9 -13001579.65748  22134852.564    22134851.9414   22134859.7324
        -0.000          -0.000
   5560772.51217    248138.71752         0.000           0.0005          0.0005
        -0.000          -0.000
 -18878910.170 9 -13665091.03948  21551394.165    21551393.4014   21551400.9424
        -0.000          -0.000
 -11408521.597 9  -8867325.81846  23246921.713    23246921.5314   23246930.3134
        -0.000          -0.000
 99  5  4  1 32  0.0010000  0  8  3 22  6 23 21 26 17 29             0.001850140
  -8219666.532 9  -5655339.15947  22641796.599    22641796.1114   22641803.3604
        -0.000          -0.000
   4301818.479 8   4255907.83345  25655570.590    25655569.4894   25655583.0404
        -0.000          -0.000
   -519385.937 8     52061.51945  24633584.941    24633585.0444   24633597.0724
        -0.000          -0.000
 -17306446.097 9 -13240162.82048  21628928.039    21628927.3854   21628934.3344
        -0.000          -0.000
 -17263710.192 9 -13020265.68448  22130289.382    22130288.7304   22130296.3994
        -0.000          -0.000
   5670109.16416     73180.79352         0.000           0.0005          0.0005
        -0.000          -0.000
 -18843916.415 9 -13637823.17848  21558053.211    21558052.4814   21558060.0634
        -0.000          -0.000
 -11498007.081 9  -8937054.63646  23229893.218    23229892.9204   23229901.5284
        -0.000          -0.000
 99  5  4  1 32 30.0010000  0  9  3 22  6 23 21 26 17 29 31          0.001855684
  -8268458.242 9  -5693358.67147  22632511.725    22632511.2384   22632518.5634
        -0.000          -0.000
   4376325.445 8   4313965.00445  25669748.477    25669747.4944   25669760.9754
        -0.000          -0.000
   -397512.094 8    147028.00245  24656777.076    24656776.9984   24656789.1524
        -0.000          -0.000
 -17266742.027 9 -13209224.58048  21636483.508    21636482.8654   21636489.8044
        -0.000          -0.000
 -17287467.410 9 -13038777.77748  22125768.630    22125767.9104   22125775.5414
        -0.000          -0.000
   5779666.15716    158496.46252         0.000           0.0005          0.0005
        -0.000          -0.000
 -18808655.293 9 -13610346.98548  21564763.304    21564762.5254   21564770.0394
        -0.000          -0.000
 -11587310.676 9  -9006641.73946  23212899.103    23212898.9454   23212907.3444
        -0.000          -0.000
   -300144.07718   -198277.47054         0.000           0.0005   25425875.0095
        -0.000          -0.000
 99  5  4  1 33  0.0010000  0  8  3 22  6 23 21 17 29 31             0.001861462
  -8316778.863 9  -5731011.08747  22623316.535    22623316.0444   22623323.4444
        -0.000          -0.000
   4450798.226 8   4371995.53145  25683920.026    25683919.1324   25683932.6434
        -0.000          -0.000
   -275590.463 8    242031.75645  24679978.276    24679977.9664   24679990.0374
        -0.000          -0.000
 -17226843.957 9 -13178135.18048  21644075.908    21644075.2484   21644082.1904
        -0.000          -0.000
 -17310997.409 9 -13057112.82348  22121290.768    22121290.1894   22121297.9454
        -0.000          -0.000
 -18773117.049 9 -13582654.84048  21571526.080    21571525.2544   21571532.6694
        -0.000          -0.000
 -11676418.438 9  -9076076.23146  23195942.452    23195942.1644   23195950.3294
        -0.000          -0.000
   -388241.05818   -266924.44445  25409099.143    25409097.3885   25409109.4364
        -0.000          -0.000
 99  5  4  1 33 30.0010000  0  8  3 22  6 23 21 17 29 31             0.001866997
  -8364594.714 9  -5768270.17347  22614217.438    22614216.9834   22614224.3344
        -0.000          -0.000
   4525244.218 8   4430005.21845  25698087.033    25698086.0944   25698099.4484
        -0.000          -0.000
   -153616.639 8    337076.14445  24703189.481    24703189.1984   24703200.9774
        -0.000          -0.000
 -17186748.688 9 -13146892.10548  21651705.823    21651705.1564   21651712.0244
        -0.000          -0.000
 -17334286.024 9 -13075259.77148  22116859.176    22116858.5774   22116866.2694
        -0.000          -0.000
 -18737275.381 9 -13554726.27548  21578346.480    21578345.6324   21578353.0984
        -0.000          -0.000
 -11765283.463 9  -9145321.60546  23179031.984    23179031.7114   23179039.5504
        -0.000          -0.000
   -476123.682 8   -335404.32345  25392375.694    25392374.2754   25392384.5394
        -0.000          -0.000
 99  5  4  1 34  0.0010000  0  8  3 22  6 23 21 17 29 31             0.001872507
  -8411920.238 9  -5805147.18147  22605211.749    22605211.2784   22605218.5744
        -0.000          -0.000
   4599642.357 8   4487977.59045  25712244.991    25712243.9344   25712257.4064
        -0.000          -0.000
    -31597.461 8    432155.89945  24726409.325    24726409.0824   24726420.3434
        -0.000          -0.000
 -17146492.286 9 -13115523.47048  21659366.384    21659365.7134   21659372.5264
        -0.000          -0.000
 -17357353.380 9 -13093234.31248  22112469.683    22112469.0164   22112476.6494
        -0.000          -0.000
 -18701135.785 9 -13526565.56248  21585223.426    21585222.6324   21585230.1864
        -0.000          -0.000
 -11853900.730 9  -9214373.91846  23162168.433    23162168.3744   23162176.0264
        -0.000          -0.000
   -563796.363 8   -403720.62245  25375692.231    25375692.0044   25375701.6984
        -0.000          -0.000
 99  5  4  1 34 30.0010000  0  8  3 22  6 23 21 17 29 31             0.001878003
  -8458743.190 9  -5841632.57647  22596301.762    22596301.2464   22596308.4814
        -0.000          -0.000
   4674014.890 8   4545930.01845  25726397.627    25726396.6554   25726410.0534
        -0.000          -0.000
     90484.736 8    527284.73845  24749641.213    24749640.8794   24749651.9114
        -0.000          -0.000
 -17106059.781 9 -13084017.62448  21667060.400    21667059.7374   21667066.5624
        -0.000          -0.000
 -17380199.136 9 -13111036.18148  22108122.176    22108121.5664   22108129.2394
        -0.000          -0.000
 -18664678.148 9 -13498157.01048  21592161.043    21592160.2884   21592167.7754
        -0.000          -0.000
 -11942249.735 9  -9283217.17247  23145356.258    23145356.1434   23145363.5814
        -0.000          -0.000
   -651240.029 8   -471858.48845  25359052.133    25359051.5054   25359061.9494
        -0.000          -0.000
 99  5  4  1 35  0.0010000  0  8  3 22  6 23 21 17 29 31             0.001883496
  -8505077.495 9  -5877737.20847  22587484.697    22587484.0904   22587491.2584
        -0.000          -0.000
   4748360.770 9   4603861.67445  25740545.633    25740544.4714   25740558.0014
        -0.000          -0.000
    212619.073 8    622454.16745  24772883.152    24772882.7504   24772893.2544
        -0.000          -0.000
 -17065481.386 9 -13052398.10548  21674782.137    21674781.4714   21674788.3024
        -0.000          -0.000
 -17402860.074 9 -13128694.02448  22103809.975    22103809.2814   22103816.9464
        -0.000          -0.000
 -18627922.297 9 -13469516.09148  21599155.542    21599154.7464   21599162.1284
        -0.000          -0.000
 -12030355.557 9  -9351870.93647  23128590.328    23128590.0904   23128597.4534
        -0.000          -0.000
   -738468.044 8   -539828.30945  25342452.757    25342452.3254   25342463.1734
        -0.000          -0.000
 99  5  4  1 35 30.0010000  0  8  3 22  6 23 21 17 29 31             0.001889007
  -8550908.136 9  -5913449.37747  22578763.275    22578762.7784   22578769.9654
        -0.000          -0.000
   4822720.992 8   4661804.51045  25754696.338    25754695.0054   25754708.3344
        -0.000          -0.000
    334833.595 8    717686.11645  24796140.080    24796139.6794   24796149.8744
        -0.000          -0.000
 -17024741.292 9 -13020652.57948  21682534.725    21682534.0444   21682540.9184
        -0.000          -0.000
 -17425324.491 9 -13146198.72848  22099535.179    22099534.4614   22099542.1004
        -0.000          -0.000
 -18590858.680 9 -13440635.36148  21606208.548    21606207.7634   21606215.1924
        -0.000          -0.000
 -12118203.005 9  -9420323.39347  23111873.264    23111873.1844   23111880.6284
        -0.000          -0.000
   -825451.581 8   -607607.61445  25325900.432    25325899.8944   25325910.4674
        -0.000          -0.000
 99  5  4  1 36  0.0010000  0  8  3 22  6 23 21 17 29 31             0.001894542
  -8596244.935 9  -5948776.72548  22570135.971    22570135.5104   22570142.6744
        -0.000          -0.000
   4897108.270 8   4719768.38845  25768851.969    25768850.6464   25768864.1184
        -0.000          -0.000
    457129.009 8    812981.09745  24819412.260    24819411.9594   24819422.0474
        -0.000          -0.000
 -16983825.551 9 -12988770.18248  21690320.778    21690320.0744   21690326.8874
        -0.000          -0.000
 -17447593.022 9 -13163550.80048  22095297.613    22095296.8744   22095304.5764
        -0.000          -0.000
 -18553493.234 9 -13411519.44348  21613318.962    21613318.1714   21613325.5954
        -0.000          -0.000
 -12205814.722 9  -9488592.14347  23095201.311    23095201.1964   23095208.7234
        -0.000          -0.000
   -912187.026 8   -675193.60445  25309395.703    25309394.9004   25309404.8684
        -0.000          -0.000
 99  5  4  1 36 30.0010000  0  8  3 22  6 23 21 17 29 31             0.001900081
  -8641108.254 9  -5983735.12948  22561598.900    22561598.3214   22561605.4834
        -0.000          -0.000
   4971511.164 8   4777744.42645  25783010.794    25783009.2944   25783022.8774
        -0.000          -0.000
    579494.245 8    908330.45645  24842697.401    24842697.0794   24842707.6994
        -0.000          -0.000
 -16942742.506 9 -12956757.41248  21698138.530    21698137.8224   21698144.6884
        -0.000          -0.000
 -17469665.794 9 -13180750.33048  22091097.125    22091096.4224   22091104.2474
        -0.000          -0.000
 -18515835.052 9 -13382175.40448  21620485.205    21620484.4304   21620491.6214
        -0.000          -0.000
 -12293202.981 9  -9556686.77047  23078571.895    23078571.7274   23078579.3794
        -0.000          -0.000
   -998686.873 8   -742595.98345  25292935.373    25292934.4264   25292944.5294
        -0.000          -0.000
 99  5  4  1 37  0.0010000  0  8  3 22  6 23 21 17 29 31             0.001905623
  -8685487.942 9  -6018316.67548  22553153.704    22553153.1474   22553160.3094
        -0.000          -0.000
   5045929.856 8   4835732.81745  25797172.184    25797170.7414   25797184.3814
        -0.000          -0.000
    701926.559 8   1003732.09845  24865995.281    24865995.0804   24866005.9554
        -0.000          -0.000
 -16901512.138 9 -12924629.85648  21705984.350    21705983.6504   21705990.5464
        -0.000          -0.000
 -17491524.348 9 -13197782.92848  22086937.424    22086936.7924   22086944.6574
        -0.000          -0.000
 -18477870.547 9 -13352592.68248  21627709.643    21627708.8294   21627716.0254
        -0.000          -0.000
 -12380358.844 9  -9624600.31847  23061986.684    23061986.5394   23061994.2634
        -0.000          -0.000
  -1084944.055 8   -809809.31145  25276520.961    25276520.1594   25276530.2324
        -0.000          -0.000
 99  5  4  1 37 30.0010000  0  8  3 22  6 23 21 17 29 31             0.001911154
  -8729386.041 9  -6052522.95848  22544799.992    22544799.5304   22544806.7414
        -0.000          -0.000
   5120346.330 8   4893719.44945  25811333.097    25811331.8474   25811346.0554
        -0.000          -0.000
    824413.681 8   1099176.47845  24889303.794    24889303.4844   24889314.8304
        -0.000          -0.000
 -16860144.804 9 -12892395.57748  21713856.251    21713855.6004   21713862.5084
        -0.000          -0.000
 -17513174.965 9 -13214653.51348  22082817.443    22082816.8244   22082824.6494
        -0.000          -0.000
 -18439604.544 9 -13322775.01848  21634991.494    21634990.6784   21634997.8594
        -0.000          -0.000
 -12467273.345 9  -9692325.78747  23045447.377    23045447.1594   23045454.9524
        -0.000          -0.000
  -1170961.138 8   -876835.54645  25260152.312    25260151.6324   25260161.6364
        -0.000          -0.000
 99  5  4  1 38  0.0010000  0  8  3 22  6 23 21 17 29 31             0.001916681
  -8772790.944 9  -6086344.92948  22536540.072    22536539.6794   22536546.9564
        -0.000          -0.000
   5194751.802 8   4951697.50345  25825491.772    25825490.5144   25825504.9814
        -0.000          -0.000
    946967.297 8   1194672.65945  24912624.816    24912624.5884   24912636.2044
        -0.000          -0.000
 -16818629.495 9 -12860046.00048  21721756.350    21721755.7214   21721762.6584
        -0.000          -0.000
 -17534611.839 9 -13231357.54148  22078738.273    22078737.5884   22078745.3064
        -0.000          -0.000
 -18401016.742 9 -13292706.61948  21642334.536    21642333.7044   21642340.9304
        -0.000          -0.000
 -12553930.032 9  -9759850.33447  23028957.174    23028956.8354   23028964.6474
        -0.000          -0.000
  -1256719.441 8   -943660.11845  25243832.697    25243832.2594   25243842.1724
        -0.000          -0.000
 99  5  4  1 38 30.0010000  0  8  3 22  6 23 21 17 29 31             0.001922195
  -8815708.577 9  -6119787.21948  22528372.852    22528372.5424   22528379.8354
        -0.000          -0.000
   5269119.039 8   5009645.79145  25839643.879    25839642.5874   25839656.8544
        -0.000          -0.000
   1069572.157 8   1290208.76945  24935955.762    24935955.5474   24935967.3974
        -0.000          -0.000
 -16776989.273 9 -12827599.08048  21729680.132    21729679.5264   21729686.5124
        -0.000          -0.000
 -17555848.387 9 -13247905.47148  22074697.254    22074696.5254   22074704.0274
        -0.000          -0.000
 -18362119.541 9 -13262397.12848  21649736.536    21649735.6904   21649742.8784
        -0.000          -0.000
 -12640325.248 9  -9827171.16947  23012516.515    23012516.2474   23012524.2094
        -0.000          -0.000
  -1342223.823 8  -1010286.86545  25227561.790    25227561.2544   25227571.3384
        -0.000          -0.000
 99  5  4  1 39  0.0010000  0  8  3 22  6 23 21 17 29 31             0.001927695
  -8858132.654 9  -6152844.91647  22520299.560    22520299.3214   22520306.6974
        -0.000          -0.000
   5343435.738 8   5067554.70545  25853785.491    25853784.3184   25853798.8114
        -0.000          -0.000
   1192196.136 8   1385759.76145  24959290.403    24959290.1734   24959302.1224
        -0.000          -0.000
 -16735228.724 9 -12795058.39948  21737626.827    21737626.2744   21737633.2164
        -0.000          -0.000
 -17576911.880 9 -13264318.55448  22070689.113    22070688.3504   22070695.7104
        -0.000          -0.000
 -18322936.706 9 -13231865.06248  21657192.762    21657191.9584   21657199.1644
        -0.000          -0.000
 -12726477.970 9  -9894303.04547  22996121.972    22996121.7774   22996129.8834
        -0.000          -0.000
  -1427484.410 8  -1076723.62445  25211337.506    25211336.5254   25211346.7794
        -0.000          -0.000
 99  5  4  1 39 30.0010000  0  8  3 22  6 23 21 17 29 31             0.001933182
  -8900058.559 9  -6185514.41648  22512321.178    22512320.9654   22512328.4174
        -0.000          -0.000
   5417700.106 8   5125422.75945  25867917.233    25867916.4144   25867931.2874
        -0.000          -0.000
   1314842.576 8   1481328.27545  24982629.438    24982628.9364   24982640.8614
        -0.000          -0.000
 -16693303.375 9 -12762389.29348  21745604.884    21745604.3724   21745611.3084
        -0.000          -0.000
 -17597804.108 9 -13280598.18348  22066713.422    22066712.5934   22066720.1204
        -0.000          -0.000
 -18283456.755 9 -13201101.47348  21664705.584    21664704.7574   21664711.9674
        -0.000          -0.000
 -12812376.838 9  -9961237.11147  22979775.762    22979775.5334   22979783.8024
        -0.000          -0.000
  -1512491.172 8  -1142962.57445  25195161.504    25195160.5644   25195170.2744
        -0.000          -0.000
 99  5  4  1 40  0.0010000  0  8  3 22  6 23 21 17 29 31             0.001938648
  -8941483.026 9  -6217793.18248  22504438.218    22504438.0524   22504445.6414
        -0.000          -0.000
   5491904.383 8   5183244.04545  25882038.081    25882037.5074   25882051.5654
        -0.000          -0.000
   1437508.229 8   1576911.80245  25005972.024    25005971.5064   25005983.1674
        -0.000          -0.000
 -16651186.861 9 -12729571.23748  21753619.421    21753618.8934   21753625.8784
        -0.000          -0.000
 -17618501.563 9 -13296726.04148  22062774.758    22062773.9804   22062781.5284
        -0.000          -0.000
 -18243684.229 9 -13170109.88748  21672274.050    21672273.2574   21672280.3894
        -0.000          -0.000
 -12898024.000 9 -10027975.02447  22963477.565    22963477.3164   22963485.5324
        -0.000          -0.000
  -1597238.377 8  -1208999.32045  25179034.758    25179034.0164   25179043.4284
        -0.000          -0.000
 99  5  4  1 40 30.0010000  0  8  3 22  6 23 21 17 29 31             0.001944105
  -8982381.379 9  -6249661.99848  22496655.524    22496655.3304   22496662.9304
        -0.000          -0.000
   5566056.704 8   5241024.81945  25896149.195    25896148.7194   25896162.4364
        -0.000          -0.000
   1560189.079 8   1672507.13045  25029317.462    25029317.1944   25029328.4644
        -0.000          -0.000
 -16608866.799 9 -12696594.57248  21761672.694    21761672.1184   21761679.1264
        -0.000          -0.000
 -17638992.714 9 -13312693.14848  22058875.351    22058874.5594   22058882.2144
        -0.000          -0.000
 -18203608.731 9 -13138882.23248  21679900.159    21679899.3384   21679906.5054
        -0.000          -0.000
 -12983408.711 9 -10094508.44847  22947229.248    22947228.9744   22947237.1624
        -0.000          -0.000
  -1681721.183 8  -1274830.03145  25162958.499    25162957.6474   25162966.6964
        -0.000          -0.000
 99  5  4  1 41  0.0010000  0  8  3 22  6 23 21 17 29 31             0.001949556
  -9022752.354 9  -6281119.87048  22488973.301    22488973.0284   22488980.5574
        -0.000          -0.000
   5640161.016 8   5298768.14145  25910250.857    25910250.1974   25910264.7074
        -0.000          -0.000
   1682887.759 8   1768116.34845  25052666.194    25052666.0404   25052677.5394
        -0.000          -0.000
 -16566336.888 9 -12663454.38248  21769765.803    21769765.2754   21769772.2784
        -0.000          -0.000
 -17659285.012 9 -13328505.30948  22055013.675    22055012.9434   22055020.7774
        -0.000          -0.000
 -18163220.420 9 -13107410.83048  21687585.801    21687585.0374   21687592.1734
        -0.000          -0.000
 -13068526.797 9 -10160834.09647  22931031.782    22931031.4774   22931039.5574
        -0.000          -0.000
  -1765943.965 8  -1340458.10945  25146931.618    25146930.6924   25146939.4554
        -0.000          -0.000
 99  5  4  1 41 30.0010000  0  9  3 22  6 23 21 17 29 31  1          0.001954993
  -9062615.948 9  -6312182.38048  22481387.552    22481387.2404   22481394.6954
        -0.000          -0.000
   5714208.583 8   5356467.33845  25924341.887    25924340.9924   25924355.7884
        -0.000          -0.000
   1805611.248 8   1863744.91645  25076019.864    25076019.9524   25076031.0134
        -0.000          -0.000
 -16523614.964 9 -12630164.56848  21777895.397    21777894.8874   21777901.8974
        -0.000          -0.000
 -17679375.780 9 -13344160.43048  22051190.434    22051189.7594   22051197.6224
        -0.000          -0.000
 -18122523.781 9 -13075699.18048  21695330.183    21695329.3764   21695336.4904
        -0.000          -0.000
 -13153376.201 9 -10226950.39647  22914885.566    22914885.0664   22914893.0874
        -0.000          -0.000
  -1849902.965 8  -1405880.66545  25130954.682    25130953.8934   25130962.2654
        -0.000          -0.000
   -290369.06818   -213322.76155  25702465.716    25702465.7735   25702485.5125
        -0.000          -0.000
 99  5  4  1 42  0.0010000  0  9  3 22  6 23 21 17 29 31  1          0.001960431
  -9101966.364 9  -6342845.01348  22473899.461    22473899.1534   22473906.5604
        -0.000          -0.000
   5788215.354 8   5414134.70745  25938425.030    25938424.2714   25938438.7734
        -0.000          -0.000
   1928373.318 8   1959403.48945  25099380.908    25099380.8204   25099392.0674
        -0.000          -0.000
 -16480730.868 9 -12596748.38848  21786055.940    21786055.3984   21786062.5124
        -0.000          -0.000
 -17699252.970 9 -13359649.13648  22047407.914    22047407.2784   22047415.0354
        -0.000          -0.000
 -18081517.431 9 -13043746.19348  21703133.516    21703132.7044   21703139.7394
        -0.000          -0.000
 -13237956.330 9 -10292856.88547  22898790.331    22898789.8884   22898797.9514
        -0.000          -0.000
  -1933594.179 8  -1471094.53545  25115028.683    25115027.7984   25115035.8544
        -0.000          -0.000
   -392710.302 8   -293068.52445  25682991.755    25682990.1464   25683008.5824
        -0.000          -0.000
 99  5  4  1 42 30.0010000  0  9  3 22  6 23 21 17 29 31  1          0.001965950
  -9140791.200 9  -6373098.11848  22466511.290    22466510.9684   22466518.3924
        -0.000          -0.000
   5862200.000 8   5471784.79345  25952503.971    25952503.2234   25952517.9624
        -0.000          -0.000
   2051192.965 8   2055106.96845  25122752.813    25122752.8104   25122764.0074
        -0.000          -0.000
 -16437703.367 9 -12563220.46948  21794243.769    21794243.2694   21794250.4074
        -0.000          -0.000
 -17718923.554 9 -13374976.84348  22043664.698    22043664.0894   22043671.8044
        -0.000          -0.000
 -18040184.576 9 -13011538.79148  21710998.814    21710998.0094   21711005.1324
        -0.000          -0.000
 -13322252.757 9 -10358542.31847  22882748.877    22882748.6034   22882756.9084
        -0.000          -0.000
  -2017006.240 8  -1536090.87645  25099155.742    25099155.0274   25099162.9604
        -0.000          -0.000
   -495048.784 8   -372812.23245  25663516.425    25663516.3074   25663534.7264
        -0.000          -0.000
 99  5  4  1 43  0.0010000  0  9  3 22  6 23 21 17 29 31  1          0.001971417
  -9179114.709 9  -6402960.57048  22459218.456    22459218.1874   22459225.6734
        -0.000          -0.000
   5936154.660 9   5529411.57445  25966577.664    25966576.7734   25966591.1374
        -0.000          -0.000
   2174064.068 8   2150850.56445  25146134.582    25146134.4834   25146146.0224
        -0.000          -0.000
 -16394556.219 9 -12529599.31148  21802454.491    21802453.8854   21802460.9994
        -0.000          -0.000
 -17738387.434 9 -13390143.49448  22039960.713    22039960.1634   22039967.8334
        -0.000          -0.000
 -17998544.483 9 -12979091.97648  21718922.658    21718921.8334   21718929.0154
        -0.000          -0.000
 -13406282.709 9 -10424020.08847  22866758.207    22866758.0334   22866766.6444
        -0.000          -0.000
  -2100144.768 8  -1600874.07645  25083335.041    25083334.3204   25083342.1064
        -0.000          -0.000
   -597388.462 8   -452556.87145  25644041.733    25644041.3704   25644060.2304
        -0.000          -0.000
 99  5  4  1 43 30.0010000  0  9  3 22  6 23 21 17 29 31  1          0.001976882
  -9216927.898 9  -6432425.37248  22452022.855    22452022.5384   22452030.0724
        -0.000          -0.000
   6010080.811 8   5587016.10645  25980645.542    25980644.6134   25980659.0364
        -0.000          -0.000
   2296979.808 8   2246628.89045  25169524.909    25169524.7204   25169536.1734
        -0.000          -0.000
 -16351302.507 9 -12495895.11748  21810685.342    21810684.7674   21810691.8374
        -0.000          -0.000
 -17757630.326 9 -13405137.93048  22036298.851    22036298.3484   22036305.9204
        -0.000          -0.000
 -17956597.451 9 -12946405.97648  21726904.824    21726904.0474   21726911.3204
        -0.000          -0.000
 -13490046.816 9 -10489290.71247  22850818.070    22850817.9394   22850826.7954
        -0.000          -0.000
  -2182997.407 8  -1665434.54245  25067568.678    25067567.8744   25067575.6464
        -0.000          -0.000
   -699726.613 8   -532300.39545  25624567.243    25624567.0624   25624585.6184
        -0.000          -0.000
 99  5  4  1 44  0.0010000  0  9  3 22  6 23 21 17 29 31  1          0.001982327
  -9254231.080 9  -6461492.75848  22444924.178    22444923.9224   22444931.5034
        -0.000          -0.000
   6083943.334 8   5644571.01245  25994701.370    25994700.4554   25994715.2624
        -0.000          -0.000
   2419913.499 8   2342421.24445  25192918.415    25192918.2854   25192929.8494
        -0.000          -0.000
 -16307958.789 9 -12462120.77648  21818933.423    21818932.8174   21818939.8724
        -0.000          -0.000
 -17776669.313 9 -13419973.47248  22032675.935    22032675.3864   22032682.8854
        -0.000          -0.000
 -17914352.497 9 -12913487.84848  21734943.751    21734942.9924   21734950.3214
        -0.000          -0.000
 -13573557.824 9 -10554364.13747  22834926.318    22834926.2704   22834935.1034
        -0.000          -0.000
  -2265587.483 8  -1729790.38245  25051852.314    25051851.3444   25051859.1094
        -0.000          -0.000
   -802066.038 9   -612044.96545  25605092.744    25605092.1744   25605110.5704
        -0.000          -0.000
 99  5  4  1 44 30.0010000  0  9  3 22  6 23 21 17 29 31  1          0.001987762
  -9291016.356 9  -6490156.58748  22437924.156    22437923.8894   22437931.4804
        -0.000          -0.000
   6157737.900 8   5702073.01645  26008744.296    26008743.3214   26008758.0944
        -0.000          -0.000
   2542867.180 8   2438229.13545  25216316.324    25216315.9064   25216327.1124
        -0.000          -0.000
 -16264503.843 9 -12428259.77948  21827202.537    21827201.8734   21827209.0654
        -0.000          -0.000
 -17795497.595 9 -13434644.83948  22029092.936    22029092.4274   22029099.9844
        -0.000          -0.000
 -17871800.580 9 -12880330.51248  21743041.149    21743040.4064   21743047.7524
        -0.000          -0.000
 -13656796.419 9 -10619225.28147  22819086.426    22819086.3854   22819095.1934
        -0.000          -0.000
  -2347901.901 8  -1793931.45845  25036188.584    25036187.5284   25036195.2674
        -0.000          -0.000
   -904380.100 9   -691769.73145  25585623.225    25585622.2034   25585640.2784
        -0.000          -0.000
 99  5  4  1 45  0.0010000  0  9  3 22  6 23 21 17 29 31  1          0.001993199
  -9327270.974 9  -6518406.92348  22431025.159    22431024.9354   22431032.3704
        -0.000          -0.000
   6231477.763 8   5759532.41245  26022776.759    26022775.7084   26022790.5674
        -0.000          -0.000
   2665848.862 8   2534058.88845  25239719.424    25239718.6554   25239729.7344
        -0.000          -0.000
 -16220915.477 9 -12394294.81048  21835497.081    21835496.4504   21835503.7054
        -0.000          -0.000
 -17814102.288 9 -13449141.97348  22025552.605    22025552.0484   22025559.6084
        -0.000          -0.000
 -17828911.775 9 -12846910.67748  21751202.585    21751201.8264   21751209.2654
        -0.000          -0.000
 -13739741.430 9 -10683857.65647  22803302.458    22803302.4124   22803311.0364
        -0.000          -0.000
  -2429926.715 8  -1857846.86345  25020580.024    25020578.8034   25020586.1814
        -0.000          -0.000
  -1006640.642 8   -771452.80945  25566163.759    25566162.4344   25566180.0454
        -0.000          -0.000
 99  5  4  1 45 30.0010000  0  9  3 22  6 23 21 17 29 31  1          0.001998630
  -9363019.580 9  -6546262.97048  22424222.533    22424222.3134   22424229.5454
        -0.000          -0.000
   6305124.766 8   5816919.42845  26036790.975    26036790.3744   26036805.7674
        -0.000          -0.000
   2788826.303 8   2629885.30045  25263121.474    25263120.8344   25263131.3364
        -0.000          -0.000
 -16177210.557 9 -12360239.00248  21843813.961    21843813.2934   21843820.5044
        -0.000          -0.000
 -17832531.561 9 -13463502.40948  22022045.665    22022045.0364   22022052.5374
        -0.000          -0.000
 -17785703.326 9 -12813241.76548  21759424.830    21759424.0944   21759431.5194
        -0.000          -0.000
 -13822401.826 9 -10748268.24947  22787572.495    22787572.4724   22787581.0984
        -0.000          -0.000
  -2511693.604 8  -1921561.28845  25005020.342    25005019.1864   25005026.3824
        -0.000          -0.000
  -1108869.844 8   -851111.47045  25546710.116    25546708.7024   25546725.8974
        -0.000          -0.000
 99  5  4  1 46  0.0010000  0  9  3 22  6 23 21 17 29 31  1          0.002004061
  -9398262.097 9  -6573724.66748  22417516.240    22417516.0274   22417523.0954
        -0.000          -0.000
   6378686.87418   5874240.28845  26050789.497    26050788.8045   26050804.8094
        -0.000          -0.000
   2911808.476 8   2725715.42045  25286524.360    25286524.0834   25286534.1444
        -0.000          -0.000
 -16133366.299 9 -12326074.64748  21852157.303    21852156.6374   21852163.9314
        -0.000          -0.000
 -17850795.785 9 -13477734.25248  22018570.061    22018569.4624   22018576.9534
        -0.000          -0.000
 -17742172.242 9 -12779321.45648  21767708.544    21767707.7994   21767715.1554
        -0.000          -0.000
 -13904766.802 9 -10812448.66447  22771898.904    22771898.9024   22771907.3534
        -0.000          -0.000
  -2593198.149 8  -1985071.28945  24989510.228    24989509.2444   24989516.3974
        -0.000          -0.000
  -1211052.298 9   -930733.71145  25527265.065    25527263.9134   25527280.8464
        -0.000          -0.000
 99  5  4  1 46 30.0020000  0  9  3 22  6 23 21 17 29 31  1          0.002009521
  -9432970.901 9  -6600770.47448  22410911.564    22410911.2494   22410918.1854
        -0.000          -0.000
   6452209.987 8   5931530.81545  26064780.324    26064779.7484   26064796.2654
        -0.000          -0.000
   3034824.636 8   2821572.06545  25309933.782    25309933.5984   25309943.5234
        -0.000          -0.000
 -16089342.642 9 -12291770.48848  21860534.726    21860534.0674   21860541.4514
        -0.000          -0.000
 -17868878.277 9 -13491824.46948  22015129.185    22015128.5544   22015135.9204
        -0.000          -0.000
 -17698291.027 9 -12745128.29448  21776058.961    21776058.1694   21776065.4204
        -0.000          -0.000
 -13986812.225 9 -10876380.06047  22756286.405    22756286.2314   22756294.5904
        -0.000          -0.000
  -2674397.806 8  -2048343.70745  24974057.966    24974057.1814   24974064.4384
        -0.000          -0.000
  -1313174.745 8  -1010309.17145  25507831.231    25507830.3484   25507847.2034
        -0.000          -0.000
 99  5  4  1 47  0.0020000  0  9  3 22  6 23 21 17 29 31  1          0.002014985
  -9467163.358 9  -6627413.93948  22404405.011    22404404.6244   22404411.5414
        -0.000          -0.000
   6525649.50318   5988756.13345  26078755.407    26078754.9445   26078771.5974
        -0.000          -0.000
   3157820.644 8   2917413.03245  25333338.814    25333338.7264   25333349.3134
        -0.000          -0.000
 -16045173.617 9 -12257353.05248  21868939.816    21868939.1484   21868946.5704
        -0.000          -0.000
 -17886816.506 9 -13505802.28248  22011715.754    22011714.9774   22011722.3334
        -0.000          -0.000
 -17654100.672 9 -12710694.24148  21784468.055    21784467.2474   21784474.5424
        -0.000          -0.000
 -14068576.551 9 -10940092.43747  22740727.199    22740727.0224   22740735.2214
        -0.000          -0.000
  -2755311.044 8  -2111392.91045  24958659.991    24958659.6404   24958667.5124
        -0.000          -0.000
  -1415285.244 8  -1089875.32245  25488399.329    25488398.7504   25488415.7174
        -0.000          -0.000
 99  5  4  1 47 30.0020000  0  9  3 22  6 23 21 17 29 31  1          0.002020453
  -9500817.356 9  -6653637.83048  22398000.629    22398000.3574   22398007.2764
        -0.000          -0.000
   6599013.01318   6045922.21144  26092716.281    26092715.8475   26092731.9894
        -0.000          -0.000
   3280814.312 8   3013252.12545  25356743.476    25356743.1734   25356754.6224
        -0.000          -0.000
 -16000835.921 9 -12222804.17548  21877377.073    21877376.3874   21877383.7104
        -0.000          -0.000
 -17904578.481 9 -13519642.75248  22008335.631    22008334.8774   22008342.2394
        -0.000          -0.000
 -17609591.648 9 -12676011.87648  21792937.695    21792936.9244   21792944.2844
        -0.000          -0.000
 -14150053.562 9 -11003580.92247  22725222.654    22725222.4864   22725230.5904
        -0.000          -0.000
  -2835912.658 8  -2174199.32045  24943321.151    24943321.1094   24943330.0374
        -0.000          -0.000
  -1517362.966 8  -1169415.92445  25468973.987    25468973.5374   25468990.3764
        -0.000          -0.000
 99  5  4  1 48  0.0020000  0  9  3 22  6 23 21 17 29 31  1          0.002025902
  -9533936.960 9  -6679445.31248  22391698.175    22391697.8404   22391704.7434
        -0.000          -0.000
   6672281.722 8   6103014.46845  26106658.727    26106658.3874   26106673.8134
        -0.000          -0.000
   3403796.481 8   3109082.26745  25380146.027    25380145.9214   25380157.6264
        -0.000          -0.000
 -15956350.915 9 -12188140.52348  21885842.331    21885841.6274   21885848.8594
        -0.000          -0.000
 -17922157.429 9 -13533340.60948  22004990.291    22004989.6634   22004997.0464
        -0.000          -0.000
 -17564779.721 9 -12641093.50348  21801465.120    21801464.3804   21801471.7974
        -0.000          -0.000
 -14231272.762 9 -11066868.51847  22709767.208    22709766.9264   22709775.0084
        -0.000          -0.000
  -2916215.671 8  -2236773.00445  24928039.545    24928039.6484   24928049.2514
        -0.000          -0.000
  -1619425.689 9  -1248944.79345  25449551.974    25449551.5324   25449567.9274
        -0.000          -0.000
 99  5  4  1 48 30.0020000  0  9  3 22  6 23 21 17 29 31  1          0.002031333
  -9566504.266 9  -6704822.42448  22385501.053    22385500.6204   22385507.3364
        -0.000          -0.000
   6745452.941 8   6160030.76045  26120582.782    26120582.5674   26120597.8214
        -0.000          -0.000
   3526781.178 8   3204914.41645  25403549.186    25403548.9684   25403561.0364
        -0.000          -0.000
 -15911723.220 9 -12153365.69448  21894334.847    21894334.1084   21894341.1664
        -0.000          -0.000
 -17939507.267 9 -13546859.93548  22001688.684    22001688.0884   22001695.4234
        -0.000          -0.000
 -17519644.403 9 -12605923.13548  21810054.084    21810053.3444   21810060.8524
        -0.000          -0.000
 -14312220.724 9 -11129944.76247  22694363.062    22694362.8904   22694371.0424
        -0.000          -0.000
  -2996194.280 8  -2299093.96045  24912819.958    24912820.0444   24912830.2994
        -0.000          -0.000
  -1721462.710 8  -1328453.60645  25430135.073    25430134.3554   25430150.5784
        -0.000          -0.000
 99  5  4  1 49  0.0020000  0  9  3 22  6 23 21 17 29 31  1          0.002036742
  -9598530.204 9  -6729777.69548  22379406.897    22379406.4494   22379412.9394
        -0.000          -0.000
   6818520.901 8   6216966.55045  26134486.711    26134486.8724   26134502.7244
        -0.000          -0.000
   3649770.218 8   3300749.91645  25426953.204    25426953.1864   25426965.0124
        -0.000          -0.000
 -15866972.246 9 -12118494.79848  21902850.738    21902850.0124   21902856.9334
        -0.000          -0.000
 -17956617.308 9 -13560192.40748  21998432.777    21998432.1624   21998439.3944
        -0.000          -0.000
 -17474184.056 9 -12570499.49948  21818704.851    21818704.1454   21818711.6904
        -0.000          -0.000
 -14392888.354 9 -11192802.56947  22679012.325    22679012.2174   22679020.4404
        -0.000          -0.000
  -3075858.562 8  -2361169.94545  24897660.105    24897660.2094   24897670.5844
        -0.000          -0.000
  -1823459.056 9  -1407930.71845  25410725.615    25410724.5924   25410741.0624
        -0.000          -0.000
 99  5  4  1 49 30.0020000  0  9  3 22  6 23 21 17 29 31  1          0.002042138
  -9630023.410 9  -6754317.84248  22373413.957    22373413.4894   22373420.0494
        -0.000          -0.000
   6891501.063 8   6273833.94145  26148375.151    26148374.8944   26148390.6754
        -0.000          -0.000
   3772769.999 8   3396593.73845  25450359.245    25450359.2644   25450371.3824
        -0.000          -0.000
 -15822092.288 9 -12083523.38648  21911391.177    21911390.4504   21911397.2404
        -0.000          -0.000
 -17973484.266 9 -13573335.46148  21995223.060    21995222.4744   21995229.6984
        -0.000          -0.000
 -17428395.670 9 -12534820.23948  21827418.106    21827417.3344   21827424.9104
        -0.000          -0.000
 -14473250.001 9 -11255421.96447  22663719.867    22663719.8034   22663727.9764
        -0.000          -0.000
  -3155207.424 8  -2423000.10845  24882560.445    24882560.3424   24882570.9754
        -0.000          -0.000
  -1925405.349 8  -1487368.79545  25391325.435    25391324.5434   25391340.8894
        -0.000          -0.000
 99  5  4  1 50  0.0020000  0  9  3 22  6 23 21 17 29 31  1          0.002047538
  -9660977.083 9  -6778437.58848  22367523.541    22367523.1264   22367529.9244
        -0.000          -0.000
   6964407.868 8   6330644.17245  26162249.401    26162249.3324   26162264.4074
        -0.000          -0.000
   3895779.780 8   3492445.42345  25473767.493    25473767.3474   25473779.2294
        -0.000          -0.000
 -15777069.937 9 -12048441.02348  21919958.609    21919957.8594   21919964.7394
        -0.000          -0.000
 -17990104.902 9 -13586286.58048  21992060.260    21992059.6844   21992066.9454
        -0.000          -0.000
 -17382280.887 9 -12498886.64948  21836193.308    21836192.5294   21836200.3184
        -0.000          -0.000
 -14553270.697 9 -11317775.67347  22648492.324    22648492.2354   22648500.3264
        -0.000          -0.000
  -3234224.865 8  -2484572.06445  24867524.058    24867523.9514   24867534.7304
        -0.000          -0.000
  -2027310.852 8  -1566775.09645  25371932.645    25371932.2774   25371948.3634
        -0.000          -0.000
 99  5  4  1 50 30.0020000  0  9  3 22  6 23 21 17 29 31  1          0.002052968
  -9691399.524 9  -6802143.38448  22361734.222    22361733.8344   22361740.8884
        -0.000          -0.000
   7037250.048 8   6387404.00745  26176111.600    26176111.2044   26176126.1214
        -0.000          -0.000
   4018789.911 8   3588297.44745  25497175.664    25497175.5624   25497187.1604
        -0.000          -0.000
 -15731886.236 9 -12013232.93648  21928556.667    21928555.9374   21928562.9734
        -0.000          -0.000
 -18006505.563 9 -13599066.28748  21988939.292    21988938.7244   21988946.0224
        -0.000          -0.000
 -17335839.998 9 -12462698.96048  21845030.578    21845029.8114   21845037.7264
        -0.000          -0.000
 -14632925.329 9 -11379844.12947  22633334.527    22633334.4494   22633342.3574
        -0.000          -0.000
  -3312895.455 8  -2545873.76545  24852553.710    24852553.4744   24852563.9234
        -0.000          -0.000
  -2129174.604 8  -1646148.83845  25352547.784    25352547.6984   25352563.8744
        -0.000          -0.000
 99  5  4  1 51  0.0020000  0  9  3 22  6 23 21 17 29 31  1          0.002058420
  -9721305.154 9  -6825446.47148  22356043.199    22356042.9044   22356050.2014
        -0.000          -0.000
   7110032.255 9   6444117.15045  26189962.568    26189961.7154   26189976.3224
        -0.000          -0.000
   4141784.180 8   3684137.05245  25520580.956    25520580.4694   25520592.4864
        -0.000          -0.000
 -15686535.036 9 -11977894.33448  21937186.689    21937186.0224   21937193.0684
        -0.000          -0.000
 -18022739.742 9 -13611716.27148  21985849.970    21985849.3834   21985856.6764
        -0.000          -0.000
 -17289085.897 9 -12426267.20548  21853927.557    21853926.7614   21853934.6384
        -0.000          -0.000
 -14712226.752 9 -11441637.35547  22618244.092    22618243.9054   22618251.7844
        -0.000          -0.000
  -3391246.362 8  -2606926.32245  24837644.001    24837643.7584   24837654.0894
        -0.000          -0.000
  -2231007.746 8  -1725498.73145  25333169.021    25333168.9734   25333184.9634
        -0.000          -0.000
 99  5  4  1 51 30.0020000  0  9  3 22  6 23 21 17 29 31  1          0.002063887
  -9750678.866 9  -6848335.08348  22350453.746    22350453.3534   22350460.6134
        -0.000          -0.000
   7182749.961 8   6500780.03345  26203801.236    26203799.7374   26203814.5564
        -0.000          -0.000
   4264762.761 8   3779964.42745  25543982.894    25543982.4794   25543994.6884
        -0.000          -0.000
 -15641012.951 9 -11942422.56748  21945849.373    21945848.6554   21945855.6364
        -0.000          -0.000
 -18038811.512 9 -13624239.69848  21982791.473    21982790.9704   21982798.2004
        -0.000          -0.000
 -17242022.037 9 -12389594.08948  21862883.579    21862882.8314   21862890.6194
        -0.000          -0.000
 -14791182.080 9 -11503160.89847  22603219.413    22603219.1274   22603227.2084
        -0.000          -0.000
  -3469277.535 8  -2667729.75145  24822795.369    24822794.9374   24822805.1904
        -0.000          -0.000
  -2332815.592 9  -1804828.88745  25313795.355    25313795.0554   25313810.8714
        -0.000          -0.000
 99  5  4  1 52  0.0020000  0  9  3 22  6 23 21 17 29 31  1          0.002069364
  -9779498.440 9  -6870791.89448  22344969.669    22344969.2104   22344976.4034
        -0.000          -0.000
   7255396.592 8   6557387.58245  26217625.689    26217623.9274   26217638.6944
        -0.000          -0.000
   4387731.626 8   3875784.25445  25567382.863    25567382.7694   25567395.1724
        -0.000          -0.000
 -15595330.039 9 -11906825.49548  21954542.520    21954541.8274   21954548.8484
        -0.000          -0.000
 -18054717.043 9 -13636633.58648  21979764.835    21979764.2664   21979771.4364
        -0.000          -0.000
 -17194629.327 9 -12352664.71348  21871902.242    21871901.4384   21871909.1944
        -0.000          -0.000
 -14869801.802 9 -11564422.93347  22588258.569    22588258.2054   22588266.4484
        -0.000          -0.000
  -3546986.029 8  -2728281.74045  24808008.070    24808007.6234   24808017.7134
        -0.000          -0.000
  -2434579.884 9  -1884125.10845  25294429.925    25294429.5424   25294445.2134
        -0.000          -0.000
 99  5  4  1 52 30.0020000  0  9  3 22  6 23 21 17 29 31  1          0.002074832
  -9807775.602 9  -6892826.03548  22339588.747    22339588.2954   22339595.3964
        -0.000          -0.000
   7327958.266 7   6613928.78444  26231433.558    26231431.8994   26231446.7734
        -0.000          -0.000
   4510681.296 8   3971589.04945  25590779.596    25590779.5434   25590791.8014
        -0.000          -0.000
 -15549525.832 9 -11871133.90648  21963258.701    21963258.0234   21963265.0494
        -0.000          -0.000
 -18070484.738 9 -13648920.08348  21976764.320    21976763.6934   21976771.0184
        -0.000          -0.000
 -17146913.776 9 -12315483.75948  21880982.169    21880981.4424   21880989.0874
        -0.000          -0.000
 -14948133.157 9 -11625460.27147  22573352.400    22573352.1034   22573360.5544
        -0.000          -0.000
  -3624396.119 9  -2788601.25145  24793277.634    24793277.1614   24793286.8984
        -0.000          -0.000
  -2536290.131 8  -1963379.23145  25275074.605    25275074.0224   25275089.5464
        -0.000          -0.000
 99  5  4  1 53  0.0020000  0  9  3 22  6 23 21 17 29 31  1          0.002080267
  -9835517.154 9  -6914442.82448  22334309.882    22334309.3394   22334316.3294
        -0.000          -0.000
   7400412.80317   6670386.61144  26245221.391    26245219.7805   26245234.3824
        -0.000          -0.000
   4633592.000 8   4067363.51845  25614168.618    25614168.5904   25614180.7814
        -0.000          -0.000
 -15503647.886 9 -11835384.86248  21971988.964    21971988.2994   21971995.2584
        -0.000          -0.000
 -18086103.655 9 -13661090.64248  21973792.053    21973791.4814   21973798.8464
        -0.000          -0.000
 -17098889.599 9 -12278062.31848  21890120.958    21890120.1854   21890127.8834
        -0.000          -0.000
 -15026208.132 9 -11686297.82147  22558494.977    22558494.7004   22558503.3954
        -0.000          -0.000
  -3701524.934 9  -2848701.54845  24778601.012    24778600.3414   24778609.7224
        -0.000          -0.000
  -2637951.534 9  -2042595.32045  25255728.060    25255727.8054   25255743.2804
        -0.000          -0.000
 99  5  4  1 53 30.0020000  0  9  3 22  6 23 21 17 29 31  1          0.002085595
  -9862687.167 9  -6935614.25548  22329139.506    22329139.0094   22329146.0104
        -0.000          -0.000
   7472766.68218   6726766.04345  26258989.167    26258988.4525   26259003.3154
        -0.000          -0.000
   4756478.428 9   4163119.06945  25637553.438    25637553.2514   25637565.2104
        -0.000          -0.000
 -15457678.170 9 -11799564.30648  21980736.713    21980736.0934   21980743.0784
        -0.000          -0.000
 -18101524.409 9 -13673106.78048  21970857.688    21970857.0824   21970864.3114
        -0.000          -0.000
 -17050527.787 9 -12240377.80748  21899323.922    21899323.1844   21899330.8544
        -0.000          -0.000
 -15103992.072 9 -11746908.61147  22543692.918    22543692.7574   22543701.5744
        -0.000          -0.000
  -3778329.487 8  -2908549.21545  24763985.885    24763985.3694   24763994.2494
        -0.000          -0.000
  -2739539.461 8  -2121754.15845  25236396.014    25236395.6984   25236410.9744
        -0.000          -0.000
 99  5  4  1 54  0.0020000  0  9  3 22  6 23 21 17 29 31  1          0.002091005
  -9889298.223 9  -6956350.13348  22324075.580    22324075.0754   22324081.9404
        -0.000          -0.000
   7545012.998 8   6783061.62845  26272737.216    26272736.4324   26272751.5514
        -0.000          -0.000
   4879333.210 9   4258849.95245  25660932.497    25660932.1864   25660943.7054
        -0.000          -0.000
 -15411608.986 9 -11763666.24448  21989503.429    21989502.7844   21989509.8944
        -0.000          -0.000
 -18116754.777 9 -13684974.56448  21967959.578    21967958.8994   21967966.0884
        -0.000          -0.000
 -17001821.273 9 -12202424.67748  21908592.503    21908591.7784   21908599.3684
        -0.000          -0.000
 -15181474.761 9 -11807284.64747  22528948.248    22528948.1244   22528957.0674
        -0.000          -0.000
  -3854798.960 9  -2968135.75245  24749434.501    24749433.8644   24749442.4764
        -0.000          -0.000
  -2841054.969 8  -2200856.58545  25217077.772    25217077.4524   25217092.6834
        -0.000          -0.000
 99  5  4  1 54 30.0020000  0  9  3 22  6 23 21 17 29 31  1          0.002096414
  -9915357.519 9  -6976656.07048  22319116.530    22319116.0774   22319122.8994
        -0.000          -0.000
   7617144.833 8   6839268.01245  26286463.386    26286462.9004   26286478.1554
        -0.000          -0.000
   5002153.536 9   4354554.01245  25684304.764    25684304.5264   25684315.5064
        -0.000          -0.000
 -15365428.409 9 -11727681.38648  21998291.274    21998290.6014   21998297.7424
        -0.000          -0.000
 -18131788.284 9 -13696688.96048  21965098.785    21965098.1294   21965105.2914
        -0.000          -0.000
 -16952777.626 9 -12164208.85648  21917925.232    21917924.5064   21917931.9934
        -0.000          -0.000
 -15258650.762 9 -11867421.70047  22514262.149    22514262.0004   22514270.6554
        -0.000          -0.000
  -3930930.939 9  -3027459.33445  24734946.976    24734946.3344   24734954.9364
        -0.000          -0.000
  -2942508.078 8  -2279910.43045  25197771.339    25197771.0574   25197786.2934
        -0.000          -0.000
 99  5  4  1 55  0.0020000  0  9  3 22  6 23 21 17 29 31  1          0.002101819
  -9940844.373 9  -6996515.95648  22314266.741    22314266.2144   22314272.9014
        -0.000          -0.000
   7689154.69918   6895379.39144  26300166.638    26300166.1245   26300181.7984
        -0.000          -0.000
   5124949.101 8   4450238.72245  25707672.282    25707671.7574   25707682.6854
        -0.000          -0.000
 -15319102.454 9 -11691583.24748  22007106.711    22007106.0584   22007113.2444
        -0.000          -0.000
 -18146599.599 9 -13708230.21248  21962280.297    21962279.6504   21962286.6904
        -0.000          -0.000
 -16903384.661 9 -12125720.83448  21927324.532    21927323.7794   21927331.0524
        -0.000          -0.000
 -15335482.731 9 -11927290.68147  22499641.593    22499641.4424   22499649.6704
        -0.000          -0.000
  -4006709.570 8  -3086507.55045  24720526.525    24720526.0764   24720534.7114
        -0.000          -0.000
  -3043897.675 8  -2358914.79345  25178477.101    25178476.8644   25178491.7434
        -0.000          -0.000
 99  5  4  1 55 30.0020000  0  9  3 22  6 23 21 17 29 31  1          0.002107229
  -9965749.493 9  -7015922.53648  22309527.552    22309526.9464   22309533.6224
        -0.000          -0.000
   7761048.707 8   6951400.44044  26313848.256    26313847.8394   26313863.1114
        -0.000          -0.000
   5247730.982 8   4545912.82244  25731037.150    25731036.8134   25731047.6724
        -0.000          -0.000
 -15272602.727 9 -11655349.70148  22015955.268    22015954.6424   22015961.8394
        -0.000          -0.000
 -18161199.136 9 -13719606.44948  21959502.119    21959501.4544   21959508.4574
        -0.000          -0.000
 -16853639.690 9 -12086958.51548  21936790.655    21936789.9064   21936797.0714
        -0.000          -0.000
 -15411953.507 9 -11986878.21147  22485089.878    22485089.5864   22485097.4634
        -0.000          -0.000
  -4082123.809 9  -3145271.84645  24706175.154    24706174.9424   24706183.5684
        -0.000          -0.000
  -3145212.925 9  -2437861.26545  25159197.351    25159196.8724   25159211.5434
        -0.000          -0.000
 99  5  4  1 56  0.0020000  0  9  3 22  6 23 21 17 29 31  1          0.002112623
  -9990115.352 9  -7034908.90648  22304890.729    22304890.1764   22304897.0114
        -0.000          -0.000
   7832795.91217   7007307.01954  26327501.367    26327501.4985   26327516.9765
        -0.000          -0.000
   5370467.345 7   4641551.50254  25754392.930    25754392.8254          0.0005
        -0.000          -0.000
 -15225978.958 9 -11619019.51048  22024827.498    22024826.8504   22024834.0224
        -0.000          -0.000
 -18175633.166 9 -13730853.70648  21956755.303    21956754.6954   21956761.6914
        -0.000          -0.000
 -16803594.644 9 -12047962.40248  21946313.933    21946313.1644   21946320.3204
        -0.000          -0.000
 -15488107.448 9 -12046218.85547  22470598.075    22470597.8894   22470605.6814
        -0.000          -0.000
  -4157218.822 8  -3203787.39045  24691884.382    24691884.3454   24691893.3224
        -0.000          -0.000
  -3246471.351 9  -2516763.48245  25139928.208    25139927.8114   25139942.0894
        -0.000          -0.000
 99  5  4  1 56 30.0020000  0  9  3 22  6 23 21 17 29 31  1          0.002118018
 -10013906.531 9  -7053447.47448  22300363.385    22300362.7904   22300369.7944
        -0.000          -0.000
   7904428.981 8   7063124.82345  26341133.592    26341133.2044   26341148.2124
        -0.000          -0.000
   5493191.128 7   4737180.36854  25777746.063    25777746.3404          0.0005
        -0.000          -0.000
 -15179207.927 9 -11582574.56448  22033727.789    22033727.1384   22033734.3204
        -0.000          -0.000
 -18189868.816 9 -13741946.38948  21954046.344    21954045.6714   21954052.6514
        -0.000          -0.000
 -16753223.339 9 -12008712.01848  21955899.174    21955898.4584   21955905.5494
        -0.000          -0.000
 -15563916.771 9 -12105290.97447  22456172.070    22456171.8864   22456179.5974
        -0.000          -0.000
  -4231962.062 8  -3262028.82845  24677660.778    24677660.8824   24677669.9364
        -0.000          -0.000
  -3347633.688 8  -2595590.86145  25120677.114    25120676.8884   25120691.0224
        -0.000          -0.000
 99  5  4  1 57  0.0020000  0  9  3 22  6 23 21 17 29 31  1          0.002123418
 -10037147.522 9  -7071557.32948  22295940.649    22295940.1324   22295947.2414
        -0.000          -0.000
   7975938.910 8   7118846.64545  26354741.620    26354740.6424   26354756.5524
        -0.000          -0.000
   5615876.86717   4832779.60453         0.000           0.0005          0.0005
        -0.000          -0.000
 -15132314.671 9 -11546034.36548  22042651.340    22042650.6204   22042657.8384
        -0.000          -0.000
 -18203942.429 9 -13752912.80748  21951368.087    21951367.4844   21951374.5124
        -0.000          -0.000
 -16702541.726 9 -11969219.84548  21965543.586    21965542.8614   21965550.0004
        -0.000          -0.000
 -15639389.440 9 -12164100.78047  22441810.202    22441809.9194   22441817.6474
        -0.000          -0.000
  -4306362.675 8  -3320003.28945  24663502.818    24663502.8524   24663511.9744
        -0.000          -0.000
  -3448708.246 9  -2674349.85045  25101442.929    25101442.7544   25101456.6864
        -0.000          -0.000
 99  5  4  1 57 30.0020000  0  9  3 22  6 23 21 17 29 31  1          0.002128825
 -10059851.410 9  -7089248.65448  22291620.232    22291619.6634   22291626.7874
        -0.000          -0.000
   8047330.889 8   7174476.42845  26368326.595    26368325.9364   26368342.2574
        -0.000          -0.000
   5738518.32116   4928344.19853         0.000           0.0005          0.0005
        -0.000          -0.000
 -15085317.830 9 -11509413.46648  22051594.551    22051593.7994   22051601.1174
        -0.000          -0.000
 -18217865.297 9 -13763761.76248  21948718.770    21948718.0994   21948725.1044
        -0.000          -0.000
 -16651555.958 9 -11929490.67848  21975245.910    21975245.1844   21975252.3564
        -0.000          -0.000
 -15714531.739 9 -12222653.12848  22427510.846    22427510.6984   22427518.6124
        -0.000          -0.000
  -4380419.906 9  -3377710.18945  24649410.580    24649410.4284   24649419.1714
        -0.000          -0.000
  -3549695.682 9  -2753040.96745  25082225.780    25082225.2664   25082238.9134
        -0.000          -0.000
 99  5  4  1 58  0.0020000  0  9  3 22  6 23 21 17 29 31  1          0.002134237
 -10082002.753 9  -7106509.42948  22287404.930    22287404.3314   22287411.4874
        -0.000          -0.000
   8118612.313 8   7230020.24255  26381891.009    26381890.7854   26381904.8525
        -0.000          -0.000
   5861130.08416    734040.198 1         0.000           0.0001          0.000
        -0.000          -0.000
 -15038208.549 9 -11472704.95948  22060559.235    22060558.4534   22060565.8404
        -0.000          -0.000
 -18231611.747 9 -13774473.25348  21946102.935    21946102.2704   21946109.2804
        -0.000          -0.000
 -16600246.422 9 -11889509.22448  21985009.722    21985009.0054   21985016.3834
        -0.000          -0.000
 -15789329.533 9 -12280937.03648  22413277.211    22413277.0824   22413285.0794
        -0.000          -0.000
  -4454119.463 8  -3435138.41345  24635386.304    24635385.9874   24635394.4614
        -0.000          -0.000
  -3650591.817 9  -2831660.93045  25063025.886    25063025.0994   25063038.4304
        -0.000          -0.000
 99  5  4  1 58 30.0020000  0  9  3 22  6 23 21 17 29 31  1          0.002139659
 -10103585.061 9  -7123326.80348  22283297.781    22283297.2944   22283304.4664
        -0.000          -0.000
   8189791.25917   7285484.20244  26395436.126    26395436.0385   26395450.3744
        -0.000          -0.000
   5983711.18117     91609.75852         0.000           0.0005          0.0005
        -0.000          -0.000
 -14990966.930 9 -11435893.31548  22069548.995    22069548.2104   22069555.6404
        -0.000          -0.000
 -18245169.797 9 -13785037.93848  21943523.039    21943522.3554   21943529.2674
        -0.000          -0.000
 -16548591.496 9 -11849258.63848  21994839.223    21994838.5104   21994846.1464
        -0.000          -0.000
 -15863759.767 9 -12338934.52948  22399113.610    22399113.4574   22399121.2714
        -0.000          -0.000
  -4527440.696 8  -3492271.79545  24621433.990    24621433.4674   24621441.9364
        -0.000          -0.000
  -3751399.477 8  -2910211.94745  25043842.353    25043841.7704   25043854.8974
        -0.000          -0.000
 99  5  4  1 59  0.0020000  0  9  3 22  6 23 21 17 29 31  1          0.002145074
 -10124613.705 9  -7139712.75248  22279296.295    22279295.6854   22279302.7734
        -0.000          -0.000
   8260843.041 7   7340848.89755  26408957.011    26408956.7324   26408971.7075
        -0.000          -0.000
   6106227.49516    187122.45352         0.000           0.0005          0.0005
        -0.000          -0.000
 -14943623.076 9 -11399002.00348  22078558.234    22078557.4734   22078564.9304
        -0.000          -0.000
 -18258550.532 9 -13795464.45648  21940976.850    21940976.1384   21940983.0054
        -0.000          -0.000
 -16496614.028 9 -11808756.72348  22004730.247    22004729.5034   22004737.0974
        -0.000          -0.000
 -15937835.616 9 -12396655.87848  22385017.349    22385017.2244   22385024.9004
        -0.000          -0.000
  -4600400.727 8  -3549123.75545  24607550.322    24607549.7274   24607558.1674
        -0.000          -0.000
  -3852130.577 8  -2988703.31945  25024673.004    25024672.7814   25024686.1604
        -0.000          -0.000
 99  5  4  1 59 30.0020000  0  8  3 23 21 17  8 29 31  1             0.002150472
 -10145071.752 9  -7155654.08548  22275403.241    22275402.6204   22275409.5954
        -0.000          -0.000
 -14896174.393 9 -11362029.01248  22087587.366    22087586.6324   22087594.1864
        -0.000          -0.000
 -18271729.315 9 -13805733.61348  21938468.895    21938468.1954   21938475.1914
        -0.000          -0.000
 -16444310.807 9 -11768000.97848  22014683.339    22014682.5224   22014690.0624
        -0.000          -0.000
    -53919.98419    -35072.67252         0.000           0.0005          0.0005
        -0.000          -0.000
 -16011558.534 9 -12454102.21947  22370988.483    22370988.2674   22370995.7744
        -0.000          -0.000
  -4673003.735 8  -3605697.53345  24593734.596    24593733.8024   24593742.1714
        -0.000          -0.000
  -3952783.393 8  -3067133.67845  25005518.832    25005518.7014   25005532.1144
        -0.000          -0.000
 99  5  4  2  0  0.0020000  0  8  3 23 21 17  8 29 31  1             0.002155865
 -10164951.753 9  -7171144.98248  22271620.129    22271619.5394   22271626.5954
        -0.000          -0.000
 -14848608.625 9 -11324964.78748  22096638.781    22096638.0764   22096645.7004
        -0.000          -0.000
 -18284701.104 9 -13815841.47848  21936000.294    21935999.6434   21936006.7494
        -0.000          -0.000
 -16391661.242 9 -11726975.36248  22024702.280    22024701.4464   22024708.9674
        -0.000          -0.000
   -120439.163 9    -86905.31753         0.000           0.0004   24592566.8295
        -0.000          -0.000
 -16084917.621 9 -12511265.05747  22357028.833    22357028.5524   22357035.8944
        -0.000          -0.000
  -4745238.478 8  -3661984.32845  24579988.790    24579987.9984   24579996.0994
        -0.000          -0.000
  -4053338.496 9  -3145487.90645  24986383.580    24986383.3584   24986396.7654
        -0.000          -0.000
 99  5  4  2  0 30.0020000  0  8  3 23 21 17  8 29 31  1             0.002161268
 -10184258.833 9  -7186189.44848  22267946.042    22267945.4124   22267952.6344
        -0.000          -0.000
 -14800923.567 9 -11287807.60348  22105713.009    22105712.3144   22105719.9164
        -0.000          -0.000
 -18297469.326 9 -13825790.71348  21933570.445    21933569.8464   21933576.9834
        -0.000          -0.000
 -16338658.483 9 -11685674.53248  22034788.346    22034787.5344   22034795.1454
        -0.000          -0.000
   -186836.46118   -138643.41845  24579918.446    24579918.5465   24579926.2954
        -0.000          -0.000
 -16157906.350 9 -12568139.30547  22343139.578    22343139.2264   22343146.4674
        -0.000          -0.000
  -4817096.909 8  -3717977.89945  24566314.430    24566313.6564   24566321.9424
        -0.000          -0.000
  -4153776.785 9  -3223751.10645  24967270.656    24967270.2894   24967283.6984
        -0.000          -0.000
 99  5  4  2  1  0.0020000  0  8  3 23 21 17  8 29 31  1             0.002166620
 -10203028.508 9  -7200815.15848  22264374.087    22264373.5754   22264380.9914
        -0.000          -0.000
 -14753150.806 9 -11250582.08148  22114803.946    22114803.2004   22114810.7424
        -0.000          -0.000
 -18310055.457 9 -13835598.05748  21931175.362    21931174.7834   21931181.8564
        -0.000          -0.000
 -16285335.237 9 -11644123.96248  22044935.351    22044934.5894   22044942.3154
        -0.000          -0.000
   -253147.373 8   -190314.15845  24567296.277    24567299.8024   24567307.8554
        -0.000          -0.000
 -16230567.972 9 -12624758.65748  22329312.446    22329312.0894   22329319.3884
        -0.000          -0.000
  -4888616.338 8  -3773707.31645  24552704.596    24552703.8774   24552712.1364
        -0.000          -0.000
  -4254128.183 9  -3301946.59445  24948174.225    24948173.6704   24948187.2664
        -0.000          -0.000
 99  5  4  2  1 30.0020000  0  8  3 23 21 17  8 29 31  1             0.002172004
 -10221234.380 9  -7215001.55248  22260909.553    22260909.0934   22260916.5934
        -0.000          -0.000
 -14705242.409 9 -11213250.86448  22123920.561    22123919.8394   22123927.3624
        -0.000          -0.000
 -18322426.323 9 -13845237.66448  21928821.301    21928820.6834   21928827.6464
        -0.000          -0.000
 -16231649.568 9 -11602290.98548  22055151.414    22055150.6274   22055158.4114
        -0.000          -0.000
   -319324.666 8   -241880.73344  24554705.364    24554708.7794   24554714.8264
        -0.000          -0.000
 -16302874.110 9 -12681101.01348  22315552.919    22315552.6254   22315559.9354
        -0.000          -0.000
  -4959764.020 8  -3829147.02345  24539165.584    24539164.8004   24539172.9414
        -0.000          -0.000
  -4354366.790 9  -3380054.18645  24929099.180    24929098.6744   24929111.9954
        -0.000          -0.000
 99  5  4  2  2  0.0020000  0  8  3 23 21 17  8 29 31  1             0.002177402
 -10238873.228 9  -7228746.08748  22257552.987    22257552.5474   22257560.0514
        -0.000          -0.000
 -14657204.659 9 -11175818.84648  22133061.847    22133061.1214   22133068.5524
        -0.000          -0.000
 -18334581.877 9 -13854709.50548  21926508.158    21926507.5554   21926514.4334
        -0.000          -0.000
 -16177597.818 9 -11560172.75048  22065437.159    22065436.3864   22065444.1174
        -0.000          -0.000
   -385336.839 8   -293318.61644  24542144.827    24542146.7264   24542153.8514
        -0.000          -0.000
 -16374819.316 9 -12737162.13948  22301862.100    22301861.7734   22301869.1174
        -0.000          -0.000
  -5030517.281 8  -3884279.39245  24525701.572    24525700.7914   24525709.0064
        -0.000          -0.000
  -4454475.921 9  -3458060.90745  24910048.889    24910048.2934   24910061.4174
        -0.000          -0.000
 99  5  4  2  2 30.0020000  0  8  3 23 21 17  8 29 31  1             0.002182793
 -10255964.370 9  -7242063.84248  22254300.794    22254300.2684   22254307.7084
        -0.000          -0.000
 -14609078.141 9 -11138317.64748  22142220.010    22142219.2914   22142226.6134
        -0.000          -0.000
 -18346553.019 9 -13864037.64548  21924230.129    21924229.5514   21924236.3694
        -0.000          -0.000
 -16123223.090 9 -11517802.84848  22075784.344    22075783.5434   22075791.2744
        -0.000          -0.000
   -451220.608 7   -344656.44544  24529608.200    24529609.5954   24529616.8894
        -0.000          -0.000
 -16446440.337 9 -12792970.64948  22288232.783    22288232.6474   22288240.0184
        -0.000          -0.000
  -5100907.138 9  -3939128.59345  24512306.959    24512306.1434   24512314.3614
        -0.000          -0.000
  -4554497.895 9  -3535999.71745  24891015.073    24891014.4304   24891027.5284
        -0.000          -0.000
 99  5  4  2  3  0.0020000  0  8  3 23 21 17  8 29 31  1             0.002188171
 -10272501.942 9  -7254950.25148  22251153.836    22251153.3474   22251160.6844
        -0.000          -0.000
 -14560874.848 9 -11100756.63648  22151392.700    22151392.0204   22151399.4164
        -0.000          -0.000
 -18358354.337 9 -13873233.45548  21921984.324    21921983.7364   21921990.7564
        -0.000          -0.000
 -16068532.464 9 -11475186.79548  22086191.579    22086190.8184   22086198.5304
        -0.000          -0.000
   -516977.15517   -395895.13354  24517095.057    24517095.4795          0.0005
        -0.000          -0.000
 -16517738.253 9 -12848527.38548  22274665.229    22274665.0704   22274672.3804
        -0.000          -0.000
  -5170939.683 9  -3993699.37645  24498980.385    24498979.6094   24498987.4464
        -0.000          -0.000
  -4654438.929 9  -3613875.45045  24871996.685    24871995.9364   24872009.1224
        -0.000          -0.000
 99  5  4  2  3 30.0020000  0  8  3 23 21 17  8 29 31  1             0.002193551
 -10288474.721 9  -7267396.55548  22248114.325    22248113.8214   22248121.1044
        -0.000          -0.000
 -14512602.404 9 -11063141.74348  22160578.630    22160577.9914   22160585.3904
        -0.000          -0.000
 -18370009.850 9 -13882315.65948  21919766.261    21919765.6524   21919772.7254
        -0.000          -0.000
 -16013522.232 9 -11432321.68648  22096659.683    22096658.9014   22096666.5094
        -0.000          -0.000
   -582580.44416   -447014.17253         0.000           0.0005          0.0005
        -0.000          -0.000
 -16588702.880 9 -12903824.40648  22261161.129    22261160.8994   22261168.1164
        -0.000          -0.000
  -5240603.618 9  -4047982.93045  24485723.655    24485722.9774   24485730.6554
        -0.000          -0.000
  -4754290.156 9  -3691681.21946  24852995.262    24852994.5114   24853007.7914
        -0.000          -0.000
 99  5  4  2  4  0.0020000  0  7  3 23 21 17 29 31  1                0.002198990
 -10303862.929 9  -7279387.36748  22245185.892    22245185.4894   22245192.7444
        -0.000          -0.000
 -14464260.212 9 -11025472.48848  22169777.878    22169777.2434   22169784.5524
        -0.000          -0.000
 -18381535.626 9 -13891296.75348  21917572.942    21917572.2714   21917579.3464
        -0.000          -0.000
 -15958198.528 9 -11389212.32048  22107187.454    22107186.6434   22107194.2584
        -0.000          -0.000
 -16659319.880 9 -12958850.55948  22247723.120    22247722.8624   22247730.0274
        -0.000          -0.000
  -5309879.997 9  -4101964.45345  24472540.815    24472540.1934   24472547.7354
        -0.000          -0.000
  -4854051.380 9  -3769416.86046  24834010.907    24834010.1834   24834023.4484
        -0.000          -0.000
 99  5  4  2  4 30.0020000  0  7  3 23 21 17 29 31  1                0.002204369
 -10318655.114 9  -7290913.73348  22242370.978    22242370.5684   22242377.8514
        -0.000          -0.000
 -14415801.831 9 -10987712.69748  22178999.203    22178998.5794   22179005.8054
        -0.000          -0.000
 -18392914.547 9 -13900163.42948  21915407.379    21915406.7504   21915413.9644
        -0.000          -0.000
 -15902544.042 9 -11345845.19548  22117778.122    22117777.3614   22117784.9814
        -0.000          -0.000
 -16729556.029 9 -13013579.96348  22234357.406    22234357.1954   22234364.3884
        -0.000          -0.000
  -5378752.015 9  -4155630.89945  24459434.756    24459434.2764   24459441.7344
        -0.000          -0.000
  -4953713.355 9  -3847075.17446  24815045.626    24815044.8534   24815058.0744
        -0.000          -0.000
 99  5  4  2  5  0.0020000  0  7  3 23 21 17 29 31  1                0.002209748
 -10332855.147 9  -7301978.68648  22239668.760    22239668.3584   22239675.7364
        -0.000          -0.000
 -14367211.400 9 -10949850.01148  22188245.597    22188245.0084   22188252.1624
        -0.000          -0.000
 -18404130.148 9 -13908902.84448  21913273.062    21913272.4274   21913279.6254
        -0.000          -0.000
 -15846555.098 9 -11302217.45548  22128432.538    22128431.7954   22128439.4224
        -0.000          -0.000
 -16799400.085 9 -13068003.82248  22221066.355    22221066.2064   22221073.4734
        -0.000          -0.000
  -5447217.755 8  -4208980.77145  24446405.853    24446405.4064   24446412.9014
        -0.000          -0.000
  -5053275.300 9  -3924655.55045  24796099.326    24796098.5594   24796111.5314
        -0.000          -0.000
 99  5  4  2  5 30.0020000  0  7  3 23 21 17 29 31  1                0.002215122
 -10346470.154 9  -7312587.76048  22237077.937    22237077.5714   22237084.9744
        -0.000          -0.000
 -14318488.420 9 -10911884.04248  22197517.343    22197516.7294   22197523.8514
        -0.000          -0.000
 -18415170.953 9 -13917506.04448  21911172.083    21911171.4324   21911178.5834
        -0.000          -0.000
 -15790235.752 9 -11258332.27148  22139149.860    22139149.0964   22139156.7224
        -0.000          -0.000
 -16868862.305 9 -13122130.13848  22207848.088    22207847.8974   22207855.2884
        -0.000          -0.000
  -5515277.042 8  -4262013.88345  24433454.517    24433454.1714   24433461.4134
        -0.000          -0.000
  -5152743.174 8  -4002162.62945  24777170.892    24777170.0134   24777183.2684
        -0.000          -0.000
 99  5  4  2  6  0.0020000  0  7  3 23 21 17 29 31  1                0.002220464
 -10359546.586 9  -7322777.16348  22234589.678    22234589.2844   22234596.7844
        -0.000          -0.000
 -14269660.730 9 -10873836.48448  22206809.192    22206808.5164   22206815.4724
        -0.000          -0.000
 -18426048.729 9 -13925982.22748  21909102.061    21909101.4354   21909108.6304
        -0.000          -0.000
 -15733616.443 9 -11214213.33248  22149924.066    22149923.3174   22149930.9974
        -0.000          -0.000
 -16937969.942 9 -13175980.17648  22194697.301    22194697.1514   22194704.5634
        -0.000          -0.000
  -5582961.620 9  -4314755.06345  24420574.675    24420574.2674   24420581.1464
        -0.000          -0.000
  -5252147.953 8  -4079620.56245  24758254.419    24758253.5384   24758267.1824
        -0.000          -0.000
 99  5  4  2  6 30.0020000  0  7  3 23 21 17 29 31  1                0.002225794
 -10372063.465 9  -7332530.54848  22232207.824    22232207.4934   22232214.8804
        -0.000          -0.000
 -14220715.564 9 -10835697.38048  22216123.273    22216122.5094   22216129.3454
        -0.000          -0.000
 -18436721.276 9 -13934298.48248  21907071.167    21907070.5504   21907077.7004
        -0.000          -0.000
 -15676644.169 9 -11169819.35548  22160765.466    22160764.7024   22160772.3544
        -0.000          -0.000
 -17006702.062 9 -13229537.59648  22181618.113    22181617.9354   22181625.2614
        -0.000          -0.000
  -5650261.505 9  -4367196.48645  24407768.205    24407767.6634   24407774.4364
        -0.000          -0.000
  -5351443.889 8  -4156993.71745  24739358.546    24739357.9304   24739371.5234
        -0.000          -0.000
 99  5  4  2  7  0.0020000  0  7  3 23 21 17 29 31  1                0.002231118
 -10384010.546 9  -7341839.95748  22229934.472    22229934.1074   22229941.2534
        -0.000          -0.000
 -14171679.778 9 -10797487.67048  22225454.260    22225453.5694   22225460.3944
        -0.000          -0.000
 -18447188.627 9 -13942454.85448  21905079.279    21905078.6804   21905085.8944
        -0.000          -0.000
 -15619305.688 9 -11125140.03248  22171676.608    22171675.8684   22171683.4204
        -0.000          -0.000
 -17075059.321 9 -13282802.92348  22168610.261    22168609.9914   22168617.2094
        -0.000          -0.000
  -5717171.091 9  -4419333.77845  24395036.081    24395035.3184   24395042.2774
        -0.000          -0.000
  -5450617.217 9  -4234271.33545  24720485.970    24720485.6444   24720499.1514
        -0.000          -0.000
 99  5  4  2  7 30.0020000  0  7  3 23 21 17 29 31  1                0.002236451
 -10395402.906 9  -7350717.10448  22227766.518    22227766.1384   22227773.2134
        -0.000          -0.000
 -14122579.333 9 -10759227.56548  22234797.725    22234797.0504   22234803.7414
        -0.000          -0.000
 -18457491.953 9 -13950483.40948  21903118.499    21903117.9674   21903125.3304
        -0.000          -0.000
 -15561612.080 9 -11080183.98548  22182655.349    22182654.5884   22182662.1324
        -0.000          -0.000
 -17143054.141 9 -13335785.82548  22155671.168    22155670.9194   22155678.1624
        -0.000          -0.000
  -5783690.476 9  -4471167.01645  24382378.057    24382377.2504   24382384.2364
        -0.000          -0.000
  -5549658.638 9  -4311446.17645  24701638.695    24701638.5614   24701651.8584
        -0.000          -0.000
 99  5  4  2  8  0.0020000  0  7  3 23 21 17 29 31  1                0.002241819
 -10406207.957 9  -7359136.62248  22225710.168    22225709.8424   22225716.9444
        -0.000          -0.000
 -14073380.102 9 -10720890.49548  22244160.051    22244159.3494   22244166.0734
        -0.000          -0.000
 -18467617.282 9 -13958373.26748  21901191.701    21901191.1714   21901198.5144
        -0.000          -0.000
 -15503530.622 9 -11034925.71448  22193707.804    22193707.0664   22193714.5814
        -0.000          -0.000
 -17210646.130 9 -13388454.85048  22142808.572    22142808.4234   22142815.7624
        -0.000          -0.000
  -5849789.182 8  -4522672.47845  24369800.237    24369799.3104   24369806.3694
        -0.000          -0.000
  -5648528.940 9  -4388487.68846  24682824.305    24682824.2464   24682837.0744
        -0.000          -0.000
 99  5  4  2  8 30.0020000  0  7  3 23 21 17 29 31  1                0.002247200
 -10416442.964 9  -7367111.94048  22223762.371    22223762.1104   22223769.2234
        -0.000          -0.000
 -14024107.394 9 -10682496.17948  22253536.194    22253535.4984   22253542.4034
        -0.000          -0.000
 -18477604.069 9 -13966155.16948  21899291.407    21899290.8264   21899298.0914
        -0.000          -0.000
 -15445096.384 9 -10989392.53848  22204827.611    22204826.8084   22204834.1664
        -0.000          -0.000
 -17277857.008 9 -13440826.88948  22130018.651    22130018.5574   22130025.8304
        -0.000          -0.000
  -5915503.446 9  -4573878.32145  24357295.241    24357294.1974   24357301.4224
        -0.000          -0.000
  -5747247.413 9  -4465410.88646  24664039.367    24664038.7714   24664051.2874
        -0.000          -0.000
 99  5  4  2  9  0.0020000  0  7  3 23 21 17 29 31  1                0.002252573
 -10426127.410 9  -7374658.25348  22221919.558    22221919.2364   22221926.2914
        -0.000          -0.000
 -13974761.694 9 -10644044.98948  22262926.203    22262925.5284   22262932.6544
        -0.000          -0.000
 -18487474.584 9 -13973846.47148  21897413.203    21897412.6164   21897419.7704
        -0.000          -0.000
 -15386359.828 9 -10943623.79648  22216004.820    22216004.0114   22216011.4094
        -0.000          -0.000
 -17344705.167 9 -13492916.30348  22117297.960    22117297.7844   22117304.9904
        -0.000          -0.000
  -5980843.014 8  -4624792.20645  24344861.427    24344860.1954   24344867.7184
        -0.000          -0.000
  -5845837.804 9  -4542234.25846  24645278.447    24645277.5504   24645290.0984
        -0.000          -0.000
 99  5  4  2  9 30.0020000  0  7  3 23 21 17 29 31  1                0.002257957
 -10435226.974 9  -7381748.81048  22220188.031    22220187.6444   22220194.7214
        -0.000          -0.000
 -13925292.559 9 -10605497.60348  22272339.728    22272339.1114   22272346.3784
        -0.000          -0.000
 -18497198.146 9 -13981423.26048  21895563.004    21895562.3984   21895569.3944
        -0.000          -0.000
 -15327296.637 9 -10897600.54548  22227244.151    22227243.3504   22227250.8414
        -0.000          -0.000
 -17411157.232 9 -13544697.04948  22104652.484    22104652.2884   22104659.5834
        -0.000          -0.000
  -6045775.845 8  -4675389.19545  24332504.792    24332503.6294   24332511.2914
        -0.000          -0.000
  -5944267.839 9  -4618932.69946  24626547.910    24626546.7174   24626559.2124
        -0.000          -0.000
 99  5  4  2 10  0.0020000  0  7  3 23 21 17 29 31  1                0.002263319
 -10443753.050 9  -7388392.50748  22218565.509    22218565.1574   22218572.2644
        -0.000          -0.000
 -13875716.733 9 -10566867.09448  22281773.619    22281772.9904   22281780.2954
        -0.000          -0.000
 -18506764.747 9 -13988877.74548  21893742.575    21893741.9684   21893748.9364
        -0.000          -0.000
 -15267922.342 9 -10851334.87148  22238542.557    22238541.7684   22238549.3704
        -0.000          -0.000
 -17477215.641 9 -13596171.07948  22092081.755    22092081.6904   22092089.0794
        -0.000          -0.000
  -6110325.622 8  -4725687.66345  24320221.103    24320220.2124   24320227.6874
        -0.000          -0.000
  -6042566.057 9  -4695528.41846  24607841.973    24607840.8374   24607853.5064
        -0.000          -0.000
 99  5  4  2 10 30.0020000  0  7  3 23 21 17 29 31  1                0.002268646
 -10451722.126 9  -7394602.17048  22217049.036    22217048.6774   22217055.7514
        -0.000          -0.000
 -13826044.632 9 -10528161.57248  22291225.890    22291225.2564   22291232.5304
        -0.000          -0.000
 -18516165.203 9 -13996202.76448  21891953.703    21891953.0664   21891960.1024
        -0.000          -0.000
 -15208250.088 9 -10804837.03348  22249897.668    22249896.9074   22249904.7994
        -0.000          -0.000
 -17542880.595 9 -13647338.51148  22079586.315    22079586.1014   22079593.3294
        -0.000          -0.000
  -6174486.458 8  -4775683.05045  24308011.648    24308010.8344   24308017.8474
        -0.000          -0.000
  -6140752.149 9  -4772036.79446  24589157.108    24589156.4114   24589169.0074
        -0.000          -0.000
 99  5  4  2 11  0.0020000  0  7  3 23 21 17 29 31  1                0.002273944
 -10459136.020 9  -7400379.23048  22215638.161    22215637.8144   22215644.9344
        -0.000          -0.000
 -13776281.911 9 -10489385.44148  22300695.379    22300694.7304   22300702.0784
        -0.000          -0.000
 -18525393.400 9 -14003393.55348  21890197.675    21890197.0724   21890204.1244
        -0.000          -0.000
 -15148270.842 9 -10758099.95348  22261311.330    22261310.6254   22261318.4194
        -0.000          -0.000
 -17608157.003 9 -13698203.18248  22067164.471    22067164.3004   22067171.5274
        -0.000          -0.000
  -6238242.579 9  -4825363.11245  24295879.604    24295878.4434   24295885.1494
        -0.000          -0.000
  -6238840.468 9  -4848468.94246  24570491.497    24570490.6244   24570502.9294
        -0.000          -0.000
 99  5  4  2 11 30.0020000  0  8  3  9 23 21 17 29 31  1             0.002279232
 -10465967.333 9  -7405702.32848  22214338.132    22214337.7644   22214344.9664
        -0.000          -0.000
     -1086.04818      -294.08052         0.000           0.0005          0.0005
        -0.000          -0.000
 -13726416.943 9 -10450529.62448  22310184.365    22310183.7414   22310191.1194
        -0.000          -0.000
 -18534422.534 9 -14010429.23148  21888479.506    21888478.9014   21888486.0014
        -0.000          -0.000
 -15087941.625 9 -10711090.17048  22272791.787    22272791.0384   22272798.7224
        -0.000          -0.000
 -17673013.243 9 -13748740.44748  22054822.545    22054822.4144   22054829.6894
        -0.000          -0.000
  -6301557.605 9  -4874699.46845  24283831.685    24283830.2534   24283836.3794
        -0.000          -0.000
  -6336805.931 9  -4924805.35346  24551849.106    24551848.1404   24551860.3624
        -0.000          -0.000
 99  5  4  2 12  0.0020000  0  8  3  9 23 21 17 29 31  1             0.002284510
 -10472218.928 9  -7410573.69948  22213148.427    22213148.0684   22213155.3724
        -0.000          -0.000
     -5772.258 8     -3943.96842         0.000           0.0004          0.0004
        -0.000          -0.000
 -13676464.743 9 -10411605.81648  22319690.024    22319689.4304   22319696.7844
        -0.000          -0.000
 -18543259.664 9 -14017315.29448  21886797.714    21886797.1264   21886804.3534
        -0.000          -0.000
 -15027265.103 9 -10663809.78048  22284338.246    22284337.4844   22284345.1064
        -0.000          -0.000
 -17737457.012 9 -13798956.30848  22042559.282    22042559.1634   22042566.3484
        -0.000          -0.000
  -6364426.859 9  -4923688.44045  24271868.082    24271866.7964   24271872.7444
        -0.000          -0.000
  -6434647.963 9  -5001045.59446  24533230.133    24533229.1904   24533241.3134
        -0.000          -0.000
 99  5  4  2 12 30.0020000  0  8  3  9 23 21 17 29 31  1             0.002289797
 -10477873.324 9  -7414979.71148  22212072.455    22212072.1324   22212079.4294
        -0.000          -0.000
     -9961.203 8     -7201.03652         0.000           0.0004          0.0005
        -0.000          -0.000
 -13626414.243 9 -10372605.43348  22329214.421    22329213.8274   22329221.2284
        -0.000          -0.000
 -18551904.490 9 -14024051.51248  21885152.492    21885151.9554   21885159.2354
        -0.000          -0.000
 -14966231.529 9 -10616251.17248  22295952.675    22295951.8734   22295959.3234
        -0.000          -0.000
 -17801500.448 9 -13848860.23048  22030372.217    22030372.0424   22030379.1774
        -0.000          -0.000
  -6426836.966 8  -4972319.63445  24259991.495    24259990.4584   24259996.6364
        -0.000          -0.000
  -6532346.527 9  -5077174.05646  24514638.356    24514637.5004   24514649.6024
        -0.000          -0.000
 99  5  4  2 13  0.0020000  0  8  3  9 23 21 17 29 31  1             0.002295080
 -10482922.569 9  -7418914.19048  22211111.748    22211111.3974   22211118.5424
        -0.000          -0.000
    -13656.71918       -25.33452         0.000           0.0005          0.0005
        -0.000          -0.000
 -13576278.792 9 -10333538.84748  22338755.099    22338754.4424   22338761.7534
        -0.000          -0.000
 -18560368.592 9 -14030646.89548  21883541.770    21883541.2404   21883548.4774
        -0.000          -0.000
 -14904839.606 9 -10568413.31648  22307635.198    22307634.3964   22307641.8114
        -0.000          -0.000
 -17865160.833 9 -13898465.66548  22018257.777    22018257.6784   22018264.9224
        -0.000          -0.000
  -6488804.004 9  -5020605.56545  24248199.078    24248198.1134   24248204.9054
        -0.000          -0.000
  -6629877.395 9  -5153171.87246  24496078.369    24496077.7594   24496089.7504
        -0.000          -0.000
 99  5  4  2 13 30.0020000  0  8  3  9 23 21 17 29 31  1             0.002300397
 -10487382.181 9  -7422389.20748  22210263.258    22210262.8454   22210269.8784
        -0.000          -0.000
    -16875.622 8     -2537.28142         0.000           0.0004          0.0004
        -0.000          -0.000
 -13526068.359 9 -10294413.83248  22348310.000    22348309.2674   22348316.4444
        -0.000          -0.000
 -18568657.063 9 -14037105.43248  21881964.493    21881963.9914   21881971.0864
        -0.000          -0.000
 -14843103.800 9 -10520307.48448  22319383.125    22319382.3534   22319389.7814
        -0.000          -0.000
 -17928452.755 9 -13947783.98448  22006213.476    22006213.4254   22006220.7414
        -0.000          -0.000
  -6550334.616 8  -5068551.42345  24236489.357    24236488.6994   24236496.2464
        -0.000          -0.000
  -6727231.825 9  -5229032.19546  24477552.245    24477551.5944   24477563.5514
        -0.000          -0.000
 99  5  4  2 14  0.0020000  0  8  3  9 23 21 17 29 31  1             0.002305710
 -10491253.109 9  -7425405.52048  22209526.592    22209526.2354   22209533.2224
        -0.000          -0.000
    -19612.331 8     -4690.53152         0.000           0.0004          0.0005
        -0.000          -0.000
 -13475771.986 9 -10255221.85548  22357881.076    22357880.3424   22357887.4804
        -0.000          -0.000
 -18576765.302 9 -14043423.50748  21880421.693    21880421.1104   21880427.9704
        -0.000          -0.000
 -14781032.317 9 -10471940.10248  22331194.857    22331194.0964   22331201.7214
        -0.000          -0.000
 -17991378.973 9 -13996817.33148  21994239.075    21994238.9054   21994246.2644
        -0.000          -0.000
  -6611446.296 8  -5116170.83245  24224859.475    24224859.0404   24224867.3554
        -0.000          -0.000
  -6824409.713 9  -5304754.97446  24459059.487    24459059.1064   24459070.9644
        -0.000          -0.000
 99  5  4  2 14 30.0020000  0  8  3  9 23 21 17 29 31  1             0.002311016
 -10494549.139 9  -7427973.85648  22208899.339    22208899.0004   22208906.0804
        -0.000          -0.000
    -21863.987 7     -6465.72952         0.000           0.0004          0.0005
        -0.000          -0.000
 -13425390.567 9 -10215963.61148  22367468.291    22367467.5944   22367474.7684
        -0.000          -0.000
 -18584701.261 9 -14049607.35548  21878911.549    21878910.9254   21878917.7494
        -0.000          -0.000
 -14718632.373 9 -10423316.78448  22343069.234    22343068.4564   22343076.0824
        -0.000          -0.000
 -18053956.523 9 -14045579.00248  21982330.887    21982330.6794   21982338.1494
        -0.000          -0.000
  -6672159.412 8  -5163479.70046  24213305.801    24213305.5074   24213313.9254
        -0.000          -0.000
  -6921422.088 9  -5380348.77546  24440598.234    24440597.9674   24440609.8654
        -0.000          -0.000
 99  5  4  2 15  0.0020000  0  8  3  9 23 21 17 29 31  1             0.002316315
 -10497284.173 9  -7430105.04848  22208378.824    22208378.5394   22208385.7044
        -0.000          -0.000
    -23611.44617     -1252.39652         0.000           0.0005          0.0005
        -0.000          -0.000
 -13374916.722 9 -10176633.34148  22377073.123    22377072.4354   22377079.6904
        -0.000          -0.000
 -18592464.992 9 -14055657.00048  21877434.031    21877433.4584   21877440.3704
        -0.000          -0.000
 -14655898.393 9 -10374433.19748  22355007.131    22355006.3314   22355014.0064
        -0.000          -0.000
 -18116172.484 9 -14094058.91548  21970491.597    21970491.3654   21970498.7344
        -0.000          -0.000
  -6732469.784 9  -5210474.71646  24201829.011    24201828.8024   24201837.1684
        -0.000          -0.000
  -7018273.810 9  -5455817.41646  24422168.131    24422167.4664   24422179.2454
        -0.000          -0.000
 99  5  4  2 15 30.0020000  0  9  3  9 23 21 17  8 29 31  1          0.002321655
 -10499449.922 9  -7431792.64448  22207966.903    22207966.5454   22207973.7214
        -0.000          -0.000
    -24854.10217     -2275.22352         0.000           0.0005          0.0005
        -0.000          -0.000
 -13324330.077 9 -10137215.18448  22386699.418    22386698.7114   22386706.0434
        -0.000          -0.000
 -18600058.836 9 -14061574.26148  21875988.966    21875988.4284   21875995.3254
        -0.000          -0.000
 -14592826.481 9 -10325286.27848  22367009.334    22367008.5324   22367016.2824
        -0.000          -0.000
    -24626.20918     -3607.96252         0.000           0.0005          0.0005
        -0.000          -0.000
 -18178002.150 9 -14142237.82148  21958725.940    21958725.6404   21958732.8624
        -0.000          -0.000
  -6792355.994 9  -5257139.23346  24190432.901    24190432.7724   24190441.2114
        -0.000          -0.000
  -7114980.836 9  -5531173.32046  24403765.319    24403764.4764   24403776.1614
        -0.000          -0.000
 99  5  4  2 16  0.0020000  0  9  3  9 23 21 17  8 29 31  1          0.002326943
 -10501019.341 9  -7433015.57248  22207668.363    22207667.9714   22207675.0484
        -0.000          -0.000
    -25568.72418     -2886.59952         0.000           0.0005          0.0005
        -0.000          -0.000
 -13273609.346 9 -10097692.54148  22396351.195    22396350.4794   22396357.8914
        -0.000          -0.000
 -18607490.797 9 -14067365.37548  21874574.804    21874574.2174   21874581.1884
        -0.000          -0.000
 -14529398.464 9 -10275861.85848  22379079.356    22379078.5564   22379086.1834
        -0.000          -0.000
    -85673.155 8    -51172.70942         0.000           0.0004          0.0004
        -0.000          -0.000
 -18239408.438 9 -14190086.81248  21947040.780    21947040.4504   21947047.5964
        -0.000          -0.000
  -6851810.274 9  -5303467.16946  24179119.004    24179118.8644   24179127.4594
        -0.000          -0.000
  -7211529.802 9  -5606406.07346  24385392.299    24385391.6754   24385403.1234
        -0.000          -0.000
 99  5  4  2 16 30.0020000  0  9  3  9 23 21 17  8 29 31  1          0.002332213
 -10502024.497 9  -7433798.82148  22207477.165    22207476.7834   22207483.6894
        -0.000          -0.000
    -25781.32518      -119.40652         0.000           0.0005          0.0005
        -0.000          -0.000
 -13222803.761 9 -10058103.79648  22406019.103    22406018.4464   22406025.8134
        -0.000          -0.000
 -18614805.656 9 -14073065.24948  21873182.897    21873182.2814   21873189.1964
        -0.000          -0.000
 -14465635.271 9 -10226176.26848  22391213.089    22391212.3364   22391219.9484
        -0.000          -0.000
   -146536.24918    -98580.40452         0.000           0.0005          0.0005
        -0.000          -0.000
 -18300404.555 9 -14237616.21048  21935433.666    21935433.3064   21935440.3944
        -0.000          -0.000
  -6910842.548 9  -5349466.31146  24167885.302    24167885.4314   24167894.1734
        -0.000          -0.000
  -7307934.287 9  -5681526.24246  24367046.896    24367046.4154   24367057.6294
        -0.000          -0.000
 99  5  4  2 17  0.0020000  0  9  3  9 23 21 17  8 29 31  1          0.002337478
 -10502449.736 9  -7434130.17948  22207396.426    22207395.9404   22207402.8074
        -0.000          -0.000
    -25503.123 8        66.52852         0.000           0.0004          0.0005
        -0.000          -0.000
 -13171920.688 9 -10018454.64748  22415701.861    22415701.2034   22415708.4614
        -0.000          -0.000
 -18621995.817 9 -14078667.95348  21871814.704    21871814.0184   21871820.9374
        -0.000          -0.000
 -14401540.146 9 -10176232.01848  22403410.081    22403409.3224   22403416.7964
        -0.000          -0.000
   -207197.35318      -418.89052         0.000           0.0005          0.0005
        -0.000          -0.000
 -18360956.999 9 -14284799.88248  21923910.853    21923910.5534   21923917.6614
        -0.000          -0.000
  -6969434.882 9  -5395122.58846  24156735.497    24156735.4914   24156744.6064
        -0.000          -0.000
  -7404180.080 9  -5756522.74946  24348732.117    24348731.4054   24348742.2854
        -0.000          -0.000
 99  5  4  2 17 30.0020000  0  9  3  9 23 21 17  8 29 31  1          0.002342728
 -10502299.612 9  -7434013.20848  22207424.906    22207424.4404   22207431.4384
        -0.000          -0.000
    -24748.961 8       623.33852         0.000           0.0004          0.0005
        -0.000          -0.000
 -13120975.310 9  -9978756.94348  22425396.472    22425395.8224   22425402.9954
        -0.000          -0.000
 -18629086.591 9 -14084193.20648  21870465.268    21870464.5934   21870471.5834
        -0.000          -0.000
 -14337138.966 9 -10126049.28348  22415665.269    22415664.4684   22415671.9074
        -0.000          -0.000
   -267653.455 8    -47529.69242         0.000           0.0004          0.0004
        -0.000          -0.000
 -18421083.340 9 -14331651.53148  21912469.066    21912468.8244   21912475.9594
        -0.000          -0.000
  -7027599.168 9  -5440445.34646  24145666.996    24145667.0224   24145676.4274
        -0.000          -0.000
  -7500273.964 9  -5831400.88946  24330445.654    24330444.9944   24330455.9644
        -0.000          -0.000
 99  5  4  2 18  0.0020000  0  9  3  9 23 21 17  8 29 31  1          0.002347972
 -10501584.035 9  -7433455.62248  22207560.992    22207560.6364   22207567.7054
        -0.000          -0.000
    -23501.23217       787.52852         0.000           0.0005          0.0005
        -0.000          -0.000
 -13069982.019 9  -9939021.90148  22435100.220    22435099.5644   22435106.6394
        -0.000          -0.000
 -18636061.756 9 -14089628.38048  21869137.843    21869137.2014   21869144.2514
        -0.000          -0.000
 -14272420.593 9 -10075619.39948  22427980.725    22427979.9824   22427987.5434
        -0.000          -0.000
   -327888.659 8    -94480.30752         0.000           0.0004          0.0005
        -0.000          -0.000
 -18480795.576 9 -14378180.48748  21901106.311    21901106.0204   21901113.0444
        -0.000          -0.000
  -7085335.189 9  -5485434.41846  24134680.499    24134680.4284   24134689.4204
        -0.000          -0.000
  -7596195.642 9  -5906144.85446  24312191.687    24312191.5214   24312202.5504
        -0.000          -0.000
 99  5  4  2 18 30.0020000  0  9  3  9 23 21 17  8 29 31  1          0.002353222
 -10500300.334 9  -7432455.34948  22207805.266    22207804.9074   22207811.9874
        -0.000          -0.000
    -21757.689 8      2198.86052         0.000           0.0004          0.0005
        -0.000          -0.000
 -13018949.851 9  -9899256.58248  22444811.325    22444810.6614   22444817.7554
        -0.000          -0.000
 -18642888.435 9 -14094947.86248  21867838.705    21867838.0814   21867845.2764
        -0.000          -0.000
 -14207385.193 9 -10024942.47448  22440356.526    22440355.7254   22440363.4144
        -0.000          -0.000
   -387897.695 7   -141254.75152         0.000           0.0004          0.0005
        -0.000          -0.000
 -18540102.010 9 -14424393.24248  21889820.701    21889820.4034   21889827.3644
        -0.000          -0.000
  -7142624.685 9  -5530075.56546  24123778.921    24123778.6354   24123787.1944
        -0.000          -0.000
  -7691938.281 9  -5980749.31446  24293972.215    24293972.0144   24293983.2214
        -0.000          -0.000
 99  5  4  2 19  0.0020000  0  9  3  9 23 21 17  8 29 31  1          0.002358484
 -10498429.728 9  -7430997.75048  22208161.271    22208160.8904   22208167.9314
        -0.000          -0.000
    -19491.619 8      4021.12152         0.000           0.0004          0.0005
        -0.000          -0.000
 -12967840.951 9  -9859431.47048  22454537.161    22454536.4774   22454543.5654
        -0.000          -0.000
 -18649535.073 9 -14100127.04948  21866573.895    21866573.2374   21866580.5004
        -0.000          -0.000
 -14142010.306 9  -9974001.02448  22452796.938    22452796.1634   22452803.8594
        -0.000          -0.000
   -447630.56417    -43063.16352         0.000           0.0005          0.0005
        -0.000          -0.000
 -18598984.220 9 -14470275.43948  21878615.747    21878615.4904   21878622.4154
        -0.000          -0.000
  -7199451.606 9  -5574356.23646  24112965.458    24112964.9914   24112972.9544
        -0.000          -0.000
  -7787499.358 9  -6055212.28546  24275787.428    24275787.1134   24275798.6584
        -0.000          -0.000
 99  5  4  2 19 30.0020000  0  8  3  9 23 21 17 29 31  1             0.002363772
 -10495991.344 9  -7429097.71148  22208625.201    22208624.7804   22208631.9274
        -0.000          -0.000
    -16690.68118      1555.11152         0.000           0.0005          0.0005
        -0.000          -0.000
 -12916660.949 9  -9819550.96248  22464276.459    22464275.6964   22464282.8714
        -0.000          -0.000
 -18656012.641 9 -14105174.48048  21865341.237    21865340.5904   21865347.8024
        -0.000          -0.000
 -14076286.526 9  -9922787.69448  22465303.851    22465303.0344   22465310.6034
        -0.000          -0.000
 -18657463.545 9 -14515843.69648  21867487.496    21867487.2744   21867494.0564
        -0.000          -0.000
  -7255827.682 8  -5618285.60546  24102237.339    24102236.8894   24102244.7824
        -0.000          -0.000
  -7882887.560 9  -6129540.53546  24257635.490    24257634.9394   24257646.6674
        -0.000          -0.000
 99  5  4  2 20  0.0020000  0  8  3  9 23 21 17 29 31  1             0.002369060
 -10492965.654 9  -7426740.03748  22209200.777    22209200.3814   22209207.7504
        -0.000          -0.000
    -13345.806 8      4170.81352         0.000           0.0004          0.0005
        -0.000          -0.000
 -12865398.110 9  -9779605.89948  22474031.460    22474030.6534   22474037.8784
        -0.000          -0.000
 -18662287.040 9 -14110063.60348  21864147.182    21864146.5364   21864153.7974
        -0.000          -0.000
 -14010180.064 9  -9871276.18648  22477883.607    22477882.7954   22477890.1714
        -0.000          -0.000
 -18715495.021 9 -14561062.97948  21856444.500    21856444.3084   21856450.8614
        -0.000          -0.000
  -7311726.748 9  -5661843.30346  24091599.994    24091599.5134   24091607.5724
        -0.000          -0.000
  -7978079.848 9  -6203716.15146  24239520.628    24239520.2394   24239531.8564
        -0.000          -0.000
 99  5  4  2 20 30.0020000  0  8  3  9 23 21 17 29 31  1             0.002374339
 -10489353.360 9  -7423925.28648  22209888.115    22209887.7454   22209895.2274
        -0.000          -0.000
     -9477.133 8      7196.30652         0.000           0.0004          0.0005
        -0.000          -0.000
 -12814054.677 9  -9739598.03348  22483801.710    22483800.9394   22483808.0534
        -0.000          -0.000
 -18668385.911 9 -14114815.94848  21862986.520    21862985.9104   21862993.1964
        -0.000          -0.000
 -13943714.612 9  -9819484.93848  22490531.543    22490530.6904   22490538.0714
        -0.000          -0.000
 -18773079.251 9 -14605933.75848  21845486.620    21845486.4144   21845492.8074
        -0.000          -0.000
  -7367170.043 8  -5705045.82646  24081049.064    24081048.7784   24081057.3944
        -0.000          -0.000
  -8073095.706 9  -6277754.26846  24221439.537    24221439.0184   24221450.6704
        -0.000          -0.000
 99  5  4  2 21  0.0020000  0  8  3  9 23 21 17 29 31  1             0.002379621
 -10485145.775 9  -7420646.66148  22210688.888    22210688.5004   22210695.8884
        -0.000          -0.000
     -5074.47418      2140.23152         0.000           0.0005          0.0005
        -0.000          -0.000
 -12762618.669 9  -9699518.01648  22493589.703    22493588.9324   22493595.9464
        -0.000          -0.000
 -18674314.521 9 -14119435.62648  21861858.339    21861857.7904   21861864.9594
        -0.000          -0.000
 -13876872.075 9  -9767399.86647  22503251.212    22503250.3644   22503257.7424
        -0.000          -0.000
 -18830210.677 9 -14650451.69648  21834614.834    21834614.6214   21834620.9514
        -0.000          -0.000
  -7422142.212 8  -5747881.23846  24070587.628    24070587.5214   24070596.9894
        -0.000          -0.000
  -8167926.562 9  -6351648.22546  24203393.854    24203393.0604   24203404.6064
        -0.000          -0.000
 99  5  4  2 21 30.0020000  0  8  3  9 23 21 17 29 31  1             0.002384890
 -10480360.319 9  -7416917.75248  22211599.552    22211599.2104   22211606.4154
        -0.000          -0.000
      -178.436 8      5970.09352         0.000           0.0004          0.0005
        -0.000          -0.000
 -12711126.482 9  -9659394.24148  22503388.374    22503387.6194   22503394.6524
        -0.000          -0.000
 -18680104.310 9 -14123947.12948  21860756.697    21860756.0744   21860763.1594
        -0.000          -0.000
 -13809690.643 9  -9715050.71647  22516035.398    22516034.5844   22516041.8654
        -0.000          -0.000
 -18886928.508 9 -14694647.36048  21823821.875    21823821.5734   21823827.9024
        -0.000          -0.000
  -7476663.090 9  -5790365.03046  24060212.518    24060212.4114   24060221.9154
        -0.000          -0.000
  -8262588.380 9  -6425410.48546  24185379.998    24185379.3114   24185390.8614
        -0.000          -0.000
 99  5  4  2 22  0.0020000  0  8  3  9 23 21 17 29 31  1             0.002390152
 -10474975.739 9  -7412721.98748  22212624.247    22212623.8914   22212631.1524
        -0.000          -0.000
      5224.171 8     10199.11352         0.000           0.0004          0.0005
        -0.000          -0.000
 -12659559.580 9  -9619212.24648  22513201.196    22513200.4664   22513207.5274
        -0.000          -0.000
 -18685730.269 9 -14128330.97548  21859686.111    21859685.5354   21859692.5234
        -0.000          -0.000
 -13742169.114 9  -9662436.57347  22528884.379    22528883.5784   22528890.7264
        -0.000          -0.000
 -18943218.091 9 -14738509.31748  21813110.167    21813109.9194   21813116.4464
        -0.000          -0.000
  -7530712.643 9  -5832481.53046  24049927.388    24049927.3514   24049936.4344
        -0.000          -0.000
  -8357073.270 9  -6499034.89346  24167400.106    24167399.4084   24167410.7664
        -0.000          -0.000
 99  5  4  2 22 30.0020000  0  8  3  9 23 21 17 29 31  1             0.002395402
 -10469000.928 9  -7408066.30348  22213761.088    22213760.8134   22213768.1994
        -0.000          -0.000
     11133.02018      2468.35952         0.000           0.0005          0.0005
        -0.000          -0.000
 -12607922.138 9  -9578975.28848  22523027.505    22523026.8034   22523033.8224
        -0.000          -0.000
 -18691201.063 9 -14132593.91548  21858645.076    21858644.4854   21858651.4074
        -0.000          -0.000
 -13674322.638 9  -9609569.19547  22541795.205    22541794.3614   22541801.4004
        -0.000          -0.000
 -18999107.824 9 -14782059.70748  21802474.599    21802474.4014   21802480.9934
        -0.000          -0.000
  -7584301.647 9  -5874239.16346  24039729.863    24039729.7614   24039738.7034
        -0.000          -0.000
  -8451394.118 9  -6572531.46946  24149451.724    24149450.8724   24149461.8354
        -0.000          -0.000
 99  5  4  2 23  0.0020000  0  8  3  9 23 21 17 29 31  1             0.002400633
 -10462456.931 9  -7402967.09948  22215006.428    22215006.0914   22215013.4864
        -0.000          -0.000
     17535.399 8      7452.81252         0.000           0.0004          0.0005
        -0.000          -0.000
 -12556224.687 9  -9538691.56348  22532865.200    22532864.5224   22532871.4874
        -0.000          -0.000
 -18696518.751 9 -14136737.54248  21857633.214    21857632.5764   21857639.4304
        -0.000          -0.000
 -13606162.276 9  -9556457.22047  22554765.582    22554764.7724   22554771.9024
        -0.000          -0.000
 -19054612.647 9 -14825310.16948  21791912.363    21791912.1334   21791918.7054
        -0.000          -0.000
  -7637436.842 9  -5915643.18946  24029618.591    24029618.5014   24029627.1744
        -0.000          -0.000
  -8545552.117 9  -6645901.15746  24131534.292    24131533.4874   24131543.9194
        -0.000          -0.000
 99  5  4  2 23 30.0020000  0  8  3  9 23 21 17 29 31  1             0.002405833
 -10455364.794 9  -7397440.78648  22216356.092    22216355.7174   22216362.9794
        -0.000          -0.000
     24423.733 8     12813.83852         0.000           0.0004          0.0005
        -0.000          -0.000
 -12504466.091 9  -9498360.18048  22542714.584    22542713.8644   22542720.7164
        -0.000          -0.000
 -18701696.887 9 -14140772.44248  21856647.756    21856647.1284   21856654.0514
        -0.000          -0.000
 -13537707.475 9  -9503115.83147  22567792.122    22567791.3334   22567798.5614
        -0.000          -0.000
 -19109736.437 9 -14868263.72148  21781422.625    21781422.3854   21781428.8844
        -0.000          -0.000
  -7690151.866 9  -5956719.81046  24019587.365    24019587.1264   24019595.6854
        -0.000          -0.000
  -8639548.514 9  -6719144.92946  24113647.424    24113646.6504   24113656.8184
        -0.000          -0.000
 99  5  4  2 24  0.0020000  0  8  3  9 23 21 17 29 31  1             0.002411018
 -10447703.945 9  -7391471.31048  22217813.897    22217813.5284   22217820.6484
        -0.000          -0.000
     31831.06718      2604.18252         0.000           0.0005          0.0005
        -0.000          -0.000
 -12452616.272 9  -9457957.71948  22552581.319    22552580.5734   22552587.4074
        -0.000          -0.000
 -18706715.587 9 -14144683.09348  21855692.616    21855692.0394   21855699.0394
        -0.000          -0.000
 -13468925.603 9  -9449519.58948  22580880.975    22580880.1224   22580887.4824
        -0.000          -0.000
 -19164435.183 9 -14910886.07048  21771013.692    21771013.5114   21771019.9274
        -0.000          -0.000
  -7742419.547 9  -5997447.84346  24009641.244    24009641.0514   24009649.4884
        -0.000          -0.000
  -8733350.258 9  -6792237.02946  24095797.444    24095796.6884   24095806.8294
        -0.000          -0.000
 99  5  4  2 24 30.0020000  0  8  3  9 23 21 17 29 31  1             0.002416191
 -10439495.183 9  -7385074.89548  22219376.048    22219375.6564   22219382.7124
        -0.000          -0.000
     39732.692 8      8757.79652         0.000           0.0004          0.0005
        -0.000          -0.000
 -12400689.545 9  -9417495.34148  22562462.628    22562461.8534   22562468.7984
        -0.000          -0.000
 -18711605.400 9 -14148493.30348  21854762.151    21854761.6034   21854768.5964
        -0.000          -0.000
 -13399834.377 9  -9395682.28648  22594028.547    22594027.7304   22594035.2854
        -0.000          -0.000
 -19218729.707 9 -14953193.44448  21760681.848    21760681.6634   21760687.9834
        -0.000          -0.000
  -7794245.948 9  -6037832.03346  23999779.079    23999778.8994   23999787.2724
        -0.000          -0.000
  -8826951.862 9  -6865173.16946  24077985.279    24077984.7584   24077995.0034
        -0.000          -0.000
 99  5  4  2 25  0.0020000  0  8  3  9 23 21 17 29 31  1             0.002421363
 -10430736.293 9  -7378249.79748  22221042.931    22221042.4924   22221049.4114
        -0.000          -0.000
     48137.321 8     15301.07652         0.000           0.0004          0.0005
        -0.000          -0.000
 -12348688.061 9  -9376974.71548  22572358.110    22572357.3324   22572364.3714
        -0.000          -0.000
 -18716382.192 9 -14152215.46348  21853853.183    21853852.5634   21853859.6574
        -0.000          -0.000
 -13330438.982 9  -9341607.95247  22607234.118    22607233.2984   22607240.8554
        -0.000          -0.000
 -19272623.650 9 -14995188.67248  21750426.211    21750425.9944   21750432.2754
        -0.000          -0.000
  -7845626.070 9  -6077868.46346  23990001.779    23990001.5774   23990010.0564
        -0.000          -0.000
  -8920336.572 9  -6937940.28746  24060214.623    24060214.0314   24060224.3384
        -0.000          -0.000
 99  5  4  2 25 30.0020000  0  8  3  9 23 21 17 29 31  1             0.002426559
 -10421386.732 9  -7370964.43548  22222822.100    22222821.6514   22222828.5634
        -0.000          -0.000
     57073.53018      2552.61852         0.000           0.0005          0.0005
        -0.000          -0.000
 -12296601.724 9  -9336387.95148  22582269.790    22582269.0014   22582276.0644
        -0.000          -0.000
 -18721027.479 9 -14155835.14048  21852969.137    21852968.5454   21852975.6544
        -0.000          -0.000
 -13260708.913 9  -9287272.86347  22620503.461    22620502.6124   22620510.0684
        -0.000          -0.000
 -19326092.381 9 -15036852.57648  21740251.356    21740251.1684   21740257.5304
        -0.000          -0.000
  -7896519.363 9  -6117525.53646  23980317.223    23980316.9624   23980325.1864
        -0.000          -0.000
  -9013483.484 9  -7010522.10746  24042489.245    24042488.4824   24042498.8394
        -0.000          -0.000
 99  5  4  2 26  0.0020000  0  7  3 23 21 17 29 31  1                0.002431693
 -10411434.996 9  -7363209.84548  22224715.823    22224715.3804   22224722.3334
        -0.000          -0.000
 -12244449.557 9  -9295749.89048  22592193.828    22592193.0814   22592200.1814
        -0.000          -0.000
 -18725542.378 9 -14159353.22448  21852109.996    21852109.4194   21852116.4994
        -0.000          -0.000
 -13190644.563 9  -9232677.28547  22633836.213    22633835.3714   22633842.6964
        -0.000          -0.000
 -19379141.638 9 -15078189.59548  21730156.371    21730156.1764   21730162.6164
        -0.000          -0.000
  -7946911.644 9  -6156792.23846  23970728.188    23970727.7504   23970735.8914
        -0.000          -0.000
  -9106403.850 9  -7082927.42146  24024806.691    24024805.9944   24024816.1844
        -0.000          -0.000
 99  5  4  2 26 30.0020000  0  7  3 23 21 17 29 31  1                0.002436937
 -10400888.986 9  -7354992.19848  22226722.517    22226722.1704   22226729.1814
        -0.000          -0.000
 -12192242.178 9  -9255068.82148  22602128.465    22602127.7234   22602134.9444
        -0.000          -0.000
 -18729925.389 9 -14162768.53448  21851275.999    21851275.4274   21851282.5054
        -0.000          -0.000
 -13120252.103 9  -9177826.02547  22647231.338    22647230.5194   22647237.7004
        -0.000          -0.000
 -19431783.394 9 -15119209.10548  21720138.909    21720138.6814   21720145.2184
        -0.000          -0.000
  -7996810.989 9  -6195674.82546  23961233.132    23961232.4844   23961240.2444
        -0.000          -0.000
  -9199102.099 9  -7155159.67146  24007166.448    24007165.9354   24007175.9184
        -0.000          -0.000
 99  5  4  2 27  0.0020000  0  7  3 23 21 17 29 31  1                0.002442173
 -10389752.000 9  -7346314.02748  22228841.878    22228841.5034   22228848.5454
        -0.000          -0.000
 -12139990.276 9  -9214353.06748  22612071.673    22612070.9294   22612078.2344
        -0.000          -0.000
 -18734179.455 9 -14166083.36648  21850466.519    21850465.9174   21850472.9884
        -0.000          -0.000
 -13049523.745 9  -9122713.02947  22660690.258    22660689.5114   22660696.9234
        -0.000          -0.000
 -19484001.957 9 -15159898.85248  21710201.849    21710201.7104   21710208.2934
        -0.000          -0.000
  -8046236.314 9  -6234188.04446  23951828.074    23951827.3854   23951834.7994
        -0.000          -0.000
  -9291607.497 9  -7227241.63446  23989563.299    23989562.5814   23989572.4434
        -0.000          -0.000
 99  5  4  2 27 30.0020000  0  7  3 23 21 17 29 31  1                0.002447390
 -10378026.390 9  -7337177.19648  22231073.168    22231072.8194   22231079.9294
        -0.000          -0.000
 -12087683.801 9  -9173594.77348  22622025.240    22622024.5384   22622031.7534
        -0.000          -0.000
 -18738276.934 9 -14169276.17948  21849686.814    21849686.2274   21849693.1824
        -0.000          -0.000
 -12978437.884 9  -9067321.45547  22674217.346    22674216.6474   22674224.1514
        -0.000          -0.000
 -19535771.473 9 -15200238.69348  21700350.372    21700350.2304   21700356.8164
        -0.000          -0.000
  -8095180.402 9  -6272326.29146  23942514.405    23942513.7134   23942521.0664
        -0.000          -0.000
  -9383927.931 9  -7299179.47046  23971995.128    23971994.4044   23972004.2484
        -0.000          -0.000
 99  5  4  2 28  0.0020000  0  7  3 23 21 17 29 31  1                0.002452594
 -10365733.088 9  -7327598.00448  22233412.564    22233412.2094   22233419.2434
        -0.000          -0.000
 -12035304.281 9  -9132779.55248  22631992.720    22631992.0384   22631999.1364
        -0.000          -0.000
 -18742206.926 9 -14172338.49548  21848938.852    21848938.2354   21848945.2524
        -0.000          -0.000
 -12906991.431 9  -9011648.92447  22687813.294    22687812.5444   22687819.9824
        -0.000          -0.000
 -19587083.644 9 -15240222.16048  21690586.106    21690585.9594   21690592.4534
        -0.000          -0.000
  -8143641.505 9  -6310088.16446  23933292.674    23933291.9864   23933299.1484
        -0.000          -0.000
  -9476054.464 9  -7370966.24246  23954463.491    23954463.0214   23954472.9834
        -0.000          -0.000
 99  5  4  2 28 30.0020000  0  7  3 23 21 17 29 31  1                0.002457812
 -10352862.972 9  -7317569.34348  22235861.675    22235861.3044   22235868.3394
        -0.000          -0.000
 -11982815.840 9  -9091879.47348  22641980.951    22641980.2334   22641987.3564
        -0.000          -0.000
 -18745948.584 9 -14175254.05748  21848226.587    21848226.0284   21848233.1304
        -0.000          -0.000
 -12835158.203 9  -8955675.00447  22701482.827    22701482.0214   22701489.4514
        -0.000          -0.000
 -19637910.769 9 -15279827.65948  21680914.060    21680913.8164   21680920.3654
        -0.000          -0.000
  -8191587.204 9  -6347448.43046  23924168.766    23924168.0934   23924175.3524
        -0.000          -0.000
  -9567952.715 9  -7442575.08946  23936975.892    23936975.3374   23936985.1814
        -0.000          -0.000
 99  5  4  2 29  0.0020000  0  7  3 23 21 17 29 31  1                0.002463033
 -10339427.452 9  -7307100.10548  22238418.386    22238417.9544   22238425.0354
        -0.000          -0.000
 -11930236.969 9  -9050908.94648  22651986.387    22651985.6564   22651992.8824
        -0.000          -0.000
 -18749516.788 9 -14178034.46048  21847547.463    21847546.9284   21847554.0804
        -0.000          -0.000
 -12762954.219 9  -8899412.17747  22715222.784    22715221.9994   22715229.6154
        -0.000          -0.000
 -19688268.174 9 -15319067.14248  21671331.167    21671330.9704   21671337.6014
        -0.000          -0.000
  -8239026.429 9  -6384414.03746  23915141.025    23915140.4944   23915147.8784
        -0.000          -0.000
  -9659640.612 9  -7514019.99946  23919528.355    23919527.6154   23919537.2974
        -0.000          -0.000
 99  5  4  2 29 30.0020000  0  7  3 23 21 17 29 31  1                0.002468272
 -10325426.910 9  -7296190.58848  22241082.686    22241082.2094   22241089.3694
        -0.000          -0.000
 -11877568.398 9  -9009868.50748  22662008.854    22662008.1484   22662015.3594
        -0.000          -0.000
 -18752911.799 9 -14180679.91048  21846901.408    21846900.8364   21846908.0624
        -0.000          -0.000
 -12690397.600 9  -8842874.57347  22729029.858    22729029.0604   22729036.8234
        -0.000          -0.000
 -19738174.916 9 -15357955.46948  21661834.119    21661833.9454   21661840.5954
        -0.000          -0.000
  -8285944.608 9  -6420973.64346  23906212.751    23906212.0854   23906219.4714
        -0.000          -0.000
  -9751101.333 9  -7585287.91746  23902123.623    23902123.0644   23902132.6164
        -0.000          -0.000
 99  5  4  2 30  0.0020000  0  8  3 23 21 17  8 29 31  1             0.002473528
 -10310853.409 9  -7284834.60248  22243855.977    22243855.4104   22243862.7734
        -0.000          -0.000
 -11824809.615 9  -8968757.78048  22672048.594    22672047.8984   22672054.9804
        -0.000          -0.000
 -18756151.003 9 -14183203.94948  21846284.902    21846284.3524   21846291.6154
        -0.000          -0.000
 -12617500.238 9  -8786071.45847  22742901.854    22742901.0474   22742908.6534
        -0.000          -0.000
    -11524.35218     -3169.17552         0.000           0.0005          0.0005
        -0.000          -0.000
 -19787634.585 9 -15396495.42048  21652422.135    21652421.9304   21652428.7304
        -0.000          -0.000
  -8332338.468 9  -6457124.71146  23897384.076    23897383.5564   23897390.7634
        -0.000          -0.000
  -9842320.513 9  -7656367.60446  23884765.230    23884764.5524   23884773.9604
        -0.000          -0.000
 99  5  4  2 30 30.0020000  0  8  3 23 21 17  8 29 31  1             0.002478780
 -10295703.089 9  -7273029.15848  22246738.956    22246738.3544   22246745.9074
        -0.000          -0.000
 -11771984.091 9  -8927595.02948  22682101.080    22682100.2994   22682107.2714
        -0.000          -0.000
 -18759248.544 9 -14185617.59548  21845695.503    21845694.9604   21845702.1494
        -0.000          -0.000
 -12544277.931 9  -8729015.14147  22756835.719    22756834.8514   22756842.4414
        -0.000          -0.000
    -64825.836 8    -44702.76842         0.000           0.0004          0.0004
        -0.000          -0.000
 -19836655.160 9 -15434693.23948  21643093.756    21643093.5584   21643100.3814
        -0.000          -0.000
  -8378229.596 9  -6492884.00646  23888651.196    23888650.7024   23888657.8384
        -0.000          -0.000
  -9933325.727 9  -7727280.55746  23867447.626    23867446.7104   23867456.0404
        -0.000          -0.000
 99  5  4  2 31  0.0020000  0  8  3 23 21 17  8 29 31  1             0.002484029
 -10279975.784 9  -7260774.11748  22249731.548    22249731.0024   22249738.7644
        -0.000          -0.000
 -11719109.758 9  -8886394.24048  22692162.695    22692161.9234   22692168.8644
        -0.000          -0.000
 -18762201.898 9 -14187918.89848  21845133.519    21845132.9794   21845140.1404
        -0.000          -0.000
 -12470738.116 9  -8671711.40747  22770829.907    22770829.0934   22770836.6174
        -0.000          -0.000
   -117798.895 8    -85980.44252         0.000           0.0004          0.0005
        -0.000          -0.000
 -19885242.001 9 -15472553.07148  21633847.954    21633847.7494   21633854.4894
        -0.000          -0.000
  -8423635.133 9  -6528264.94046  23880010.858    23880010.1434   23880017.4324
        -0.000          -0.000
 -10024127.325 9  -7798034.86946  23850168.159    23850167.5134   23850176.9164
        -0.000          -0.000
 99  5  4  2 31 30.0020000  0  8  3 23 21 17  8 29 31  1             0.002489278
 -10263669.451 9  -7248067.88448  22252834.371    22252833.9544   22252841.7244
        -0.000          -0.000
 -11666167.007 9  -8845140.15548  22702237.239    22702236.5094   22702243.4054
        -0.000          -0.000
 -18765005.936 9 -14190103.84848  21844600.010    21844599.4484   21844606.5274
        -0.000          -0.000
 -12396863.968 9  -8614147.15747  22784887.788    22784886.9414   22784894.4314
        -0.000          -0.000
   -170436.29618   -126996.53655         0.000           0.0005   23866733.1045
        -0.000          -0.000
 -19933384.490 9 -15510066.64548  21624686.713    21624686.5014   21624693.0924
        -0.000          -0.000
  -8468554.637 9  -6563267.11446  23871462.958    23871462.2814   23871469.5994
        -0.000          -0.000
 -10114697.672 9  -7868609.01846  23832932.822    23832932.2954   23832941.7974
        -0.000          -0.000
 99  5  4  2 32  0.0020000  0  8  3 23 21 17  8 29 31  1             0.002494507
 -10246800.950 9  -7234923.60148  22256044.381    22256043.9424   22256051.5454
        -0.000          -0.000
 -11613171.174 9  -8803844.70548  22712321.933    22712321.2374   22712328.1554
        -0.000          -0.000
 -18767669.319 9 -14192179.20048  21844093.339    21844092.7194   21844099.6734
        -0.000          -0.000
 -12322656.853 9  -8556323.45747  22799008.873    22799008.0554   22799015.5284
        -0.000          -0.000
   -222760.74718   -167768.79745  23856770.168    23856766.1945   23856777.7594
        -0.000          -0.000
 -19981085.113 9 -15547235.92248  21615609.489    21615609.2754   21615615.8064
        -0.000          -0.000
  -8513012.439 9  -6597909.53846  23863002.850    23863002.2474   23863009.4464
        -0.000          -0.000
 -10205049.137 9  -7939012.58746  23815739.539    23815738.8284   23815748.2984
        -0.000          -0.000
 99  5  4  2 32 30.0020000  0  8  3 23 21 17  8 29 31  1             0.002499706
 -10229365.732 9  -7221337.71648  22259362.163    22259361.7744   22259369.1664
        -0.000          -0.000
 -11560120.650 9  -8762506.64448  22722417.160    22722416.4384   22722423.3824
        -0.000          -0.000
 -18770177.125 9 -14194133.32048  21843616.235    21843615.6094   21843622.4364
        -0.000          -0.000
 -12248102.472 9  -8498229.15447  22813196.236    22813195.3934   22813202.8354
        -0.000          -0.000
   -274782.307 8   -208305.00545  23846870.077    23846866.1874   23846878.0234
        -0.000          -0.000
 -20028341.173 9 -15584058.78748  21606616.963    21606616.7904   21606623.2744
        -0.000          -0.000
  -8557001.505 9  -6632186.72546  23854631.999    23854631.4824   23854638.4514
        -0.000          -0.000
 -10295167.776 9  -8009234.73746  23798590.383    23798589.7684   23798599.1554
        -0.000          -0.000
 99  5  4  2 33  0.0020000  0  8  3 23 21 17  8 29 31  1             0.002504894
 -10211374.277 9  -7207318.40448  22262785.915    22262785.4944   22262792.6834
        -0.000          -0.000
 -11507016.537 9  -8721126.81948  22732522.642    22732521.9024   22732528.8614
        -0.000          -0.000
 -18772540.764 9 -14195975.11048  21843166.428    21843165.8014   21843172.6314
        -0.000          -0.000
 -12173201.582 9  -8439864.83847  22827449.399    22827448.5364   22827456.0514
        -0.000          -0.000
   -326490.975 8   -248597.47044  23837030.021    23837027.7384   23837037.3874
        -0.000          -0.000
 -20075167.506 9 -15620546.80248  21597706.241    21597705.9994   21597712.5864
        -0.000          -0.000
  -8600530.556 9  -6666105.44946  23846348.595    23846348.1274   23846355.0994
        -0.000          -0.000
 -10385029.534 9  -8079256.72946  23781490.186    23781489.6674   23781498.7574
        -0.000          -0.000
 99  5  4  2 33 30.0020000  0  8  3 23 21 17  8 29 31  1             0.002510076
 -10192821.292 9  -7192861.53148  22266316.444    22266316.0304   22266323.2414
        -0.000          -0.000
 -11453855.511 9  -8679702.64248  22742638.831    22742638.1394   22742645.0314
        -0.000          -0.000
 -18774769.006 9 -14197711.40048  21842742.364    21842741.7844   21842748.5404
        -0.000          -0.000
 -12097959.240 9  -8381234.46947  22841767.442    22841766.6244   22841774.2714
        -0.000          -0.000
   -377870.817 8   -288633.68154  23827252.616    23827251.0864          0.0005
        -0.000          -0.000
 -20121557.906 9 -15656695.12648  21588878.447    21588878.2404   21588884.8024
        -0.000          -0.000
  -8643598.619 9  -6699664.94746  23838152.780    23838152.4604   23838159.5624
        -0.000          -0.000
 -10474622.919 9  -8149069.59146  23764441.127    23764440.5904   23764449.4514
        -0.000          -0.000
 99  5  4  2 34  0.0020000  0  8  3 23 21 17  8 29 31  1             0.002515251
 -10173714.147 9  -7177972.84248  22269952.326    22269951.9834   22269959.3414
        -0.000          -0.000
 -11400653.889 9  -8638246.82348  22752762.741    22752762.0514   22752768.9264
        -0.000          -0.000
 -18776864.922 9 -14199344.56448  21842343.619    21842342.9814   21842349.6944
        -0.000          -0.000
 -12022392.411 9  -8322351.26147  22856147.227    22856146.4394   22856154.1124
        -0.000          -0.000
   -428930.578 8   -328420.36154  23817536.352    23817534.5324   23817542.2355
        -0.000          -0.000
 -20167512.630 9 -15692503.96148  21580133.639    21580133.3844   21580139.8594
        -0.000          -0.000
  -8686192.921 9  -6732855.28746  23830047.505    23830047.1024   23830054.2124
        -0.000          -0.000
 -10563965.972 9  -8218687.40646  23747440.066    23747439.3304   23747447.7364
        -0.000          -0.000
 99  5  4  2 34 30.0020000  0  8  3 23 21 17  8 29 31  1             0.002520414
 -10154056.802 9  -7162655.44648  22273693.020    22273692.7234   22273700.1044
        -0.000          -0.000
 -11347417.408 9  -8596763.85948  22762893.332    22762892.6474   22762899.5394
        -0.000          -0.000
 -18778829.601 9 -14200875.47848  21841969.748    21841969.0804   21841975.8824
        -0.000          -0.000
 -11946512.818 9  -8263224.31547  22870586.701    22870585.9324   22870593.4034
        -0.000          -0.000
   -479670.843 8   -367958.16044  23807880.750    23807879.5074   23807886.8144
        -0.000          -0.000
 -20213016.210 9 -15727961.25748  21571474.665    21571474.4094   21571480.8644
        -0.000          -0.000
  -8728301.705 9  -6765667.31546  23822034.710    23822034.1294   23822041.2814
        -0.000          -0.000
 -10653055.805 9  -8288107.90847  23730487.129    23730486.2174   23730494.4224
        -0.000          -0.000
 99  5  4  2 35  0.0020000  0  8  3 23 21 17  8 29 31  1             0.002525571
 -10133826.946 9  -7146891.92048  22277542.795    22277542.4784   22277549.7014
        -0.000          -0.000
 -11294123.973 9  -8555236.49948  22773034.936    22773034.2264   22773041.0544
        -0.000          -0.000
 -18780644.558 9 -14202289.73148  21841624.356    21841623.6894   21841630.5274
        -0.000          -0.000
 -11870317.278 9  -8203851.19447  22885086.193    22885085.3954   22885092.8714
        -0.000          -0.000
   -530064.569 8   -407226.00845  23798291.024    23798290.3254   23798297.8714
        -0.000          -0.000
 -20258040.582 9 -15763045.15048  21562906.896    21562906.6004   21562913.0754
        -0.000          -0.000
  -8769903.344 9  -6798084.14246  23814118.436    23814117.6404   23814125.0914
        -0.000          -0.000
 -10741886.583 9  -8357326.55347  23713582.766    23713581.9394   23713590.3024
        -0.000          -0.000
 99  5  4  2 35 30.0020000  0  8  3 23 21 17  8 29 31  1             0.002530709
 -10113030.135 9  -7130686.60548  22281500.328    22281499.9894   22281507.1894
        -0.000          -0.000
 -11240780.570 9  -8513670.20348  22783186.078    22783185.3194   22783192.0894
        -0.000          -0.000
 -18782311.310 9 -14203588.49348  21841307.173    21841306.4784   21841313.3464
        -0.000          -0.000
 -11793829.398 9  -8144250.26647  22899641.408    22899640.6194   22899648.0244
        -0.000          -0.000
   -580125.551 8   -446234.46645  23788765.144    23788764.6104   23788771.7984
        -0.000          -0.000
 -20302580.492 9 -15797751.52448  21554431.198    21554430.9184   21554437.4244
        -0.000          -0.000
  -8810984.294 9  -6830095.22446  23806300.912    23806300.0424   23806307.7324
        -0.000          -0.000
 -10830485.135 9  -8426364.26147  23696722.552    23696721.9014   23696730.5264
        -0.000          -0.000
 99  5  4  2 36  0.0020000  0  8  3 23 21 17  8 29 31  1             0.002535838
 -10091647.110 9  -7114024.50548  22285569.322    22285569.0324   22285576.2824
        -0.000          -0.000
 -11187365.742 9  -8472048.26548  22793350.704    22793349.9524   22793356.7204
        -0.000          -0.000
 -18783816.293 9 -14204761.20848  21841020.646    21841019.9874   21841026.8834
        -0.000          -0.000
 -11717026.748 9  -8084404.06447  22914256.394    22914255.5824   22914262.8904
        -0.000          -0.000
   -629837.612 8   -484971.00445  23779305.162    23779304.6214   23779312.0414
        -0.000          -0.000
 -20346619.244 9 -15832067.39948  21546050.837    21546050.5904   21546057.1424
        -0.000          -0.000
  -8851514.288 9  -6861676.99146  23798588.160    23798587.3414   23798595.1454
        -0.000          -0.000
 -10918853.404 9  -8495222.53147  23679906.373    23679905.8334   23679914.5794
        -0.000          -0.000
 99  5  4  2 36 30.0020000  0  8  3 23 21 17  8 29 31  1             0.002540965
 -10069651.295 9  -7096884.91448  22289754.871    22289754.5844   22289761.8944
        -0.000          -0.000
 -11133858.500 9  -8430354.30248  22803532.899    22803532.1234   22803538.7914
        -0.000          -0.000
 -18785161.041 9 -14205809.05748  21840764.594    21840763.9844   21840770.9554
        -0.000          -0.000
 -11639894.394 9  -8024300.95947  22928933.940    22928933.2004   22928940.4304
        -0.000          -0.000
   -679181.981 8   -523421.10845  23769914.852    23769914.2724   23769922.0084
        -0.000          -0.000
 -20390156.939 9 -15865992.83748  21537765.830    21537765.6154   21537772.2034
        -0.000          -0.000
  -8891496.610 9  -6892832.00646  23790979.735    23790979.0284   23790986.7384
        -0.000          -0.000
 -11006980.419 9  -8563892.78647  23663136.370    23663135.7624   23663144.6114
        -0.000          -0.000
 99  5  4  2 37  0.0020000  0  8  3 23 21 17  8 29 31  1             0.002546070
 -10047091.554 9  -7079305.90448  22294047.841    22294047.5624   22294054.8174
        -0.000          -0.000
 -11080313.634 9  -8388631.02648  22813722.166    22813721.3794   22813727.9924
        -0.000          -0.000
 -18786419.655 9 -14206789.79048  21840524.968    21840524.4494   21840531.5204
        -0.000          -0.000
 -11562485.541 9  -7963982.38947  22943664.296    22943663.5824   22943670.8954
        -0.000          -0.000
   -728213.059 8   -561627.12045  23760584.274    23760583.9194   23760591.7124
        -0.000          -0.000
 -20433287.562 9 -15899601.07448  21529558.284    21529558.0574   21529564.5904
        -0.000          -0.000
  -8930992.924 9  -6923608.33746  23783463.988    23783463.2514   23783470.8684
        -0.000          -0.000
 -11094929.225 9  -8632424.21547  23646400.350    23646399.7084   23646408.4954
        -0.000          -0.000
 99  5  4  2 37 30.0020000  0  8  3 23 21 17  8 29 31  1             0.002551186
 -10023929.269 9  -7061257.38048  22298455.588    22298455.2214   22298462.3924
        -0.000          -0.000
 -11026694.000 9  -8346849.48048  22823925.597    22823924.8064   22823931.3604
        -0.000          -0.000
 -18787551.387 9 -14207671.65748  21840309.714    21840309.1384   21840316.1714
        -0.000          -0.000
 -11484738.420 9  -7903400.22447  22958459.253    22958458.4994   22958465.8144
        -0.000          -0.000
   -776891.456 8   -599558.18945  23751321.322    23751320.7534   23751328.2714
        -0.000          -0.000
 -20475974.687 9 -15932863.73748  21521435.123    21521434.9214   21521441.3984
        -0.000          -0.000
  -8969955.894 9  -6953969.03746  23776049.726    23776048.8444   23776056.5374
        -0.000          -0.000
 -11182642.943 9  -8700772.46347  23629709.072    23629708.2734   23629716.9994
        -0.000          -0.000
 99  5  4  2 38  0.0020000  0  8  3 23 21 17  8 29 31  1             0.002556335
 -10000149.397 9  -7042727.62248  22302980.858    22302980.4384   22302987.5384
        -0.000          -0.000
 -10972979.592 9  -8304994.09648  22834147.059    22834146.2404   22834152.8624
        -0.000          -0.000
 -18788530.555 9 -14208434.63948  21840123.530    21840122.9074   21840129.8004
        -0.000          -0.000
 -11406605.661 9  -7842517.57547  22973327.593    22973326.7974   22973334.2034
        -0.000          -0.000
   -825195.387 8   -637197.50045  23742129.665    23742129.1954   23742136.6704
        -0.000          -0.000
 -20518195.617 9 -15965763.12448  21513400.795    21513400.5724   21513406.9964
        -0.000          -0.000
  -9008357.848 9  -6983892.58146  23768741.672    23768740.9344   23768748.8644
        -0.000          -0.000
 -11270082.068 9  -8768906.73947  23613069.612    23613069.0424   23613077.6404
        -0.000          -0.000
 99  5  4  2 38 30.0020000  0  8  3 23 21 17  8 29 31  1             0.002561489
  -9975823.185 9  -7023772.14148  22307610.070    22307609.5734   22307616.7084
        -0.000          -0.000
 -10919230.419 9  -8263111.63748  22844374.997    22844374.2494   22844380.9094
        -0.000          -0.000
 -18789396.392 9 -14209109.30448  21839958.882    21839958.2314   21839965.0004
        -0.000          -0.000
 -11328146.795 9  -7781380.82847  22988257.860    22988256.9724   22988264.4474
        -0.000          -0.000
   -873183.174 8   -674590.63645  23732998.265    23732997.6284   23733004.8944
        -0.000          -0.000
 -20560018.686 9 -15998352.49648  21505442.113    21505441.8724   21505448.2514
        -0.000          -0.000
  -9046254.820 9  -7013422.64346  23761529.618    23761529.1264   23761537.4224
        -0.000          -0.000
 -11357277.412 9  -8836851.06847  23596476.792    23596476.3394   23596484.6524
        -0.000          -0.000
 99  5  4  2 39  0.0020000  0  8  3 23 21 17  8 29 31  1             0.002566643
  -9950978.525 9  -7004412.66348  22312337.828    22312337.3704   22312344.5284
        -0.000          -0.000
 -10865462.037 9  -8221214.19648  22854606.687    22854605.9564   22854612.6674
        -0.000          -0.000
 -18790141.848 9 -14209690.17248  21839817.093    21839816.4104   21839823.1224
        -0.000          -0.000
 -11249365.379 9  -7719992.72747  23003249.112    23003248.4434   23003256.2114
        -0.000          -0.000
   -920856.117 8   -711738.32045  23723926.257    23723925.3104   23723932.1644
        -0.000          -0.000
 -20601443.556 9 -16030631.57348  21497559.211    21497558.9504   21497565.2574
        -0.000          -0.000
  -9083648.075 9  -7042560.20546  23754414.089    23754413.4024   23754421.7574
        -0.000          -0.000
 -11444234.847 9  -8904610.02947  23579929.521    23579928.8254   23579936.8774
        -0.000          -0.000
